<?xml version='1.0' encoding='UTF-8'?><gpx version="1.1" creator="JPX - https://github.com/jenetics/jpx" xmlns="http://www.topografix.com/GPX/1/1"><trk><trkseg><trkpt lat="44.84843355175306" lon="11.570733777536"><ele>8.0</ele><time>2026-04-17T17:08:25Z</time></trkpt><trkpt lat="44.84840214529377" lon="11.570654491454494"><ele>8.0</ele><time>2026-04-17T17:08:28Z</time></trkpt><trkpt lat="44.848341590973" lon="11.570596054824165"><ele>8.0</ele><time>2026-04-17T17:09:04Z</time></trkpt><trkpt lat="44.84834190315814" lon="11.570419319969027"><ele>8.0</ele><time>2026-04-17T17:09:17.999Z</time></trkpt><trkpt lat="44.848359511512186" lon="11.570262621761616"><ele>8.0</ele><time>2026-04-17T17:09:18.999Z</time></trkpt><trkpt lat="44.84837858155012" lon="11.57006170762455"><ele>8.0</ele><time>2026-04-17T17:09:19.999Z</time></trkpt><trkpt lat="44.848399415873345" lon="11.569853287311645"><ele>8.0</ele><time>2026-04-17T17:09:20.999Z</time></trkpt><trkpt lat="44.84842877382589" lon="11.56963711937766"><ele>8.0</ele><time>2026-04-17T17:09:21.999Z</time></trkpt><trkpt lat="44.84845573676528" lon="11.569431520553001"><ele>7.75</ele><time>2026-04-17T17:09:22.999Z</time></trkpt><trkpt lat="44.8484782939557" lon="11.569224556907033"><ele>7.5</ele><time>2026-04-17T17:09:23.999Z</time></trkpt><trkpt lat="44.848504371101235" lon="11.569030136320235"><ele>7.25</ele><time>2026-04-17T17:09:24.999Z</time></trkpt><trkpt lat="44.84852511178681" lon="11.568852324222394"><ele>7.0</ele><time>2026-04-17T17:09:25.999Z</time></trkpt><trkpt lat="44.84856527454734" lon="11.568655953594586"><ele>7.0</ele><time>2026-04-17T17:09:26.999Z</time></trkpt><trkpt lat="44.84861404804276" lon="11.568468818869437"><ele>7.0</ele><time>2026-04-17T17:09:27.999Z</time></trkpt><trkpt lat="44.84866942244189" lon="11.568271394257064"><ele>7.0</ele><time>2026-04-17T17:09:28.999Z</time></trkpt><trkpt lat="44.848722967693014" lon="11.56805564731642"><ele>7.333333333333334</ele><time>2026-04-17T17:09:29.999Z</time></trkpt><trkpt lat="44.84878529549852" lon="11.567847524855363"><ele>7.666666666666666</ele><time>2026-04-17T17:09:30.999Z</time></trkpt><trkpt lat="44.84884511248503" lon="11.567652562273596"><ele>8.0</ele><time>2026-04-17T17:09:31.999Z</time></trkpt><trkpt lat="44.84889655220721" lon="11.567467057366205"><ele>8.0</ele><time>2026-04-17T17:09:32.999Z</time></trkpt><trkpt lat="44.84894631809489" lon="11.567286199257067"><ele>8.0</ele><time>2026-04-17T17:09:33.999Z</time></trkpt><trkpt lat="44.84899888944611" lon="11.56710994494775"><ele>8.0</ele><time>2026-04-17T17:09:34.999Z</time></trkpt><trkpt lat="44.849047412452656" lon="11.566933700884341"><ele>8.0</ele><time>2026-04-17T17:09:35.999Z</time></trkpt><trkpt lat="44.84909747092852" lon="11.566756535528759"><ele>8.25</ele><time>2026-04-17T17:09:36.999Z</time></trkpt><trkpt lat="44.849144789511115" lon="11.566582108896831"><ele>8.5</ele><time>2026-04-17T17:09:37.999Z</time></trkpt><trkpt lat="44.8491986986716" lon="11.566389787787905"><ele>8.75</ele><time>2026-04-17T17:09:38.999Z</time></trkpt><trkpt lat="44.849247517384775" lon="11.566221696814356"><ele>9.0</ele><time>2026-04-17T17:09:39.999Z</time></trkpt><trkpt lat="44.849290786641895" lon="11.566055521072522"><ele>8.0</ele><time>2026-04-17T17:09:40.999Z</time></trkpt><trkpt lat="44.849334336678986" lon="11.565892662947332"><ele>7.0</ele><time>2026-04-17T17:09:41.999Z</time></trkpt><trkpt lat="44.849381056306825" lon="11.565714696850002"><ele>6.0</ele><time>2026-04-17T17:09:42.999Z</time></trkpt><trkpt lat="44.84943284613567" lon="11.565538909584175"><ele>5.0</ele><time>2026-04-17T17:09:43.999Z</time></trkpt><trkpt lat="44.84949499198598" lon="11.565367227587245"><ele>5.75</ele><time>2026-04-17T17:09:44.999Z</time></trkpt><trkpt lat="44.84952839932526" lon="11.565211019519698"><ele>6.5</ele><time>2026-04-17T17:09:45.999Z</time></trkpt><trkpt lat="44.84955926933307" lon="11.565056774221116"><ele>7.25</ele><time>2026-04-17T17:09:46.999Z</time></trkpt><trkpt lat="44.84960721052537" lon="11.564901314405379"><ele>8.0</ele><time>2026-04-17T17:09:47.999Z</time></trkpt><trkpt lat="44.84965144918666" lon="11.5647521936385"><ele>8.0</ele><time>2026-04-17T17:09:48.999Z</time></trkpt><trkpt lat="44.84969537100603" lon="11.564615626477435"><ele>8.0</ele><time>2026-04-17T17:09:49.999Z</time></trkpt><trkpt lat="44.849734432439526" lon="11.564477372071293"><ele>8.0</ele><time>2026-04-17T17:09:50.999Z</time></trkpt><trkpt lat="44.8497918932724" lon="11.564325248258262"><ele>8.0</ele><time>2026-04-17T17:09:51.999Z</time></trkpt><trkpt lat="44.84986202438027" lon="11.564167108677923"><ele>7.75</ele><time>2026-04-17T17:09:52.999Z</time></trkpt><trkpt lat="44.849934137123014" lon="11.563992270321835"><ele>7.5</ele><time>2026-04-17T17:09:53.999Z</time></trkpt><trkpt lat="44.85000570184903" lon="11.563820336026609"><ele>7.25</ele><time>2026-04-17T17:09:54.999Z</time></trkpt><trkpt lat="44.85007568009508" lon="11.563659459333193"><ele>7.0</ele><time>2026-04-17T17:09:55.999Z</time></trkpt><trkpt lat="44.850146222962046" lon="11.563498110895564"><ele>7.0</ele><time>2026-04-17T17:09:56.999Z</time></trkpt><trkpt lat="44.85021290155374" lon="11.563341572723917"><ele>7.0</ele><time>2026-04-17T17:09:57.999Z</time></trkpt><trkpt lat="44.85026863617317" lon="11.563202281508788"><ele>7.0</ele><time>2026-04-17T17:09:58.999Z</time></trkpt><trkpt lat="44.85031863838522" lon="11.563050013451328"><ele>7.0</ele><time>2026-04-17T17:09:59.999Z</time></trkpt><trkpt lat="44.85036380390261" lon="11.562896692236725"><ele>7.25</ele><time>2026-04-17T17:10:00.999Z</time></trkpt><trkpt lat="44.85040807091965" lon="11.562749712545893"><ele>7.5</ele><time>2026-04-17T17:10:01.999Z</time></trkpt><trkpt lat="44.85045312315436" lon="11.56260402847156"><ele>7.75</ele><time>2026-04-17T17:10:02.999Z</time></trkpt><trkpt lat="44.850498489943334" lon="11.562450201354105"><ele>8.0</ele><time>2026-04-17T17:10:03.999Z</time></trkpt><trkpt lat="44.850542070158006" lon="11.562302412470013"><ele>8.0</ele><time>2026-04-17T17:10:04.999Z</time></trkpt><trkpt lat="44.850586200811534" lon="11.56215240663291"><ele>8.0</ele><time>2026-04-17T17:10:05.999Z</time></trkpt><trkpt lat="44.8506282395875" lon="11.562005525562046"><ele>8.0</ele><time>2026-04-17T17:10:06.999Z</time></trkpt><trkpt lat="44.850671400543504" lon="11.56185954101744"><ele>8.0</ele><time>2026-04-17T17:10:07.999Z</time></trkpt><trkpt lat="44.85071422203857" lon="11.561714742720774"><ele>8.0</ele><time>2026-04-17T17:10:08.999Z</time></trkpt><trkpt lat="44.85075610614754" lon="11.561567391056915"><ele>8.0</ele><time>2026-04-17T17:10:09.999Z</time></trkpt><trkpt lat="44.85080291243448" lon="11.5613995511559"><ele>8.0</ele><time>2026-04-17T17:10:10.999Z</time></trkpt><trkpt lat="44.850848666837244" lon="11.561221516324853"><ele>8.0</ele><time>2026-04-17T17:10:11.999Z</time></trkpt><trkpt lat="44.85089838259151" lon="11.561044383802502"><ele>8.0</ele><time>2026-04-17T17:10:12.999Z</time></trkpt><trkpt lat="44.85094372117641" lon="11.560872860691239"><ele>8.0</ele><time>2026-04-17T17:10:13.999Z</time></trkpt><trkpt lat="44.85099064201716" lon="11.560706485027472"><ele>8.0</ele><time>2026-04-17T17:10:14.999Z</time></trkpt><trkpt lat="44.851032594905945" lon="11.56054218798358"><ele>8.0</ele><time>2026-04-17T17:10:15.999Z</time></trkpt><trkpt lat="44.85107426197012" lon="11.560375212400578"><ele>7.5</ele><time>2026-04-17T17:10:16.999Z</time></trkpt><trkpt lat="44.851120146110674" lon="11.560200578398874"><ele>7.0</ele><time>2026-04-17T17:10:17.999Z</time></trkpt><trkpt lat="44.85116437873276" lon="11.560026343677771"><ele>6.5</ele><time>2026-04-17T17:10:18.999Z</time></trkpt><trkpt lat="44.85120675404023" lon="11.559849727412184"><ele>6.0</ele><time>2026-04-17T17:10:20Z</time></trkpt><trkpt lat="44.85124598293966" lon="11.55966885856387"><ele>6.0</ele><time>2026-04-17T17:10:21Z</time></trkpt><trkpt lat="44.85128939612852" lon="11.559488921578605"><ele>6.0</ele><time>2026-04-17T17:10:22Z</time></trkpt><trkpt lat="44.85133051199666" lon="11.559310525681022"><ele>6.0</ele><time>2026-04-17T17:10:23Z</time></trkpt><trkpt lat="44.8513739569478" lon="11.55913940937459"><ele>6.0</ele><time>2026-04-17T17:10:24Z</time></trkpt><trkpt lat="44.85141071427737" lon="11.55897532055228"><ele>6.0</ele><time>2026-04-17T17:10:25Z</time></trkpt><trkpt lat="44.851446983382516" lon="11.558813203262078"><ele>6.0</ele><time>2026-04-17T17:10:26Z</time></trkpt><trkpt lat="44.851488381641175" lon="11.558648795962615"><ele>6.0</ele><time>2026-04-17T17:10:27Z</time></trkpt><trkpt lat="44.8515239778002" lon="11.558493453145667"><ele>6.0</ele><time>2026-04-17T17:10:28Z</time></trkpt><trkpt lat="44.851567864782055" lon="11.55834717136402"><ele>6.4</ele><time>2026-04-17T17:10:29Z</time></trkpt><trkpt lat="44.851607385505915" lon="11.558195890308669"><ele>6.8</ele><time>2026-04-17T17:10:30Z</time></trkpt><trkpt lat="44.85164862074383" lon="11.558048609896526"><ele>7.200000000000001</ele><time>2026-04-17T17:10:31Z</time></trkpt><trkpt lat="44.851685552584264" lon="11.557915665680378"><ele>7.6000000000000005</ele><time>2026-04-17T17:10:32Z</time></trkpt><trkpt lat="44.85172145710304" lon="11.557790975073093"><ele>8.0</ele><time>2026-04-17T17:10:33Z</time></trkpt><trkpt lat="44.851764821238525" lon="11.557662946662374"><ele>8.0</ele><time>2026-04-17T17:10:34Z</time></trkpt><trkpt lat="44.8518144752969" lon="11.557529817476048"><ele>8.0</ele><time>2026-04-17T17:10:35Z</time></trkpt><trkpt lat="44.85187334497261" lon="11.55739809031534"><ele>8.0</ele><time>2026-04-17T17:10:36Z</time></trkpt><trkpt lat="44.85192970164801" lon="11.557249775828659"><ele>8.0</ele><time>2026-04-17T17:10:37Z</time></trkpt><trkpt lat="44.85197696210908" lon="11.557099881719818"><ele>8.0</ele><time>2026-04-17T17:10:38Z</time></trkpt><trkpt lat="44.85202061915181" lon="11.556937068964436"><ele>8.0</ele><time>2026-04-17T17:10:39Z</time></trkpt><trkpt lat="44.852065739908234" lon="11.556766672692627"><ele>8.0</ele><time>2026-04-17T17:10:40Z</time></trkpt><trkpt lat="44.8521066884475" lon="11.556594824424508"><ele>8.0</ele><time>2026-04-17T17:10:41Z</time></trkpt><trkpt lat="44.85214914784752" lon="11.5564142512949"><ele>8.0</ele><time>2026-04-17T17:10:42Z</time></trkpt><trkpt lat="44.85219436128778" lon="11.556227247273684"><ele>8.0</ele><time>2026-04-17T17:10:43Z</time></trkpt><trkpt lat="44.852237640062356" lon="11.556038530685765"><ele>8.0</ele><time>2026-04-17T17:10:44Z</time></trkpt><trkpt lat="44.85228094908022" lon="11.555856401121638"><ele>8.0</ele><time>2026-04-17T17:10:45Z</time></trkpt><trkpt lat="44.85231303002554" lon="11.55567516888767"><ele>8.0</ele><time>2026-04-17T17:10:46Z</time></trkpt><trkpt lat="44.85235543177131" lon="11.555488707491628"><ele>8.0</ele><time>2026-04-17T17:10:47Z</time></trkpt><trkpt lat="44.852397877541456" lon="11.555293645547533"><ele>8.0</ele><time>2026-04-17T17:10:48Z</time></trkpt><trkpt lat="44.85243303643804" lon="11.555109588726292"><ele>8.0</ele><time>2026-04-17T17:10:49Z</time></trkpt><trkpt lat="44.85246998475118" lon="11.55493699595964"><ele>7.75</ele><time>2026-04-17T17:10:50Z</time></trkpt><trkpt lat="44.85250449910377" lon="11.554768674600664"><ele>7.5</ele><time>2026-04-17T17:10:51Z</time></trkpt><trkpt lat="44.85253885921664" lon="11.554595831159611"><ele>7.25</ele><time>2026-04-17T17:10:52Z</time></trkpt><trkpt lat="44.852578524674776" lon="11.554418094020535"><ele>7.0</ele><time>2026-04-17T17:10:53Z</time></trkpt><trkpt lat="44.85262382314074" lon="11.554243935955265"><ele>7.0</ele><time>2026-04-17T17:10:54Z</time></trkpt><trkpt lat="44.85266294707167" lon="11.554071076885224"><ele>7.0</ele><time>2026-04-17T17:10:55Z</time></trkpt><trkpt lat="44.852698838519814" lon="11.553905503680063"><ele>7.0</ele><time>2026-04-17T17:10:56Z</time></trkpt><trkpt lat="44.85273276540153" lon="11.55374863698732"><ele>7.0</ele><time>2026-04-17T17:10:57Z</time></trkpt><trkpt lat="44.852767192621926" lon="11.55358953819354"><ele>6.75</ele><time>2026-04-17T17:10:58Z</time></trkpt><trkpt lat="44.85279754704436" lon="11.55343087090891"><ele>6.5</ele><time>2026-04-17T17:10:59Z</time></trkpt><trkpt lat="44.852821080735986" lon="11.553278846040143"><ele>6.25</ele><time>2026-04-17T17:11:00Z</time></trkpt><trkpt lat="44.852839883849555" lon="11.553128109215205"><ele>6.0</ele><time>2026-04-17T17:11:01Z</time></trkpt><trkpt lat="44.85287016180479" lon="11.552951969079823"><ele>6.333333333333334</ele><time>2026-04-17T17:11:02Z</time></trkpt><trkpt lat="44.852914427024054" lon="11.552741836134045"><ele>6.666666666666667</ele><time>2026-04-17T17:11:03Z</time></trkpt><trkpt lat="44.85297518692572" lon="11.552479410216652"><ele>7.0</ele><time>2026-04-17T17:11:04Z</time></trkpt><trkpt lat="44.85303310305859" lon="11.55217867364887"><ele>8.0</ele><time>2026-04-17T17:11:04.999Z</time></trkpt><trkpt lat="44.85308832893186" lon="11.551871248006456"><ele>9.0</ele><time>2026-04-17T17:11:05.999Z</time></trkpt><trkpt lat="44.85314335993677" lon="11.551600163347118"><ele>10.0</ele><time>2026-04-17T17:11:06.999Z</time></trkpt><trkpt lat="44.85319628843184" lon="11.551359964858218"><ele>10.25</ele><time>2026-04-17T17:11:07.999Z</time></trkpt><trkpt lat="44.85323335134102" lon="11.551149140591276"><ele>10.5</ele><time>2026-04-17T17:11:08.999Z</time></trkpt><trkpt lat="44.85327460716591" lon="11.55095157366031"><ele>10.75</ele><time>2026-04-17T17:11:09.999Z</time></trkpt><trkpt lat="44.853311687257" lon="11.550759610816302"><ele>11.0</ele><time>2026-04-17T17:11:10.999Z</time></trkpt><trkpt lat="44.853352891522924" lon="11.550548998255824"><ele>10.333333333333332</ele><time>2026-04-17T17:11:11.999Z</time></trkpt><trkpt lat="44.85339398398398" lon="11.550322889268223"><ele>9.666666666666666</ele><time>2026-04-17T17:11:12.999Z</time></trkpt><trkpt lat="44.85344769349332" lon="11.550090517293375"><ele>9.0</ele><time>2026-04-17T17:11:13.999Z</time></trkpt><trkpt lat="44.853501417885944" lon="11.54985647525694"><ele>8.666666666666666</ele><time>2026-04-17T17:11:14.999Z</time></trkpt><trkpt lat="44.85355473352364" lon="11.549621564755128"><ele>8.333333333333332</ele><time>2026-04-17T17:11:15.999Z</time></trkpt><trkpt lat="44.85361505492674" lon="11.549388537881503"><ele>8.0</ele><time>2026-04-17T17:11:16.999Z</time></trkpt><trkpt lat="44.85368603322858" lon="11.549150463848928"><ele>8.0</ele><time>2026-04-17T17:11:17.999Z</time></trkpt><trkpt lat="44.85375685970206" lon="11.54891757923498"><ele>8.0</ele><time>2026-04-17T17:11:18.999Z</time></trkpt><trkpt lat="44.85383383957016" lon="11.548714931172691"><ele>8.0</ele><time>2026-04-17T17:11:19.999Z</time></trkpt><trkpt lat="44.85391715681175" lon="11.548530549548259"><ele>7.666666666666666</ele><time>2026-04-17T17:11:20.999Z</time></trkpt><trkpt lat="44.854015746343656" lon="11.548347320974734"><ele>7.333333333333334</ele><time>2026-04-17T17:11:21.999Z</time></trkpt><trkpt lat="44.85412555763255" lon="11.548172300488947"><ele>7.0</ele><time>2026-04-17T17:11:22.999Z</time></trkpt><trkpt lat="44.854235853038304" lon="11.547999368233382"><ele>6.5</ele><time>2026-04-17T17:11:23.999Z</time></trkpt><trkpt lat="44.85433929809926" lon="11.547846562642338"><ele>6.0</ele><time>2026-04-17T17:11:24.999Z</time></trkpt><trkpt lat="44.85443429153029" lon="11.547702498953145"><ele>5.5</ele><time>2026-04-17T17:11:25.999Z</time></trkpt><trkpt lat="44.85451362640197" lon="11.547571278981872"><ele>5.0</ele><time>2026-04-17T17:11:26.999Z</time></trkpt><trkpt lat="44.85458613335442" lon="11.547448181420432"><ele>5.0</ele><time>2026-04-17T17:11:27.999Z</time></trkpt><trkpt lat="44.854653371456855" lon="11.547333792122986"><ele>5.0</ele><time>2026-04-17T17:11:28.999Z</time></trkpt><trkpt lat="44.8547223924275" lon="11.547229848699397"><ele>5.0</ele><time>2026-04-17T17:11:29.999Z</time></trkpt><trkpt lat="44.85479815001962" lon="11.547156709000376"><ele>5.0</ele><time>2026-04-17T17:11:30.999Z</time></trkpt><trkpt lat="44.85487451255043" lon="11.54710012127077"><ele>5.0</ele><time>2026-04-17T17:11:31.999Z</time></trkpt><trkpt lat="44.854945591377124" lon="11.547054292609431"><ele>5.4</ele><time>2026-04-17T17:11:32.999Z</time></trkpt><trkpt lat="44.85499955558781" lon="11.546968072933183"><ele>5.8</ele><time>2026-04-17T17:11:33.999Z</time></trkpt><trkpt lat="44.855037108968595" lon="11.54685025420609"><ele>6.199999999999999</ele><time>2026-04-17T17:11:34.999Z</time></trkpt><trkpt lat="44.85505137651775" lon="11.546721955881624"><ele>6.6</ele><time>2026-04-17T17:11:35.999Z</time></trkpt><trkpt lat="44.85503598721543" lon="11.546594772081862"><ele>7.0</ele><time>2026-04-17T17:11:36.999Z</time></trkpt><trkpt lat="44.855000783200936" lon="11.546466538742202"><ele>7.0</ele><time>2026-04-17T17:11:37.999Z</time></trkpt><trkpt lat="44.85498397169598" lon="11.546322629578597"><ele>7.0</ele><time>2026-04-17T17:11:38.999Z</time></trkpt><trkpt lat="44.8549972380039" lon="11.546159420647841"><ele>7.0</ele><time>2026-04-17T17:11:39.999Z</time></trkpt><trkpt lat="44.85502207554161" lon="11.545970536455718"><ele>7.0</ele><time>2026-04-17T17:11:40.999Z</time></trkpt><trkpt lat="44.855033798591066" lon="11.545768546608562"><ele>6.75</ele><time>2026-04-17T17:11:41.999Z</time></trkpt><trkpt lat="44.85503726339079" lon="11.545557822365488"><ele>6.5</ele><time>2026-04-17T17:11:42.999Z</time></trkpt><trkpt lat="44.855034488506554" lon="11.54534873516066"><ele>6.25</ele><time>2026-04-17T17:11:43.999Z</time></trkpt><trkpt lat="44.8550406789587" lon="11.545160162558437"><ele>6.0</ele><time>2026-04-17T17:11:44.999Z</time></trkpt><trkpt lat="44.8550515067172" lon="11.544976600960785"><ele>6.0</ele><time>2026-04-17T17:11:45.999Z</time></trkpt><trkpt lat="44.855068939098146" lon="11.544777850614805"><ele>6.0</ele><time>2026-04-17T17:11:46.999Z</time></trkpt><trkpt lat="44.855093331149774" lon="11.544580205757233"><ele>6.0</ele><time>2026-04-17T17:11:47.999Z</time></trkpt><trkpt lat="44.85512383596761" lon="11.544382640431584"><ele>6.0</ele><time>2026-04-17T17:11:48.999Z</time></trkpt><trkpt lat="44.855164669680946" lon="11.544177231210732"><ele>5.666666666666667</ele><time>2026-04-17T17:11:49.999Z</time></trkpt><trkpt lat="44.85522031425327" lon="11.543962136348675"><ele>5.333333333333334</ele><time>2026-04-17T17:11:50.999Z</time></trkpt><trkpt lat="44.85528276263816" lon="11.543755898565315"><ele>5.0</ele><time>2026-04-17T17:11:51.999Z</time></trkpt><trkpt lat="44.855342778019605" lon="11.543542061244542"><ele>5.666666666666667</ele><time>2026-04-17T17:11:52.999Z</time></trkpt><trkpt lat="44.85540069586491" lon="11.543322211019142"><ele>6.333333333333334</ele><time>2026-04-17T17:11:53.999Z</time></trkpt><trkpt lat="44.85545878105593" lon="11.543130388296317"><ele>7.0</ele><time>2026-04-17T17:11:54.999Z</time></trkpt><trkpt lat="44.855507934445185" lon="11.542927736475285"><ele>7.0</ele><time>2026-04-17T17:11:55.999Z</time></trkpt><trkpt lat="44.85556109021616" lon="11.542716032286954"><ele>7.0</ele><time>2026-04-17T17:11:56.999Z</time></trkpt><trkpt lat="44.85561210811465" lon="11.542508387209393"><ele>7.0</ele><time>2026-04-17T17:11:57.999Z</time></trkpt><trkpt lat="44.85565116146429" lon="11.542293645349046"><ele>7.0</ele><time>2026-04-17T17:11:58.999Z</time></trkpt><trkpt lat="44.8556929223469" lon="11.54207341671892"><ele>7.0</ele><time>2026-04-17T17:11:59.999Z</time></trkpt><trkpt lat="44.85572852193595" lon="11.541856297755"><ele>7.0</ele><time>2026-04-17T17:12:00.999Z</time></trkpt><trkpt lat="44.855764289066755" lon="11.541637969035893"><ele>7.0</ele><time>2026-04-17T17:12:01.999Z</time></trkpt><trkpt lat="44.855796339504245" lon="11.541417869080187"><ele>7.0</ele><time>2026-04-17T17:12:02.999Z</time></trkpt><trkpt lat="44.85584545578753" lon="11.54120461282413"><ele>7.0</ele><time>2026-04-17T17:12:03.999Z</time></trkpt><trkpt lat="44.855877632622814" lon="11.540993623024207"><ele>7.25</ele><time>2026-04-17T17:12:04.999Z</time></trkpt><trkpt lat="44.855906180070775" lon="11.540802674277712"><ele>7.5</ele><time>2026-04-17T17:12:05.999Z</time></trkpt><trkpt lat="44.85592190145438" lon="11.54060627561864"><ele>7.75</ele><time>2026-04-17T17:12:06.999Z</time></trkpt><trkpt lat="44.85595182830369" lon="11.540420088351144"><ele>8.0</ele><time>2026-04-17T17:12:07.999Z</time></trkpt><trkpt lat="44.85598617727857" lon="11.540226180429373"><ele>7.25</ele><time>2026-04-17T17:12:08.999Z</time></trkpt><trkpt lat="44.85600955808246" lon="11.54002712970571"><ele>6.5</ele><time>2026-04-17T17:12:09.999Z</time></trkpt><trkpt lat="44.85603879143629" lon="11.539821637038381"><ele>5.75</ele><time>2026-04-17T17:12:10.999Z</time></trkpt><trkpt lat="44.85608303399157" lon="11.539622150942291"><ele>5.0</ele><time>2026-04-17T17:12:11.999Z</time></trkpt><trkpt lat="44.85611385868951" lon="11.539420180515068"><ele>5.0</ele><time>2026-04-17T17:12:12.999Z</time></trkpt><trkpt lat="44.85614552020105" lon="11.539212727092073"><ele>5.0</ele><time>2026-04-17T17:12:13.999Z</time></trkpt><trkpt lat="44.85616229135705" lon="11.538997088218112"><ele>5.0</ele><time>2026-04-17T17:12:14.999Z</time></trkpt><trkpt lat="44.85619940844083" lon="11.538778194990108"><ele>5.333333333333334</ele><time>2026-04-17T17:12:15.999Z</time></trkpt><trkpt lat="44.85623298863875" lon="11.538552100415144"><ele>5.666666666666667</ele><time>2026-04-17T17:12:16.999Z</time></trkpt><trkpt lat="44.85626283672387" lon="11.538336375573719"><ele>6.0</ele><time>2026-04-17T17:12:17.999Z</time></trkpt><trkpt lat="44.85629195396626" lon="11.538128164942101"><ele>6.0</ele><time>2026-04-17T17:12:18.999Z</time></trkpt><trkpt lat="44.85631745184293" lon="11.537919646562807"><ele>6.0</ele><time>2026-04-17T17:12:19.999Z</time></trkpt><trkpt lat="44.8563450339689" lon="11.537707129234402"><ele>6.0</ele><time>2026-04-17T17:12:20.999Z</time></trkpt><trkpt lat="44.85637341787557" lon="11.537492486963677"><ele>6.0</ele><time>2026-04-17T17:12:21.999Z</time></trkpt><trkpt lat="44.8564015301716" lon="11.537277103169384"><ele>6.0</ele><time>2026-04-17T17:12:22.999Z</time></trkpt><trkpt lat="44.856429487832706" lon="11.537059913332751"><ele>6.0</ele><time>2026-04-17T17:12:23.999Z</time></trkpt><trkpt lat="44.85647056602026" lon="11.53684408633314"><ele>6.25</ele><time>2026-04-17T17:12:24.999Z</time></trkpt><trkpt lat="44.85649956861875" lon="11.536631345687576"><ele>6.5</ele><time>2026-04-17T17:12:26Z</time></trkpt><trkpt lat="44.85652793849637" lon="11.53642901551111"><ele>6.75</ele><time>2026-04-17T17:12:27Z</time></trkpt><trkpt lat="44.856556246075215" lon="11.536228830483177"><ele>7.0</ele><time>2026-04-17T17:12:28Z</time></trkpt><trkpt lat="44.85658447130916" lon="11.536029227783672"><ele>7.0</ele><time>2026-04-17T17:12:29Z</time></trkpt><trkpt lat="44.85661463016745" lon="11.535832434470999"><ele>7.0</ele><time>2026-04-17T17:12:30Z</time></trkpt><trkpt lat="44.856645188523096" lon="11.535634725778694"><ele>7.0</ele><time>2026-04-17T17:12:31Z</time></trkpt><trkpt lat="44.8566779951186" lon="11.535426303174226"><ele>7.0</ele><time>2026-04-17T17:12:32Z</time></trkpt><trkpt lat="44.856708788493" lon="11.535214257952727"><ele>6.75</ele><time>2026-04-17T17:12:33Z</time></trkpt><trkpt lat="44.856737859289446" lon="11.535001857605756"><ele>6.5</ele><time>2026-04-17T17:12:34Z</time></trkpt><trkpt lat="44.85676203537391" lon="11.534800371414144"><ele>6.25</ele><time>2026-04-17T17:12:35Z</time></trkpt><trkpt lat="44.85678430918775" lon="11.534607425560134"><ele>6.0</ele><time>2026-04-17T17:12:36Z</time></trkpt><trkpt lat="44.85680479045707" lon="11.534415838442515"><ele>6.0</ele><time>2026-04-17T17:12:37Z</time></trkpt><trkpt lat="44.85682519617576" lon="11.534220718424264"><ele>6.0</ele><time>2026-04-17T17:12:38Z</time></trkpt><trkpt lat="44.85684368428326" lon="11.53402270737429"><ele>6.0</ele><time>2026-04-17T17:12:39Z</time></trkpt><trkpt lat="44.856862051021025" lon="11.53381392853244"><ele>6.0</ele><time>2026-04-17T17:12:40Z</time></trkpt><trkpt lat="44.85687919423182" lon="11.533601088973937"><ele>6.0</ele><time>2026-04-17T17:12:41Z</time></trkpt><trkpt lat="44.856895152999435" lon="11.533402954742694"><ele>6.0</ele><time>2026-04-17T17:12:42Z</time></trkpt><trkpt lat="44.85690897554388" lon="11.53321377156551"><ele>6.0</ele><time>2026-04-17T17:12:43Z</time></trkpt><trkpt lat="44.856921336165996" lon="11.533040604767201"><ele>6.0</ele><time>2026-04-17T17:12:44Z</time></trkpt><trkpt lat="44.85693274577063" lon="11.532870983930271"><ele>6.25</ele><time>2026-04-17T17:12:45Z</time></trkpt><trkpt lat="44.856943084253906" lon="11.532696128694262"><ele>6.5</ele><time>2026-04-17T17:12:46Z</time></trkpt><trkpt lat="44.85693902195618" lon="11.53251828439806"><ele>6.75</ele><time>2026-04-17T17:12:47Z</time></trkpt><trkpt lat="44.856950848372044" lon="11.53234005103433"><ele>7.0</ele><time>2026-04-17T17:12:48Z</time></trkpt><trkpt lat="44.85696330652347" lon="11.532158039371815"><ele>6.75</ele><time>2026-04-17T17:12:49Z</time></trkpt><trkpt lat="44.856966333270535" lon="11.531979841650212"><ele>6.5</ele><time>2026-04-17T17:12:50Z</time></trkpt><trkpt lat="44.85697078034426" lon="11.531799890592756"><ele>6.25</ele><time>2026-04-17T17:12:51Z</time></trkpt><trkpt lat="44.856977914796836" lon="11.531621402850957"><ele>6.0</ele><time>2026-04-17T17:12:52Z</time></trkpt><trkpt lat="44.85698621987276" lon="11.53142770721298"><ele>6.0</ele><time>2026-04-17T17:12:53Z</time></trkpt><trkpt lat="44.856989569990155" lon="11.531243230599324"><ele>6.0</ele><time>2026-04-17T17:12:54Z</time></trkpt><trkpt lat="44.856989667378286" lon="11.531060863461354"><ele>6.0</ele><time>2026-04-17T17:12:55Z</time></trkpt><trkpt lat="44.856987632739035" lon="11.530887482518843"><ele>6.0</ele><time>2026-04-17T17:12:56Z</time></trkpt><trkpt lat="44.856985571557026" lon="11.530722220159472"><ele>6.0</ele><time>2026-04-17T17:12:57Z</time></trkpt><trkpt lat="44.85698226486379" lon="11.530545069481747"><ele>6.0</ele><time>2026-04-17T17:12:58Z</time></trkpt><trkpt lat="44.85697785536144" lon="11.53036644156789"><ele>6.0</ele><time>2026-04-17T17:12:59Z</time></trkpt><trkpt lat="44.85697114739723" lon="11.530186962280148"><ele>6.0</ele><time>2026-04-17T17:13:00Z</time></trkpt><trkpt lat="44.85696522024596" lon="11.529996369625648"><ele>6.25</ele><time>2026-04-17T17:13:01Z</time></trkpt><trkpt lat="44.85695614930809" lon="11.529796216033832"><ele>6.5</ele><time>2026-04-17T17:13:02Z</time></trkpt><trkpt lat="44.85694755937823" lon="11.529585076999153"><ele>6.75</ele><time>2026-04-17T17:13:03Z</time></trkpt><trkpt lat="44.856938140556736" lon="11.52936496860519"><ele>7.0</ele><time>2026-04-17T17:13:04Z</time></trkpt><trkpt lat="44.856928675733144" lon="11.529146247362162"><ele>6.5</ele><time>2026-04-17T17:13:05Z</time></trkpt><trkpt lat="44.85692336453648" lon="11.528933234328363"><ele>6.0</ele><time>2026-04-17T17:13:06Z</time></trkpt><trkpt lat="44.85691631359795" lon="11.528723131471123"><ele>5.5</ele><time>2026-04-17T17:13:07Z</time></trkpt><trkpt lat="44.856909325471634" lon="11.52851528143998"><ele>5.0</ele><time>2026-04-17T17:13:08Z</time></trkpt><trkpt lat="44.85690252425113" lon="11.528311527305908"><ele>5.0</ele><time>2026-04-17T17:13:09Z</time></trkpt><trkpt lat="44.85689752253508" lon="11.528114185433706"><ele>5.0</ele><time>2026-04-17T17:13:10Z</time></trkpt><trkpt lat="44.85689128697225" lon="11.527925390099437"><ele>5.0</ele><time>2026-04-17T17:13:11Z</time></trkpt><trkpt lat="44.85688320246881" lon="11.527741822686773"><ele>5.0</ele><time>2026-04-17T17:13:12Z</time></trkpt><trkpt lat="44.8568750162114" lon="11.52756564905424"><ele>5.25</ele><time>2026-04-17T17:13:12.999Z</time></trkpt><trkpt lat="44.85686424935383" lon="11.527396743181098"><ele>5.5</ele><time>2026-04-17T17:13:13.999Z</time></trkpt><trkpt lat="44.856850060761914" lon="11.527228124738668"><ele>5.75</ele><time>2026-04-17T17:13:14.999Z</time></trkpt><trkpt lat="44.85683232617611" lon="11.52706042325955"><ele>6.0</ele><time>2026-04-17T17:13:15.999Z</time></trkpt><trkpt lat="44.85681321049266" lon="11.52689758805689"><ele>6.0</ele><time>2026-04-17T17:13:16.999Z</time></trkpt><trkpt lat="44.856790702248446" lon="11.526741444355874"><ele>6.0</ele><time>2026-04-17T17:13:17.999Z</time></trkpt><trkpt lat="44.856764630937455" lon="11.5265875696204"><ele>6.0</ele><time>2026-04-17T17:13:18.999Z</time></trkpt><trkpt lat="44.85673299685933" lon="11.526442636519167"><ele>6.0</ele><time>2026-04-17T17:13:19.999Z</time></trkpt><trkpt lat="44.85669953800395" lon="11.526303999142055"><ele>6.0</ele><time>2026-04-17T17:13:20.999Z</time></trkpt><trkpt lat="44.85666761335345" lon="11.526163050284564"><ele>6.8</ele><time>2026-04-17T17:13:21.999Z</time></trkpt><trkpt lat="44.856634460933755" lon="11.526019661130006"><ele>7.6</ele><time>2026-04-17T17:13:22.999Z</time></trkpt><trkpt lat="44.85659711946258" lon="11.525875421115005"><ele>8.4</ele><time>2026-04-17T17:13:23.999Z</time></trkpt><trkpt lat="44.85656096365772" lon="11.525727259507244"><ele>9.2</ele><time>2026-04-17T17:13:24.999Z</time></trkpt><trkpt lat="44.85653611811461" lon="11.525571922904604"><ele>10.0</ele><time>2026-04-17T17:13:25.999Z</time></trkpt><trkpt lat="44.856522392181894" lon="11.525414465353006"><ele>9.75</ele><time>2026-04-17T17:13:26.999Z</time></trkpt><trkpt lat="44.856519816007115" lon="11.525254389539247"><ele>9.5</ele><time>2026-04-17T17:13:27.999Z</time></trkpt><trkpt lat="44.85652717126798" lon="11.525091683293878"><ele>9.25</ele><time>2026-04-17T17:13:28.999Z</time></trkpt><trkpt lat="44.85654798234027" lon="11.52493152017774"><ele>9.0</ele><time>2026-04-17T17:13:29.999Z</time></trkpt><trkpt lat="44.856577909885" lon="11.524763061258001"><ele>9.0</ele><time>2026-04-17T17:13:30.999Z</time></trkpt><trkpt lat="44.85661764554198" lon="11.524599991468035"><ele>9.0</ele><time>2026-04-17T17:13:31.999Z</time></trkpt><trkpt lat="44.85667175506135" lon="11.524445040225233"><ele>9.0</ele><time>2026-04-17T17:13:32.999Z</time></trkpt><trkpt lat="44.856726779419176" lon="11.52428341308893"><ele>9.0</ele><time>2026-04-17T17:13:33.999Z</time></trkpt><trkpt lat="44.85680267098973" lon="11.524136754765397"><ele>9.0</ele><time>2026-04-17T17:13:34.999Z</time></trkpt><trkpt lat="44.85688790395527" lon="11.524002244046718"><ele>9.0</ele><time>2026-04-17T17:13:35.999Z</time></trkpt><trkpt lat="44.85697854188882" lon="11.52386884608569"><ele>9.0</ele><time>2026-04-17T17:13:36.999Z</time></trkpt><trkpt lat="44.85706668247255" lon="11.523739643402932"><ele>9.0</ele><time>2026-04-17T17:13:37.999Z</time></trkpt><trkpt lat="44.85715539608084" lon="11.523610599390937"><ele>9.0</ele><time>2026-04-17T17:13:38.999Z</time></trkpt><trkpt lat="44.85723953137129" lon="11.523489987850532"><ele>9.0</ele><time>2026-04-17T17:13:39.999Z</time></trkpt><trkpt lat="44.857318429281925" lon="11.523371853312968"><ele>9.0</ele><time>2026-04-17T17:13:40.999Z</time></trkpt><trkpt lat="44.85739430458195" lon="11.523263387940666"><ele>9.0</ele><time>2026-04-17T17:13:41.999Z</time></trkpt><trkpt lat="44.8574756130626" lon="11.523149148870445"><ele>9.0</ele><time>2026-04-17T17:13:42.999Z</time></trkpt><trkpt lat="44.85755373096795" lon="11.523033363676477"><ele>9.0</ele><time>2026-04-17T17:13:43.999Z</time></trkpt><trkpt lat="44.857631544852154" lon="11.522913553721812"><ele>9.0</ele><time>2026-04-17T17:13:44.999Z</time></trkpt><trkpt lat="44.857704823974856" lon="11.522788780102722"><ele>9.0</ele><time>2026-04-17T17:13:45.999Z</time></trkpt><trkpt lat="44.85777313406986" lon="11.522657419128757"><ele>8.75</ele><time>2026-04-17T17:13:46.999Z</time></trkpt><trkpt lat="44.8578364259636" lon="11.522519470739345"><ele>8.5</ele><time>2026-04-17T17:13:47.999Z</time></trkpt><trkpt lat="44.857890800970004" lon="11.522373286922262"><ele>8.25</ele><time>2026-04-17T17:13:48.999Z</time></trkpt><trkpt lat="44.85792978698372" lon="11.522216625691996"><ele>8.0</ele><time>2026-04-17T17:13:49.999Z</time></trkpt><trkpt lat="44.857953583427644" lon="11.522048079729679"><ele>7.75</ele><time>2026-04-17T17:13:50.999Z</time></trkpt><trkpt lat="44.85796559624845" lon="11.521874063570772"><ele>7.5</ele><time>2026-04-17T17:13:51.999Z</time></trkpt><trkpt lat="44.85797469571783" lon="11.521700135818362"><ele>7.25</ele><time>2026-04-17T17:13:52.999Z</time></trkpt><trkpt lat="44.857982075881964" lon="11.521522559745405"><ele>7.0</ele><time>2026-04-17T17:13:53.999Z</time></trkpt><trkpt lat="44.85798420045011" lon="11.521336794184752"><ele>7.25</ele><time>2026-04-17T17:13:54.999Z</time></trkpt><trkpt lat="44.85798706571146" lon="11.521153435153275"><ele>7.5</ele><time>2026-04-17T17:13:55.999Z</time></trkpt><trkpt lat="44.85799231846609" lon="11.520958305322258"><ele>7.75</ele><time>2026-04-17T17:13:56.999Z</time></trkpt><trkpt lat="44.85799916208073" lon="11.520779098093314"><ele>8.0</ele><time>2026-04-17T17:13:57.999Z</time></trkpt><trkpt lat="44.858003062518605" lon="11.520606440546315"><ele>8.0</ele><time>2026-04-17T17:13:58.999Z</time></trkpt><trkpt lat="44.85800874613638" lon="11.520431904070707"><ele>8.0</ele><time>2026-04-17T17:13:59.999Z</time></trkpt><trkpt lat="44.85801740434199" lon="11.520256858401794"><ele>8.0</ele><time>2026-04-17T17:14:00.999Z</time></trkpt><trkpt lat="44.85802844228683" lon="11.520080589696482"><ele>8.0</ele><time>2026-04-17T17:14:01.999Z</time></trkpt><trkpt lat="44.85804146246922" lon="11.519900705905616"><ele>8.25</ele><time>2026-04-17T17:14:02.999Z</time></trkpt><trkpt lat="44.8580583986616" lon="11.519718780404066"><ele>8.5</ele><time>2026-04-17T17:14:03.999Z</time></trkpt><trkpt lat="44.85807171823931" lon="11.519533435630084"><ele>8.75</ele><time>2026-04-17T17:14:04.999Z</time></trkpt><trkpt lat="44.85808526703875" lon="11.519345314993794"><ele>9.0</ele><time>2026-04-17T17:14:05.999Z</time></trkpt><trkpt lat="44.858099774207446" lon="11.519160578814896"><ele>9.0</ele><time>2026-04-17T17:14:06.999Z</time></trkpt><trkpt lat="44.8581160677663" lon="11.5189808947355"><ele>9.0</ele><time>2026-04-17T17:14:07.999Z</time></trkpt><trkpt lat="44.858131162558415" lon="11.518794838718389"><ele>9.0</ele><time>2026-04-17T17:14:08.999Z</time></trkpt><trkpt lat="44.858145228738806" lon="11.5186132767675"><ele>9.0</ele><time>2026-04-17T17:14:09.999Z</time></trkpt><trkpt lat="44.85815991458141" lon="11.51843640840027"><ele>9.0</ele><time>2026-04-17T17:14:10.999Z</time></trkpt><trkpt lat="44.85817558961931" lon="11.518259312887142"><ele>9.0</ele><time>2026-04-17T17:14:11.999Z</time></trkpt><trkpt lat="44.85819423824017" lon="11.518084075418873"><ele>9.0</ele><time>2026-04-17T17:14:12.999Z</time></trkpt><trkpt lat="44.85821144313588" lon="11.517911275477996"><ele>9.0</ele><time>2026-04-17T17:14:13.999Z</time></trkpt><trkpt lat="44.85823090797516" lon="11.517735869992807"><ele>9.0</ele><time>2026-04-17T17:14:14.999Z</time></trkpt><trkpt lat="44.858252165519566" lon="11.517554156167144"><ele>9.0</ele><time>2026-04-17T17:14:15.999Z</time></trkpt><trkpt lat="44.85827804655987" lon="11.517368836170398"><ele>9.0</ele><time>2026-04-17T17:14:16.999Z</time></trkpt><trkpt lat="44.858312555800524" lon="11.517176468867802"><ele>9.0</ele><time>2026-04-17T17:14:17.999Z</time></trkpt><trkpt lat="44.85835541781884" lon="11.516984874077268"><ele>9.25</ele><time>2026-04-17T17:14:18.999Z</time></trkpt><trkpt lat="44.85839845970896" lon="11.51681486391672"><ele>9.5</ele><time>2026-04-17T17:14:19.999Z</time></trkpt><trkpt lat="44.858441971569114" lon="11.516652512407632"><ele>9.75</ele><time>2026-04-17T17:14:20.999Z</time></trkpt><trkpt lat="44.8584811715798" lon="11.516488683363956"><ele>10.0</ele><time>2026-04-17T17:14:21.999Z</time></trkpt><trkpt lat="44.85852054670051" lon="11.51633650051693"><ele>9.6</ele><time>2026-04-17T17:14:22.999Z</time></trkpt><trkpt lat="44.858556545883566" lon="11.516186838283783"><ele>9.2</ele><time>2026-04-17T17:14:23.999Z</time></trkpt><trkpt lat="44.85858958571061" lon="11.516047317770422"><ele>8.8</ele><time>2026-04-17T17:14:24.999Z</time></trkpt><trkpt lat="44.85861649750593" lon="11.51592243053313"><ele>8.4</ele><time>2026-04-17T17:14:25.999Z</time></trkpt><trkpt lat="44.858646136064046" lon="11.515802379571324"><ele>8.0</ele><time>2026-04-17T17:14:26.999Z</time></trkpt><trkpt lat="44.85867776045009" lon="11.515675147632976"><ele>7.999999999999999</ele><time>2026-04-17T17:14:27.999Z</time></trkpt><trkpt lat="44.858706603916616" lon="11.515551925995037"><ele>8.0</ele><time>2026-04-17T17:14:28.999Z</time></trkpt><trkpt lat="44.85873592644716" lon="11.515440238051648"><ele>8.0</ele><time>2026-04-17T17:14:29.999Z</time></trkpt><trkpt lat="44.85876611469655" lon="11.515334718316705"><ele>8.0</ele><time>2026-04-17T17:14:30.999Z</time></trkpt><trkpt lat="44.858798216708706" lon="11.515226989988097"><ele>7.999999999999999</ele><time>2026-04-17T17:14:32Z</time></trkpt><trkpt lat="44.858835343139404" lon="11.51511156696953"><ele>8.0</ele><time>2026-04-17T17:14:33Z</time></trkpt><trkpt lat="44.85884696414371" lon="11.51497391481602"><ele>8.0</ele><time>2026-04-17T17:14:34Z</time></trkpt><trkpt lat="44.85888928010577" lon="11.514848444244503"><ele>8.0</ele><time>2026-04-17T17:14:35Z</time></trkpt><trkpt lat="44.85896510849582" lon="11.514742447831045"><ele>8.0</ele><time>2026-04-17T17:14:36Z</time></trkpt><trkpt lat="44.85901793518019" lon="11.514617115002874"><ele>8.0</ele><time>2026-04-17T17:14:37Z</time></trkpt><trkpt lat="44.85907192155754" lon="11.514493182826516"><ele>8.0</ele><time>2026-04-17T17:14:38Z</time></trkpt><trkpt lat="44.85912514598014" lon="11.514380779863412"><ele>8.0</ele><time>2026-04-17T17:14:39Z</time></trkpt><trkpt lat="44.85918068101721" lon="11.514272243885475"><ele>8.0</ele><time>2026-04-17T17:14:40Z</time></trkpt><trkpt lat="44.859237710758485" lon="11.514161477561867"><ele>8.0</ele><time>2026-04-17T17:14:41Z</time></trkpt><trkpt lat="44.85929844449884" lon="11.514052548650188"><ele>8.0</ele><time>2026-04-17T17:14:42Z</time></trkpt><trkpt lat="44.85936282733867" lon="11.513948089947826"><ele>8.0</ele><time>2026-04-17T17:14:43Z</time></trkpt><trkpt lat="44.8594292813431" lon="11.51384349857659"><ele>8.4</ele><time>2026-04-17T17:14:44Z</time></trkpt><trkpt lat="44.85949616213438" lon="11.51373823203862"><ele>8.8</ele><time>2026-04-17T17:14:45Z</time></trkpt><trkpt lat="44.859565066949955" lon="11.513632541538355"><ele>9.2</ele><time>2026-04-17T17:14:46Z</time></trkpt><trkpt lat="44.859635123382255" lon="11.513527752941394"><ele>9.6</ele><time>2026-04-17T17:14:47Z</time></trkpt><trkpt lat="44.8597051031806" lon="11.513423340002205"><ele>10.0</ele><time>2026-04-17T17:14:48Z</time></trkpt><trkpt lat="44.85977709997889" lon="11.513320970399562"><ele>10.0</ele><time>2026-04-17T17:14:49Z</time></trkpt><trkpt lat="44.859851269864066" lon="11.513221218691871"><ele>10.0</ele><time>2026-04-17T17:14:50Z</time></trkpt><trkpt lat="44.85992781679285" lon="11.513127439752253"><ele>10.0</ele><time>2026-04-17T17:14:51Z</time></trkpt><trkpt lat="44.8600080378402" lon="11.513028947522397"><ele>10.0</ele><time>2026-04-17T17:14:52Z</time></trkpt><trkpt lat="44.860089275062386" lon="11.512933019746837"><ele>10.0</ele><time>2026-04-17T17:14:53Z</time></trkpt><trkpt lat="44.86017602537338" lon="11.512836325494193"><ele>9.75</ele><time>2026-04-17T17:14:54Z</time></trkpt><trkpt lat="44.860267392959486" lon="11.512738383397998"><ele>9.5</ele><time>2026-04-17T17:14:55Z</time></trkpt><trkpt lat="44.86036461331086" lon="11.512645167668882"><ele>9.25</ele><time>2026-04-17T17:14:56Z</time></trkpt><trkpt lat="44.860470870517936" lon="11.512558858424054"><ele>9.0</ele><time>2026-04-17T17:14:57Z</time></trkpt><trkpt lat="44.860580142313815" lon="11.512481800687135"><ele>9.0</ele><time>2026-04-17T17:14:58Z</time></trkpt><trkpt lat="44.860684382571584" lon="11.512408447104606"><ele>9.0</ele><time>2026-04-17T17:14:59Z</time></trkpt><trkpt lat="44.86078209517551" lon="11.512335987965164"><ele>9.0</ele><time>2026-04-17T17:15:00Z</time></trkpt><trkpt lat="44.86087765221025" lon="11.512269576766089"><ele>9.0</ele><time>2026-04-17T17:15:01Z</time></trkpt><trkpt lat="44.86096999931928" lon="11.512207433789275"><ele>9.0</ele><time>2026-04-17T17:15:02Z</time></trkpt><trkpt lat="44.86106002412861" lon="11.51214385879423"><ele>9.2</ele><time>2026-04-17T17:15:03Z</time></trkpt><trkpt lat="44.861150253591106" lon="11.512081999785538"><ele>9.4</ele><time>2026-04-17T17:15:04Z</time></trkpt><trkpt lat="44.8612380229878" lon="11.51202851083339"><ele>9.6</ele><time>2026-04-17T17:15:05Z</time></trkpt><trkpt lat="44.86131823406598" lon="11.511982311548692"><ele>9.8</ele><time>2026-04-17T17:15:06Z</time></trkpt><trkpt lat="44.86140064991386" lon="11.51193784885071"><ele>10.0</ele><time>2026-04-17T17:15:07Z</time></trkpt><trkpt lat="44.86148424216681" lon="11.511896419698752"><ele>10.333333333333334</ele><time>2026-04-17T17:15:08Z</time></trkpt><trkpt lat="44.86156637822588" lon="11.511853420959248"><ele>10.666666666666668</ele><time>2026-04-17T17:15:09Z</time></trkpt><trkpt lat="44.861642812391466" lon="11.5118142771036"><ele>11.0</ele><time>2026-04-17T17:15:10Z</time></trkpt><trkpt lat="44.861720275566746" lon="11.511776680696848"><ele>11.333333333333334</ele><time>2026-04-17T17:15:11Z</time></trkpt><trkpt lat="44.861791184423524" lon="11.511743174977411"><ele>11.666666666666666</ele><time>2026-04-17T17:15:12Z</time></trkpt><trkpt lat="44.861857571281995" lon="11.511717108570368"><ele>12.0</ele><time>2026-04-17T17:15:13Z</time></trkpt><trkpt lat="44.861919427469026" lon="11.511686897872526"><ele>12.0</ele><time>2026-04-17T17:15:14Z</time></trkpt><trkpt lat="44.861980471864996" lon="11.51166016840864"><ele>12.0</ele><time>2026-04-17T17:15:15Z</time></trkpt><trkpt lat="44.8620405798186" lon="11.511633078145522"><ele>12.0</ele><time>2026-04-17T17:15:16Z</time></trkpt><trkpt lat="44.862110103288465" lon="11.511603704364024"><ele>12.0</ele><time>2026-04-17T17:15:17Z</time></trkpt><trkpt lat="44.86217646607326" lon="11.511575455610872"><ele>12.0</ele><time>2026-04-17T17:15:18Z</time></trkpt><trkpt lat="44.86229501736589" lon="11.511530459563419"><ele>12.0</ele><time>2026-04-17T17:15:20Z</time></trkpt><trkpt lat="44.86235577712502" lon="11.511505494383886"><ele>12.0</ele><time>2026-04-17T17:15:21Z</time></trkpt><trkpt lat="44.86242421101332" lon="11.511474410017472"><ele>12.0</ele><time>2026-04-17T17:15:22Z</time></trkpt><trkpt lat="44.86250207764907" lon="11.511441515305016"><ele>12.0</ele><time>2026-04-17T17:15:23Z</time></trkpt><trkpt lat="44.86258806488493" lon="11.51140423541326"><ele>12.0</ele><time>2026-04-17T17:15:24Z</time></trkpt><trkpt lat="44.86267707264713" lon="11.51136108606204"><ele>12.0</ele><time>2026-04-17T17:15:25Z</time></trkpt><trkpt lat="44.862760001080794" lon="11.51132200981415"><ele>12.0</ele><time>2026-04-17T17:15:25.999Z</time></trkpt><trkpt lat="44.86283953370229" lon="11.511284761585756"><ele>12.0</ele><time>2026-04-17T17:15:26.999Z</time></trkpt><trkpt lat="44.86291713134827" lon="11.511254483082109"><ele>12.0</ele><time>2026-04-17T17:15:27.999Z</time></trkpt><trkpt lat="44.86299151840373" lon="11.51122371849415"><ele>12.0</ele><time>2026-04-17T17:15:28.999Z</time></trkpt><trkpt lat="44.86306063151336" lon="11.511188393016136"><ele>12.0</ele><time>2026-04-17T17:15:29.999Z</time></trkpt><trkpt lat="44.86312545072445" lon="11.51115143398488"><ele>12.0</ele><time>2026-04-17T17:15:30.999Z</time></trkpt><trkpt lat="44.863189144732786" lon="11.511115185498733"><ele>12.0</ele><time>2026-04-17T17:15:31.999Z</time></trkpt><trkpt lat="44.86330783865937" lon="11.511051128642045"><ele>12.0</ele><time>2026-04-17T17:15:33.999Z</time></trkpt><trkpt lat="44.863371218838" lon="11.511015431583521"><ele>12.0</ele><time>2026-04-17T17:15:34.999Z</time></trkpt><trkpt lat="44.86344207777698" lon="11.510970613925105"><ele>12.0</ele><time>2026-04-17T17:15:35.999Z</time></trkpt><trkpt lat="44.86351733060318" lon="11.510926668275545"><ele>12.0</ele><time>2026-04-17T17:15:36.999Z</time></trkpt><trkpt lat="44.86359290177523" lon="11.510883508712334"><ele>12.0</ele><time>2026-04-17T17:15:37.999Z</time></trkpt><trkpt lat="44.86367793016869" lon="11.51083394481042"><ele>12.0</ele><time>2026-04-17T17:15:38.999Z</time></trkpt><trkpt lat="44.86376890892762" lon="11.510785269263245"><ele>11.8</ele><time>2026-04-17T17:15:39.999Z</time></trkpt><trkpt lat="44.863856373493185" lon="11.510729536944398"><ele>11.6</ele><time>2026-04-17T17:15:40.999Z</time></trkpt><trkpt lat="44.86394623410189" lon="11.51067079224826"><ele>11.4</ele><time>2026-04-17T17:15:41.999Z</time></trkpt><trkpt lat="44.864035882944194" lon="11.510607044312227"><ele>11.200000000000001</ele><time>2026-04-17T17:15:42.999Z</time></trkpt><trkpt lat="44.864108722894215" lon="11.510560617619369"><ele>11.0</ele><time>2026-04-17T17:15:43.999Z</time></trkpt><trkpt lat="44.864185142285606" lon="11.510509219084234"><ele>11.0</ele><time>2026-04-17T17:15:44.999Z</time></trkpt><trkpt lat="44.86426850650589" lon="11.510478596362791"><ele>11.0</ele><time>2026-04-17T17:15:45.999Z</time></trkpt><trkpt lat="44.86434354797945" lon="11.510407910814864"><ele>11.0</ele><time>2026-04-17T17:15:46.999Z</time></trkpt><trkpt lat="44.86443266435886" lon="11.510358822592803"><ele>11.0</ele><time>2026-04-17T17:15:47.999Z</time></trkpt><trkpt lat="44.86451714615233" lon="11.510310052668906"><ele>11.0</ele><time>2026-04-17T17:15:48.999Z</time></trkpt><trkpt lat="44.86459366848653" lon="11.51025991327935"><ele>11.0</ele><time>2026-04-17T17:15:49.999Z</time></trkpt><trkpt lat="44.864670204665" lon="11.510206696715017"><ele>11.4</ele><time>2026-04-17T17:15:50.999Z</time></trkpt><trkpt lat="44.864755927356505" lon="11.510158692823415"><ele>11.8</ele><time>2026-04-17T17:15:51.999Z</time></trkpt><trkpt lat="44.86484236824263" lon="11.510103475407215"><ele>12.200000000000001</ele><time>2026-04-17T17:15:52.999Z</time></trkpt><trkpt lat="44.86493270867491" lon="11.510049009629675"><ele>12.600000000000001</ele><time>2026-04-17T17:15:53.999Z</time></trkpt><trkpt lat="44.86502438691803" lon="11.509993956022262"><ele>13.0</ele><time>2026-04-17T17:15:54.999Z</time></trkpt><trkpt lat="44.86510964068516" lon="11.509933011072013"><ele>12.600000000000001</ele><time>2026-04-17T17:15:55.999Z</time></trkpt><trkpt lat="44.86520112497495" lon="11.50987506438585"><ele>12.200000000000001</ele><time>2026-04-17T17:15:56.999Z</time></trkpt><trkpt lat="44.86530078369479" lon="11.509814460078713"><ele>11.8</ele><time>2026-04-17T17:15:57.999Z</time></trkpt><trkpt lat="44.865399663509606" lon="11.509746802436851"><ele>11.4</ele><time>2026-04-17T17:15:58.999Z</time></trkpt><trkpt lat="44.86550342725517" lon="11.509686244374942"><ele>11.0</ele><time>2026-04-17T17:15:59.999Z</time></trkpt><trkpt lat="44.86560978208515" lon="11.509624284728867"><ele>11.0</ele><time>2026-04-17T17:16:00.999Z</time></trkpt><trkpt lat="44.865714093465044" lon="11.509553773370818"><ele>11.0</ele><time>2026-04-17T17:16:01.999Z</time></trkpt><trkpt lat="44.8658234584494" lon="11.509478439873137"><ele>11.0</ele><time>2026-04-17T17:16:02.999Z</time></trkpt><trkpt lat="44.865948900684124" lon="11.509390910021994"><ele>11.0</ele><time>2026-04-17T17:16:03.999Z</time></trkpt><trkpt lat="44.866085911742864" lon="11.509298781246887"><ele>11.0</ele><time>2026-04-17T17:16:04.999Z</time></trkpt><trkpt lat="44.86621336553174" lon="11.509210728799996"><ele>11.0</ele><time>2026-04-17T17:16:05.999Z</time></trkpt><trkpt lat="44.866359326524254" lon="11.509123796922362"><ele>11.0</ele><time>2026-04-17T17:16:06.999Z</time></trkpt><trkpt lat="44.86650463115814" lon="11.509032775074855"><ele>11.0</ele><time>2026-04-17T17:16:07.999Z</time></trkpt><trkpt lat="44.86665168533306" lon="11.508927839037403"><ele>11.0</ele><time>2026-04-17T17:16:08.999Z</time></trkpt><trkpt lat="44.866797843896556" lon="11.508836122516763"><ele>11.0</ele><time>2026-04-17T17:16:09.999Z</time></trkpt><trkpt lat="44.866950207118286" lon="11.508727369987916"><ele>10.75</ele><time>2026-04-17T17:16:10.999Z</time></trkpt><trkpt lat="44.8670785779924" lon="11.508652181775943"><ele>10.5</ele><time>2026-04-17T17:16:11.999Z</time></trkpt><trkpt lat="44.867212204114985" lon="11.50856588829007"><ele>10.25</ele><time>2026-04-17T17:16:12.999Z</time></trkpt><trkpt lat="44.86733841135717" lon="11.508474905210313"><ele>10.0</ele><time>2026-04-17T17:16:13.999Z</time></trkpt><trkpt lat="44.86746723014954" lon="11.50838482772553"><ele>10.0</ele><time>2026-04-17T17:16:14.999Z</time></trkpt><trkpt lat="44.86759368410269" lon="11.508309337296655"><ele>10.0</ele><time>2026-04-17T17:16:15.999Z</time></trkpt><trkpt lat="44.867716367613866" lon="11.50823227409232"><ele>10.0</ele><time>2026-04-17T17:16:16.999Z</time></trkpt><trkpt lat="44.867851648021414" lon="11.508139065004427"><ele>10.0</ele><time>2026-04-17T17:16:17.999Z</time></trkpt><trkpt lat="44.86798581409001" lon="11.508043857005399"><ele>10.0</ele><time>2026-04-17T17:16:18.999Z</time></trkpt><trkpt lat="44.86812605692157" lon="11.507969398901706"><ele>10.0</ele><time>2026-04-17T17:16:19.999Z</time></trkpt><trkpt lat="44.86825170157246" lon="11.507883630977927"><ele>10.0</ele><time>2026-04-17T17:16:20.999Z</time></trkpt><trkpt lat="44.8683702554572" lon="11.50780044218258"><ele>10.0</ele><time>2026-04-17T17:16:21.999Z</time></trkpt><trkpt lat="44.868471076609744" lon="11.50773819884158"><ele>10.25</ele><time>2026-04-17T17:16:22.999Z</time></trkpt><trkpt lat="44.86857548221831" lon="11.507673583560491"><ele>10.5</ele><time>2026-04-17T17:16:23.999Z</time></trkpt><trkpt lat="44.86869942389712" lon="11.507586687296051"><ele>10.75</ele><time>2026-04-17T17:16:24.999Z</time></trkpt><trkpt lat="44.86881799199851" lon="11.50750727456085"><ele>11.0</ele><time>2026-04-17T17:16:25.999Z</time></trkpt><trkpt lat="44.86893433698372" lon="11.507429693912007"><ele>11.0</ele><time>2026-04-17T17:16:26.999Z</time></trkpt><trkpt lat="44.86905065147041" lon="11.507356641802849"><ele>11.0</ele><time>2026-04-17T17:16:27.999Z</time></trkpt><trkpt lat="44.869164131453076" lon="11.507283545836597"><ele>11.0</ele><time>2026-04-17T17:16:28.999Z</time></trkpt><trkpt lat="44.869274160062936" lon="11.50721428616211"><ele>11.0</ele><time>2026-04-17T17:16:29.999Z</time></trkpt><trkpt lat="44.86938398302519" lon="11.507150167895023"><ele>10.75</ele><time>2026-04-17T17:16:30.999Z</time></trkpt><trkpt lat="44.86949864884997" lon="11.507087559707072"><ele>10.5</ele><time>2026-04-17T17:16:31.999Z</time></trkpt><trkpt lat="44.869615777019995" lon="11.507026374453522"><ele>10.25</ele><time>2026-04-17T17:16:32.999Z</time></trkpt><trkpt lat="44.86973140276842" lon="11.506965277639688"><ele>10.0</ele><time>2026-04-17T17:16:33.999Z</time></trkpt><trkpt lat="44.86984619199916" lon="11.50689908446323"><ele>10.0</ele><time>2026-04-17T17:16:34.999Z</time></trkpt><trkpt lat="44.86996655255075" lon="11.506825221146897"><ele>10.0</ele><time>2026-04-17T17:16:35.999Z</time></trkpt><trkpt lat="44.87009261084658" lon="11.50673872736861"><ele>10.0</ele><time>2026-04-17T17:16:36.999Z</time></trkpt><trkpt lat="44.87021709037853" lon="11.506640724927912"><ele>10.0</ele><time>2026-04-17T17:16:38Z</time></trkpt><trkpt lat="44.87033496932039" lon="11.506531716198737"><ele>10.0</ele><time>2026-04-17T17:16:39Z</time></trkpt><trkpt lat="44.87045282877608" lon="11.506417676855436"><ele>10.0</ele><time>2026-04-17T17:16:40Z</time></trkpt><trkpt lat="44.87056368004066" lon="11.506295365348173"><ele>10.0</ele><time>2026-04-17T17:16:41Z</time></trkpt><trkpt lat="44.87066338260156" lon="11.50616827310563"><ele>10.0</ele><time>2026-04-17T17:16:42Z</time></trkpt><trkpt lat="44.87075239590586" lon="11.506032620353624"><ele>10.0</ele><time>2026-04-17T17:16:43Z</time></trkpt><trkpt lat="44.870843090497075" lon="11.505898977446561"><ele>10.0</ele><time>2026-04-17T17:16:44Z</time></trkpt><trkpt lat="44.87093033311433" lon="11.50577172859078"><ele>10.0</ele><time>2026-04-17T17:16:45Z</time></trkpt><trkpt lat="44.87101172855815" lon="11.505634907935878"><ele>10.0</ele><time>2026-04-17T17:16:46Z</time></trkpt><trkpt lat="44.87109397664621" lon="11.505508158073251"><ele>9.8</ele><time>2026-04-17T17:16:47Z</time></trkpt><trkpt lat="44.8711702533788" lon="11.505381262313923"><ele>9.6</ele><time>2026-04-17T17:16:48Z</time></trkpt><trkpt lat="44.87123508324708" lon="11.505261386948163"><ele>9.4</ele><time>2026-04-17T17:16:49Z</time></trkpt><trkpt lat="44.871296703110836" lon="11.505164193862665"><ele>9.2</ele><time>2026-04-17T17:16:50Z</time></trkpt><trkpt lat="44.87134608255077" lon="11.505086432007431"><ele>9.0</ele><time>2026-04-17T17:16:51Z</time></trkpt><trkpt lat="44.87140491031202" lon="11.505015489774566"><ele>9.0</ele><time>2026-04-17T17:16:52Z</time></trkpt><trkpt lat="44.87147802726798" lon="11.50499034613549"><ele>9.0</ele><time>2026-04-17T17:16:53Z</time></trkpt><trkpt lat="44.871549447960305" lon="11.505046326214966"><ele>9.0</ele><time>2026-04-17T17:16:54Z</time></trkpt><trkpt lat="44.87163808627105" lon="11.505047132991509"><ele>9.0</ele><time>2026-04-17T17:16:55Z</time></trkpt><trkpt lat="44.87174031777948" lon="11.505072893744297"><ele>9.0</ele><time>2026-04-17T17:16:56Z</time></trkpt><trkpt lat="44.87184599451656" lon="11.505115252967009"><ele>8.6</ele><time>2026-04-17T17:16:57Z</time></trkpt><trkpt lat="44.87195543636855" lon="11.505141960708224"><ele>8.2</ele><time>2026-04-17T17:16:58Z</time></trkpt><trkpt lat="44.87205931293115" lon="11.50516731032552"><ele>7.799999999999999</ele><time>2026-04-17T17:16:59Z</time></trkpt><trkpt lat="44.872163766157705" lon="11.505192800694903"><ele>7.3999999999999995</ele><time>2026-04-17T17:17:00Z</time></trkpt><trkpt lat="44.87226376822776" lon="11.505217090579814"><ele>7.0</ele><time>2026-04-17T17:17:01Z</time></trkpt><trkpt lat="44.87236419037865" lon="11.505241108828386"><ele>7.0</ele><time>2026-04-17T17:17:02Z</time></trkpt><trkpt lat="44.872487075412266" lon="11.505270499588864"><ele>7.0</ele><time>2026-04-17T17:17:03Z</time></trkpt><trkpt lat="44.87261061149055" lon="11.505300045999332"><ele>7.0</ele><time>2026-04-17T17:17:04Z</time></trkpt><trkpt lat="44.87274829694671" lon="11.50533297660465"><ele>7.0</ele><time>2026-04-17T17:17:05Z</time></trkpt><trkpt lat="44.87286176210778" lon="11.505360114421315"><ele>7.0</ele><time>2026-04-17T17:17:06Z</time></trkpt><trkpt lat="44.87298014074825" lon="11.505388599062142"><ele>7.0</ele><time>2026-04-17T17:17:07Z</time></trkpt><trkpt lat="44.87309902501288" lon="11.50541731426077"><ele>7.0</ele><time>2026-04-17T17:17:08Z</time></trkpt><trkpt lat="44.87321268922663" lon="11.505444768643446"><ele>7.0</ele><time>2026-04-17T17:17:09Z</time></trkpt><trkpt lat="44.873348243140974" lon="11.505477510261985"><ele>6.6</ele><time>2026-04-17T17:17:10Z</time></trkpt><trkpt lat="44.873463678586646" lon="11.505505392447823"><ele>6.199999999999999</ele><time>2026-04-17T17:17:11Z</time></trkpt><trkpt lat="44.87355765232758" lon="11.505528090825907"><ele>5.8</ele><time>2026-04-17T17:17:12Z</time></trkpt><trkpt lat="44.87364384753257" lon="11.505548925441506"><ele>5.4</ele><time>2026-04-17T17:17:13Z</time></trkpt><trkpt lat="44.873727277155496" lon="11.505569438415622"><ele>5.0</ele><time>2026-04-17T17:17:14Z</time></trkpt><trkpt lat="44.87382285014649" lon="11.505592997264447"><ele>5.0</ele><time>2026-04-17T17:17:15Z</time></trkpt><trkpt lat="44.87391477735231" lon="11.505615890185387"><ele>5.0</ele><time>2026-04-17T17:17:16Z</time></trkpt><trkpt lat="44.87400607199121" lon="11.505614907270687"><ele>5.0</ele><time>2026-04-17T17:17:17Z</time></trkpt><trkpt lat="44.87408615092605" lon="11.505638726149748"><ele>5.0</ele><time>2026-04-17T17:17:18Z</time></trkpt><trkpt lat="44.874192161888445" lon="11.505663612590865"><ele>5.0</ele><time>2026-04-17T17:17:19Z</time></trkpt><trkpt lat="44.874338035064284" lon="11.505698476288071"><ele>5.333333333333334</ele><time>2026-04-17T17:17:20Z</time></trkpt><trkpt lat="44.87452502023047" lon="11.505743032686263"><ele>5.666666666666667</ele><time>2026-04-17T17:17:21Z</time></trkpt><trkpt lat="44.8747443605383" lon="11.505800875899375"><ele>6.0</ele><time>2026-04-17T17:17:22Z</time></trkpt><trkpt lat="44.87501964664911" lon="11.505868089511104"><ele>5.5</ele><time>2026-04-17T17:17:23Z</time></trkpt><trkpt lat="44.87533659129195" lon="11.505943750196582"><ele>5.0</ele><time>2026-04-17T17:17:24Z</time></trkpt><trkpt lat="44.8756660901381" lon="11.5060257490362"><ele>5.5</ele><time>2026-04-17T17:17:25Z</time></trkpt><trkpt lat="44.87601610096631" lon="11.50610969127684"><ele>6.0</ele><time>2026-04-17T17:17:26Z</time></trkpt><trkpt lat="44.87637790735171" lon="11.50619604920128"><ele>6.0</ele><time>2026-04-17T17:17:27Z</time></trkpt><trkpt lat="44.876740382188125" lon="11.506289792342947"><ele>6.0</ele><time>2026-04-17T17:17:28Z</time></trkpt><trkpt lat="44.87711501040849" lon="11.506377287498534"><ele>6.0</ele><time>2026-04-17T17:17:29Z</time></trkpt><trkpt lat="44.87750629051488" lon="11.506471298554047"><ele>6.0</ele><time>2026-04-17T17:17:30Z</time></trkpt><trkpt lat="44.877896391682604" lon="11.50656477260109"><ele>6.5</ele><time>2026-04-17T17:17:31Z</time></trkpt><trkpt lat="44.87824223458211" lon="11.506647581391686"><ele>7.0</ele><time>2026-04-17T17:17:32Z</time></trkpt><trkpt lat="44.87856999267578" lon="11.506721156647616"><ele>7.0</ele><time>2026-04-17T17:17:33Z</time></trkpt><trkpt lat="44.87887165558255" lon="11.50679384466104"><ele>7.0</ele><time>2026-04-17T17:17:34Z</time></trkpt><trkpt lat="44.87914353220967" lon="11.506857201980962"><ele>7.5</ele><time>2026-04-17T17:17:35Z</time></trkpt><trkpt lat="44.87939481757842" lon="11.506919695533632"><ele>8.0</ele><time>2026-04-17T17:17:36Z</time></trkpt><trkpt lat="44.87962263631189" lon="11.506977552586125"><ele>8.0</ele><time>2026-04-17T17:17:37Z</time></trkpt><trkpt lat="44.87983878452248" lon="11.507027781660263"><ele>8.0</ele><time>2026-04-17T17:17:37.999Z</time></trkpt><trkpt lat="44.88003345127731" lon="11.507074770255059"><ele>8.0</ele><time>2026-04-17T17:17:38.999Z</time></trkpt><trkpt lat="44.88022076996202" lon="11.507126147774933"><ele>7.0</ele><time>2026-04-17T17:17:39.999Z</time></trkpt><trkpt lat="44.8804096221777" lon="11.507168434870083"><ele>6.0</ele><time>2026-04-17T17:17:40.999Z</time></trkpt><trkpt lat="44.880585499331005" lon="11.507212469815565"><ele>5.0</ele><time>2026-04-17T17:17:41.999Z</time></trkpt><trkpt lat="44.88075930991057" lon="11.507254681589504"><ele>5.0</ele><time>2026-04-17T17:17:42.999Z</time></trkpt><trkpt lat="44.88092965036752" lon="11.507295942679791"><ele>5.0</ele><time>2026-04-17T17:17:43.999Z</time></trkpt><trkpt lat="44.881098889058784" lon="11.507336053189572"><ele>5.0</ele><time>2026-04-17T17:17:44.999Z</time></trkpt><trkpt lat="44.88126469383846" lon="11.507376068973437"><ele>5.0</ele><time>2026-04-17T17:17:45.999Z</time></trkpt><trkpt lat="44.88141631058533" lon="11.50741287662307"><ele>5.0</ele><time>2026-04-17T17:17:46.999Z</time></trkpt><trkpt lat="44.881557599151144" lon="11.507445181840048"><ele>5.0</ele><time>2026-04-17T17:17:47.999Z</time></trkpt><trkpt lat="44.88168919387693" lon="11.507476104022913"><ele>5.0</ele><time>2026-04-17T17:17:48.999Z</time></trkpt><trkpt lat="44.88181633238597" lon="11.50751105583068"><ele>5.0</ele><time>2026-04-17T17:17:49.999Z</time></trkpt><trkpt lat="44.88193357401643" lon="11.507542620545328"><ele>5.0</ele><time>2026-04-17T17:17:50.999Z</time></trkpt><trkpt lat="44.88204199004788" lon="11.507569331285715"><ele>5.0</ele><time>2026-04-17T17:17:51.999Z</time></trkpt><trkpt lat="44.88213949907966" lon="11.507592133898536"><ele>5.0</ele><time>2026-04-17T17:17:52.999Z</time></trkpt><trkpt lat="44.88222939497898" lon="11.507614832949054"><ele>5.0</ele><time>2026-04-17T17:17:53.999Z</time></trkpt><trkpt lat="44.88230801393293" lon="11.507635093358811"><ele>5.0</ele><time>2026-04-17T17:17:54.999Z</time></trkpt><trkpt lat="44.88238387928991" lon="11.507653093001824"><ele>5.0</ele><time>2026-04-17T17:17:55.999Z</time></trkpt><trkpt lat="44.88246924506028" lon="11.507673188354891"><ele>5.0</ele><time>2026-04-17T17:17:56.999Z</time></trkpt><trkpt lat="44.88256932308124" lon="11.507696412948372"><ele>5.0</ele><time>2026-04-17T17:17:57.999Z</time></trkpt><trkpt lat="44.882683055257544" lon="11.507715760069066"><ele>5.0</ele><time>2026-04-17T17:17:58.999Z</time></trkpt><trkpt lat="44.88282283752586" lon="11.507754630303838"><ele>5.0</ele><time>2026-04-17T17:17:59.999Z</time></trkpt><trkpt lat="44.88298672186817" lon="11.507788969295676"><ele>5.0</ele><time>2026-04-17T17:18:00.999Z</time></trkpt><trkpt lat="44.88315076881548" lon="11.50783397828841"><ele>5.0</ele><time>2026-04-17T17:18:01.999Z</time></trkpt><trkpt lat="44.8833240373288" lon="11.507874105076215"><ele>6.333333333333334</ele><time>2026-04-17T17:18:02.999Z</time></trkpt><trkpt lat="44.88349311289367" lon="11.507928764945285"><ele>7.666666666666667</ele><time>2026-04-17T17:18:03.999Z</time></trkpt><trkpt lat="44.88365523530343" lon="11.507986801691276"><ele>9.0</ele><time>2026-04-17T17:18:04.999Z</time></trkpt><trkpt lat="44.88381342789955" lon="11.508035333142079"><ele>9.0</ele><time>2026-04-17T17:18:05.999Z</time></trkpt><trkpt lat="44.88395702923429" lon="11.50809910700614"><ele>9.0</ele><time>2026-04-17T17:18:06.999Z</time></trkpt><trkpt lat="44.884105179539816" lon="11.508130861921918"><ele>9.0</ele><time>2026-04-17T17:18:07.999Z</time></trkpt><trkpt lat="44.88425012636652" lon="11.508142348452031"><ele>9.0</ele><time>2026-04-17T17:18:08.999Z</time></trkpt><trkpt lat="44.88438446350807" lon="11.508117871289102"><ele>9.2</ele><time>2026-04-17T17:18:09.999Z</time></trkpt><trkpt lat="44.88450315381394" lon="11.50811513661161"><ele>9.4</ele><time>2026-04-17T17:18:10.999Z</time></trkpt><trkpt lat="44.88461203653453" lon="11.508121301987988"><ele>9.6</ele><time>2026-04-17T17:18:11.999Z</time></trkpt><trkpt lat="44.88470873923386" lon="11.508137816258678"><ele>9.8</ele><time>2026-04-17T17:18:12.999Z</time></trkpt><trkpt lat="44.88480357467404" lon="11.508165336254267"><ele>10.0</ele><time>2026-04-17T17:18:13.999Z</time></trkpt><trkpt lat="44.88490435349447" lon="11.508188004636724"><ele>10.0</ele><time>2026-04-17T17:18:14.999Z</time></trkpt><trkpt lat="44.885011478421575" lon="11.508250727088068"><ele>10.0</ele><time>2026-04-17T17:18:15.999Z</time></trkpt><trkpt lat="44.88513400614647" lon="11.508271699477625"><ele>10.0</ele><time>2026-04-17T17:18:16.999Z</time></trkpt><trkpt lat="44.88525279323428" lon="11.508314597394593"><ele>10.0</ele><time>2026-04-17T17:18:17.999Z</time></trkpt><trkpt lat="44.88536763126479" lon="11.508349064938315"><ele>9.2</ele><time>2026-04-17T17:18:18.999Z</time></trkpt><trkpt lat="44.88547760468351" lon="11.508383310956738"><ele>8.4</ele><time>2026-04-17T17:18:19.999Z</time></trkpt><trkpt lat="44.885582039721236" lon="11.508417118619143"><ele>7.6</ele><time>2026-04-17T17:18:20.999Z</time></trkpt><trkpt lat="44.88568327466883" lon="11.508448272390154"><ele>6.8</ele><time>2026-04-17T17:18:21.999Z</time></trkpt><trkpt lat="44.885776586746125" lon="11.508476418126655"><ele>6.0</ele><time>2026-04-17T17:18:22.999Z</time></trkpt><trkpt lat="44.88586726513223" lon="11.508501016651248"><ele>6.0</ele><time>2026-04-17T17:18:23.999Z</time></trkpt><trkpt lat="44.88594661779227" lon="11.50852313076902"><ele>6.0</ele><time>2026-04-17T17:18:24.999Z</time></trkpt><trkpt lat="44.886015384468216" lon="11.50854260313398"><ele>6.0</ele><time>2026-04-17T17:18:25.999Z</time></trkpt><trkpt lat="44.886113081092" lon="11.508588416732064"><ele>6.0</ele><time>2026-04-17T17:18:27.999Z</time></trkpt><trkpt lat="44.88618504337883" lon="11.508647386924379"><ele>6.0</ele><time>2026-04-17T17:18:29.999Z</time></trkpt><trkpt lat="44.88624834727276" lon="11.508678610309403"><ele>6.0</ele><time>2026-04-17T17:18:31.999Z</time></trkpt><trkpt lat="44.88631209119477" lon="11.50862045672777"><ele>6.0</ele><time>2026-04-17T17:18:34.999Z</time></trkpt><trkpt lat="44.886310596970446" lon="11.508510368745762"><ele>6.0</ele><time>2026-04-17T17:18:38.999Z</time></trkpt><trkpt lat="44.886287840544895" lon="11.508422608624258"><ele>6.0</ele><time>2026-04-17T17:18:41.999Z</time></trkpt><trkpt lat="44.88629359239923" lon="11.508303639533569"><ele>6.0</ele><time>2026-04-17T17:18:45Z</time></trkpt><trkpt lat="44.88635474520496" lon="11.50822416818684"><ele>6.0</ele><time>2026-04-17T17:18:47Z</time></trkpt><trkpt lat="44.8863889237217" lon="11.508143409521647"><ele>6.0</ele><time>2026-04-17T17:18:49Z</time></trkpt><trkpt lat="44.88643577183219" lon="11.508025809209613"><ele>6.0</ele><time>2026-04-17T17:18:52Z</time></trkpt><trkpt lat="44.88648303563017" lon="11.507907165804932"><ele>6.0</ele><time>2026-04-17T17:18:55Z</time></trkpt><trkpt lat="44.88652382823596" lon="11.507801793796764"><ele>6.0</ele><time>2026-04-17T17:18:58Z</time></trkpt><trkpt lat="44.88656653294271" lon="11.507690478538892"><ele>6.0</ele><time>2026-04-17T17:19:01Z</time></trkpt><trkpt lat="44.88659770696399" lon="11.507577583575545"><ele>6.0</ele><time>2026-04-17T17:19:04Z</time></trkpt><trkpt lat="44.88664003982298" lon="11.507464722253333"><ele>6.0</ele><time>2026-04-17T17:19:07Z</time></trkpt><trkpt lat="44.88667144785519" lon="11.50737936361012"><ele>6.0</ele><time>2026-04-17T17:19:09Z</time></trkpt><trkpt lat="44.88671317454203" lon="11.507266021617106"><ele>6.0</ele><time>2026-04-17T17:19:12Z</time></trkpt><trkpt lat="44.8867494178794" lon="11.50717583707737"><ele>6.0</ele><time>2026-04-17T17:19:14Z</time></trkpt><trkpt lat="44.88677926226749" lon="11.507093091963059"><ele>6.0</ele><time>2026-04-17T17:19:16Z</time></trkpt><trkpt lat="44.88681198779684" lon="11.507009456934385"><ele>6.0</ele><time>2026-04-17T17:19:18Z</time></trkpt><trkpt lat="44.88686021610872" lon="11.506895084719917"><ele>6.0</ele><time>2026-04-17T17:19:20Z</time></trkpt><trkpt lat="44.886904699870655" lon="11.506774051925156"><ele>5.0</ele><time>2026-04-17T17:19:21Z</time></trkpt><trkpt lat="44.88696368806207" lon="11.506617373105415"><ele>4.0</ele><time>2026-04-17T17:19:22Z</time></trkpt><trkpt lat="44.8870430658246" lon="11.506414945686485"><ele>3.0</ele><time>2026-04-17T17:19:23Z</time></trkpt><trkpt lat="44.887144024963476" lon="11.506160140193495"><ele>3.0</ele><time>2026-04-17T17:19:24Z</time></trkpt><trkpt lat="44.88726535072223" lon="11.505851639432393"><ele>3.0</ele><time>2026-04-17T17:19:25Z</time></trkpt><trkpt lat="44.887402067838806" lon="11.505500381413528"><ele>3.0</ele><time>2026-04-17T17:19:26Z</time></trkpt><trkpt lat="44.88753704513427" lon="11.505151694528625"><ele>3.0</ele><time>2026-04-17T17:19:27Z</time></trkpt><trkpt lat="44.88765956521487" lon="11.50483665046714"><ele>3.0</ele><time>2026-04-17T17:19:28Z</time></trkpt><trkpt lat="44.88777687707066" lon="11.504537917577323"><ele>3.0</ele><time>2026-04-17T17:19:29Z</time></trkpt><trkpt lat="44.887889688301186" lon="11.504248621692287"><ele>3.0</ele><time>2026-04-17T17:19:30Z</time></trkpt><trkpt lat="44.88800081328548" lon="11.503958731622935"><ele>3.0</ele><time>2026-04-17T17:19:31Z</time></trkpt><trkpt lat="44.88812038734169" lon="11.503641266131549"><ele>3.5</ele><time>2026-04-17T17:19:32Z</time></trkpt><trkpt lat="44.88825032286858" lon="11.503304218345933"><ele>4.0</ele><time>2026-04-17T17:19:33Z</time></trkpt><trkpt lat="44.88838169146674" lon="11.502962287858532"><ele>4.0</ele><time>2026-04-17T17:19:34Z</time></trkpt><trkpt lat="44.88850953384048" lon="11.502624662754178"><ele>4.0</ele><time>2026-04-17T17:19:35Z</time></trkpt><trkpt lat="44.888636114774854" lon="11.502298290245704"><ele>3.5</ele><time>2026-04-17T17:19:36Z</time></trkpt><trkpt lat="44.88875748469058" lon="11.501991546315308"><ele>3.0</ele><time>2026-04-17T17:19:37Z</time></trkpt><trkpt lat="44.88887680852926" lon="11.501689787123437"><ele>3.0</ele><time>2026-04-17T17:19:38Z</time></trkpt><trkpt lat="44.8889905684601" lon="11.501387460166983"><ele>3.0</ele><time>2026-04-17T17:19:39Z</time></trkpt><trkpt lat="44.88910828193209" lon="11.501084460219365"><ele>3.5</ele><time>2026-04-17T17:19:40Z</time></trkpt><trkpt lat="44.88922718297309" lon="11.50077976788208"><ele>4.0</ele><time>2026-04-17T17:19:41Z</time></trkpt><trkpt lat="44.88934532413336" lon="11.500476586860827"><ele>4.0</ele><time>2026-04-17T17:19:42Z</time></trkpt><trkpt lat="44.88946190552578" lon="11.500172706814174"><ele>4.0</ele><time>2026-04-17T17:19:43Z</time></trkpt><trkpt lat="44.88957585920733" lon="11.499872028539068"><ele>4.0</ele><time>2026-04-17T17:19:44Z</time></trkpt><trkpt lat="44.88969341644917" lon="11.499568337955324"><ele>4.0</ele><time>2026-04-17T17:19:45Z</time></trkpt><trkpt lat="44.889810988056375" lon="11.499265713040227"><ele>4.0</ele><time>2026-04-17T17:19:46Z</time></trkpt><trkpt lat="44.88992775616184" lon="11.498965615045197"><ele>4.0</ele><time>2026-04-17T17:19:47Z</time></trkpt><trkpt lat="44.890044547793956" lon="11.498665731403628"><ele>4.0</ele><time>2026-04-17T17:19:47.999Z</time></trkpt><trkpt lat="44.890157297095385" lon="11.498373856292028"><ele>4.0</ele><time>2026-04-17T17:19:48.999Z</time></trkpt><trkpt lat="44.89026074670965" lon="11.498111544537585"><ele>4.0</ele><time>2026-04-17T17:19:49.999Z</time></trkpt><trkpt lat="44.890353410076294" lon="11.497870728762688"><ele>4.0</ele><time>2026-04-17T17:19:50.999Z</time></trkpt><trkpt lat="44.89044253459836" lon="11.497631270666798"><ele>4.0</ele><time>2026-04-17T17:19:51.999Z</time></trkpt><trkpt lat="44.89053002322663" lon="11.497393937281766"><ele>4.0</ele><time>2026-04-17T17:19:52.999Z</time></trkpt><trkpt lat="44.89061856545676" lon="11.497159696822791"><ele>4.0</ele><time>2026-04-17T17:19:53.999Z</time></trkpt><trkpt lat="44.8907115446582" lon="11.496925786652104"><ele>4.0</ele><time>2026-04-17T17:19:54.999Z</time></trkpt><trkpt lat="44.89080071953303" lon="11.496691915696477"><ele>4.0</ele><time>2026-04-17T17:19:55.999Z</time></trkpt><trkpt lat="44.89089142567389" lon="11.496461269079978"><ele>3.333333333333333</ele><time>2026-04-17T17:19:56.999Z</time></trkpt><trkpt lat="44.890981759835334" lon="11.496234898155508"><ele>2.6666666666666665</ele><time>2026-04-17T17:19:57.999Z</time></trkpt><trkpt lat="44.89106885314728" lon="11.496011346737832"><ele>2.0</ele><time>2026-04-17T17:19:58.999Z</time></trkpt><trkpt lat="44.89115330122417" lon="11.49578656277909"><ele>2.0</ele><time>2026-04-17T17:19:59.999Z</time></trkpt><trkpt lat="44.891236847208766" lon="11.49557196128001"><ele>2.0</ele><time>2026-04-17T17:20:00.999Z</time></trkpt><trkpt lat="44.89131867061469" lon="11.495359156887664"><ele>2.0</ele><time>2026-04-17T17:20:01.999Z</time></trkpt><trkpt lat="44.89140205440235" lon="11.49514864177978"><ele>2.333333333333333</ele><time>2026-04-17T17:20:02.999Z</time></trkpt><trkpt lat="44.89148369583549" lon="11.494938430106254"><ele>2.6666666666666665</ele><time>2026-04-17T17:20:03.999Z</time></trkpt><trkpt lat="44.89156587724949" lon="11.494723460890437"><ele>3.0</ele><time>2026-04-17T17:20:04.999Z</time></trkpt><trkpt lat="44.891647272342865" lon="11.49450731713703"><ele>3.666666666666667</ele><time>2026-04-17T17:20:05.999Z</time></trkpt><trkpt lat="44.891730550759625" lon="11.494304562972324"><ele>4.333333333333334</ele><time>2026-04-17T17:20:06.999Z</time></trkpt><trkpt lat="44.891805507621896" lon="11.4941041333732"><ele>5.0</ele><time>2026-04-17T17:20:07.999Z</time></trkpt><trkpt lat="44.89187908789158" lon="11.493908525989147"><ele>4.333333333333334</ele><time>2026-04-17T17:20:08.999Z</time></trkpt><trkpt lat="44.8919545325153" lon="11.493715221971723"><ele>3.666666666666667</ele><time>2026-04-17T17:20:09.999Z</time></trkpt><trkpt lat="44.89202667180924" lon="11.493526924228357"><ele>3.0</ele><time>2026-04-17T17:20:10.999Z</time></trkpt><trkpt lat="44.89209340786824" lon="11.493350351985715"><ele>3.0</ele><time>2026-04-17T17:20:11.999Z</time></trkpt><trkpt lat="44.89215837263703" lon="11.49318958543065"><ele>3.0</ele><time>2026-04-17T17:20:12.999Z</time></trkpt><trkpt lat="44.892223039608425" lon="11.493028777909762"><ele>3.0</ele><time>2026-04-17T17:20:13.999Z</time></trkpt><trkpt lat="44.89228660395316" lon="11.492863325098202"><ele>3.0</ele><time>2026-04-17T17:20:14.999Z</time></trkpt><trkpt lat="44.89234916136944" lon="11.492692596341241"><ele>3.25</ele><time>2026-04-17T17:20:15.999Z</time></trkpt><trkpt lat="44.89241251424713" lon="11.49252435249197"><ele>3.5</ele><time>2026-04-17T17:20:16.999Z</time></trkpt><trkpt lat="44.89247952421514" lon="11.492349252033389"><ele>3.75</ele><time>2026-04-17T17:20:17.999Z</time></trkpt><trkpt lat="44.8925485117317" lon="11.492169039077691"><ele>4.0</ele><time>2026-04-17T17:20:18.999Z</time></trkpt><trkpt lat="44.892619511798344" lon="11.491985220199975"><ele>4.0</ele><time>2026-04-17T17:20:19.999Z</time></trkpt><trkpt lat="44.892693647753426" lon="11.491794605993338"><ele>4.0</ele><time>2026-04-17T17:20:20.999Z</time></trkpt><trkpt lat="44.89276891186985" lon="11.491594221094017"><ele>4.0</ele><time>2026-04-17T17:20:21.999Z</time></trkpt><trkpt lat="44.892847294295926" lon="11.491387903576538"><ele>4.333333333333333</ele><time>2026-04-17T17:20:22.999Z</time></trkpt><trkpt lat="44.892925033138845" lon="11.49118181889534"><ele>4.666666666666667</ele><time>2026-04-17T17:20:23.999Z</time></trkpt><trkpt lat="44.89300603881141" lon="11.490977186633778"><ele>5.0</ele><time>2026-04-17T17:20:24.999Z</time></trkpt><trkpt lat="44.893088413061385" lon="11.490768578394732"><ele>5.0</ele><time>2026-04-17T17:20:25.999Z</time></trkpt><trkpt lat="44.89316910728744" lon="11.490554832830588"><ele>5.0</ele><time>2026-04-17T17:20:26.999Z</time></trkpt><trkpt lat="44.89325019769313" lon="11.490339525348679"><ele>5.0</ele><time>2026-04-17T17:20:27.999Z</time></trkpt><trkpt lat="44.893331671792595" lon="11.490122057465166"><ele>5.666666666666667</ele><time>2026-04-17T17:20:28.999Z</time></trkpt><trkpt lat="44.89341521835368" lon="11.48990680241547"><ele>6.333333333333334</ele><time>2026-04-17T17:20:29.999Z</time></trkpt><trkpt lat="44.893494569162144" lon="11.489703790761665"><ele>7.0</ele><time>2026-04-17T17:20:30.999Z</time></trkpt><trkpt lat="44.89357057577993" lon="11.489505291092637"><ele>5.666666666666667</ele><time>2026-04-17T17:20:31.999Z</time></trkpt><trkpt lat="44.893647792459035" lon="11.489304265609455"><ele>4.333333333333334</ele><time>2026-04-17T17:20:32.999Z</time></trkpt><trkpt lat="44.8937283973443" lon="11.489100292441487"><ele>3.0</ele><time>2026-04-17T17:20:33.999Z</time></trkpt><trkpt lat="44.893810940754086" lon="11.48889050263468"><ele>3.333333333333333</ele><time>2026-04-17T17:20:34.999Z</time></trkpt><trkpt lat="44.89389501592984" lon="11.488671993778533"><ele>3.6666666666666665</ele><time>2026-04-17T17:20:35.999Z</time></trkpt><trkpt lat="44.893980572918124" lon="11.488442590248658"><ele>4.0</ele><time>2026-04-17T17:20:36.999Z</time></trkpt><trkpt lat="44.89407156791764" lon="11.488207800683657"><ele>4.0</ele><time>2026-04-17T17:20:37.999Z</time></trkpt><trkpt lat="44.894166660744105" lon="11.48796411606821"><ele>4.0</ele><time>2026-04-17T17:20:38.999Z</time></trkpt><trkpt lat="44.89426376777215" lon="11.48771545625322"><ele>4.0</ele><time>2026-04-17T17:20:39.999Z</time></trkpt><trkpt lat="44.894360955579394" lon="11.487462205939801"><ele>4.0</ele><time>2026-04-17T17:20:40.999Z</time></trkpt><trkpt lat="44.894460339570834" lon="11.487202447278767"><ele>4.0</ele><time>2026-04-17T17:20:41.999Z</time></trkpt><trkpt lat="44.89456298938579" lon="11.486935508113275"><ele>4.0</ele><time>2026-04-17T17:20:42.999Z</time></trkpt><trkpt lat="44.894670201807806" lon="11.48666098795393"><ele>4.0</ele><time>2026-04-17T17:20:43.999Z</time></trkpt><trkpt lat="44.89477870262618" lon="11.48638022095296"><ele>4.0</ele><time>2026-04-17T17:20:44.999Z</time></trkpt><trkpt lat="44.89488885143734" lon="11.486094245566745"><ele>4.0</ele><time>2026-04-17T17:20:45.999Z</time></trkpt><trkpt lat="44.894999292180856" lon="11.485804257901838"><ele>4.0</ele><time>2026-04-17T17:20:46.999Z</time></trkpt><trkpt lat="44.89511214898695" lon="11.485511220645176"><ele>4.5</ele><time>2026-04-17T17:20:47.999Z</time></trkpt><trkpt lat="44.89522373414141" lon="11.485218908132385"><ele>5.0</ele><time>2026-04-17T17:20:48.999Z</time></trkpt><trkpt lat="44.89532797646086" lon="11.484942858321512"><ele>5.0</ele><time>2026-04-17T17:20:50Z</time></trkpt><trkpt lat="44.895436651491146" lon="11.484674571417193"><ele>5.0</ele><time>2026-04-17T17:20:51Z</time></trkpt><trkpt lat="44.89554324002199" lon="11.48439808743153"><ele>5.0</ele><time>2026-04-17T17:20:52Z</time></trkpt><trkpt lat="44.89564867041853" lon="11.484123182763348"><ele>4.666666666666667</ele><time>2026-04-17T17:20:53Z</time></trkpt><trkpt lat="44.89575152893804" lon="11.483850035186766"><ele>4.333333333333333</ele><time>2026-04-17T17:20:54Z</time></trkpt><trkpt lat="44.89585394587929" lon="11.483579651286613"><ele>4.0</ele><time>2026-04-17T17:20:55Z</time></trkpt><trkpt lat="44.89595135844306" lon="11.48332318591085"><ele>4.0</ele><time>2026-04-17T17:20:56Z</time></trkpt><trkpt lat="44.896045015549376" lon="11.48307905220504"><ele>4.0</ele><time>2026-04-17T17:20:57Z</time></trkpt><trkpt lat="44.89613547360951" lon="11.4828520996765"><ele>4.0</ele><time>2026-04-17T17:20:58Z</time></trkpt><trkpt lat="44.89622243898985" lon="11.482631369462931"><ele>4.0</ele><time>2026-04-17T17:20:59Z</time></trkpt><trkpt lat="44.896312895235795" lon="11.482404026398877"><ele>4.0</ele><time>2026-04-17T17:21:00Z</time></trkpt><trkpt lat="44.896399048124024" lon="11.482182304363008"><ele>4.0</ele><time>2026-04-17T17:21:01Z</time></trkpt><trkpt lat="44.89648819745094" lon="11.481949485824018"><ele>4.333333333333333</ele><time>2026-04-17T17:21:02Z</time></trkpt><trkpt lat="44.89657876558013" lon="11.481717089637312"><ele>4.666666666666667</ele><time>2026-04-17T17:21:03Z</time></trkpt><trkpt lat="44.896666650346845" lon="11.481482927348774"><ele>5.0</ele><time>2026-04-17T17:21:04Z</time></trkpt><trkpt lat="44.89675697199212" lon="11.481241491280906"><ele>5.0</ele><time>2026-04-17T17:21:05Z</time></trkpt><trkpt lat="44.89685043595086" lon="11.481005928971863"><ele>5.0</ele><time>2026-04-17T17:21:06Z</time></trkpt><trkpt lat="44.896944658297386" lon="11.480761188078853"><ele>5.0</ele><time>2026-04-17T17:21:07Z</time></trkpt><trkpt lat="44.897029366617495" lon="11.480516459787832"><ele>5.0</ele><time>2026-04-17T17:21:08Z</time></trkpt><trkpt lat="44.89712315706584" lon="11.480272682665108"><ele>5.0</ele><time>2026-04-17T17:21:09Z</time></trkpt><trkpt lat="44.89721697588601" lon="11.480024983089068"><ele>5.0</ele><time>2026-04-17T17:21:10Z</time></trkpt><trkpt lat="44.897316775419064" lon="11.479777646576748"><ele>5.0</ele><time>2026-04-17T17:21:11Z</time></trkpt><trkpt lat="44.897411670797844" lon="11.479525401743375"><ele>5.0</ele><time>2026-04-17T17:21:12Z</time></trkpt><trkpt lat="44.897507145836" lon="11.479269859745056"><ele>5.0</ele><time>2026-04-17T17:21:13Z</time></trkpt><trkpt lat="44.897603986413415" lon="11.479019395242297"><ele>5.0</ele><time>2026-04-17T17:21:14Z</time></trkpt><trkpt lat="44.89770561380723" lon="11.47876803597209"><ele>5.0</ele><time>2026-04-17T17:21:15Z</time></trkpt><trkpt lat="44.89780473767722" lon="11.478520154229164"><ele>5.0</ele><time>2026-04-17T17:21:16Z</time></trkpt><trkpt lat="44.897895360094175" lon="11.47828340054398"><ele>5.0</ele><time>2026-04-17T17:21:17Z</time></trkpt><trkpt lat="44.89798233110445" lon="11.47805536880987"><ele>5.0</ele><time>2026-04-17T17:21:18Z</time></trkpt><trkpt lat="44.89806918565869" lon="11.477824024024667"><ele>5.0</ele><time>2026-04-17T17:21:19Z</time></trkpt><trkpt lat="44.898158952178335" lon="11.477587241262857"><ele>4.666666666666667</ele><time>2026-04-17T17:21:20Z</time></trkpt><trkpt lat="44.89825033116623" lon="11.477354014498443"><ele>4.333333333333333</ele><time>2026-04-17T17:21:21Z</time></trkpt><trkpt lat="44.898338448685266" lon="11.477124870732487"><ele>4.0</ele><time>2026-04-17T17:21:22Z</time></trkpt><trkpt lat="44.89842396746351" lon="11.476907334051313"><ele>3.6666666666666665</ele><time>2026-04-17T17:21:23Z</time></trkpt><trkpt lat="44.8985041649445" lon="11.476696929708998"><ele>3.333333333333333</ele><time>2026-04-17T17:21:24Z</time></trkpt><trkpt lat="44.898580262498676" lon="11.476500094278865"><ele>3.0</ele><time>2026-04-17T17:21:25Z</time></trkpt><trkpt lat="44.898651674455735" lon="11.476309000636599"><ele>3.333333333333333</ele><time>2026-04-17T17:21:26Z</time></trkpt><trkpt lat="44.89872740446968" lon="11.476111424852892"><ele>3.6666666666666665</ele><time>2026-04-17T17:21:27Z</time></trkpt><trkpt lat="44.89880424367966" lon="11.475914632396526"><ele>4.0</ele><time>2026-04-17T17:21:28Z</time></trkpt><trkpt lat="44.898882409495656" lon="11.475719195665926"><ele>4.0</ele><time>2026-04-17T17:21:29Z</time></trkpt><trkpt lat="44.89895472312319" lon="11.47553452167134"><ele>4.0</ele><time>2026-04-17T17:21:30Z</time></trkpt><trkpt lat="44.899024648600985" lon="11.475345893064867"><ele>4.0</ele><time>2026-04-17T17:21:31Z</time></trkpt><trkpt lat="44.899087679942994" lon="11.475167004748606"><ele>4.0</ele><time>2026-04-17T17:21:32Z</time></trkpt><trkpt lat="44.89916035059211" lon="11.474987665038814"><ele>4.0</ele><time>2026-04-17T17:21:33Z</time></trkpt><trkpt lat="44.89923077269582" lon="11.474805260755808"><ele>4.0</ele><time>2026-04-17T17:21:34Z</time></trkpt><trkpt lat="44.899303661054155" lon="11.474614366396429"><ele>4.0</ele><time>2026-04-17T17:21:35Z</time></trkpt><trkpt lat="44.899381563883075" lon="11.474408177347243"><ele>4.333333333333333</ele><time>2026-04-17T17:21:36Z</time></trkpt><trkpt lat="44.89946276986417" lon="11.474193106286984"><ele>4.666666666666667</ele><time>2026-04-17T17:21:37Z</time></trkpt><trkpt lat="44.899544850350416" lon="11.47397559386059"><ele>5.0</ele><time>2026-04-17T17:21:38Z</time></trkpt><trkpt lat="44.899629848788464" lon="11.47375512872362"><ele>5.333333333333334</ele><time>2026-04-17T17:21:39Z</time></trkpt><trkpt lat="44.89971854507213" lon="11.473521428343501"><ele>5.666666666666667</ele><time>2026-04-17T17:21:40Z</time></trkpt><trkpt lat="44.89980980253159" lon="11.47328449220565"><ele>6.0</ele><time>2026-04-17T17:21:41Z</time></trkpt><trkpt lat="44.899904136754216" lon="11.473041330471322"><ele>6.0</ele><time>2026-04-17T17:21:42Z</time></trkpt><trkpt lat="44.90000374962684" lon="11.472787803965325"><ele>6.0</ele><time>2026-04-17T17:21:43Z</time></trkpt><trkpt lat="44.90010394347029" lon="11.472526387541938"><ele>6.0</ele><time>2026-04-17T17:21:44Z</time></trkpt><trkpt lat="44.90020669237131" lon="11.47227369882635"><ele>6.0</ele><time>2026-04-17T17:21:45Z</time></trkpt><trkpt lat="44.90030058631976" lon="11.471995799378831"><ele>6.0</ele><time>2026-04-17T17:21:46Z</time></trkpt><trkpt lat="44.900403822421076" lon="11.471722827486303"><ele>6.0</ele><time>2026-04-17T17:21:47Z</time></trkpt><trkpt lat="44.900510788046184" lon="11.471446336307894"><ele>6.0</ele><time>2026-04-17T17:21:48Z</time></trkpt><trkpt lat="44.90061926389267" lon="11.471168182167341"><ele>6.0</ele><time>2026-04-17T17:21:49Z</time></trkpt><trkpt lat="44.90072224648746" lon="11.470883430916652"><ele>6.0</ele><time>2026-04-17T17:21:50Z</time></trkpt><trkpt lat="44.90082355167302" lon="11.470608208491697"><ele>6.0</ele><time>2026-04-17T17:21:51Z</time></trkpt><trkpt lat="44.90093132296503" lon="11.47033105836559"><ele>6.0</ele><time>2026-04-17T17:21:52Z</time></trkpt><trkpt lat="44.90104056004721" lon="11.470054054192351"><ele>5.5</ele><time>2026-04-17T17:21:53Z</time></trkpt><trkpt lat="44.90115105489687" lon="11.469774156517618"><ele>5.0</ele><time>2026-04-17T17:21:53.999Z</time></trkpt><trkpt lat="44.90125758873663" lon="11.469487708392203"><ele>5.0</ele><time>2026-04-17T17:21:54.999Z</time></trkpt><trkpt lat="44.90136373694996" lon="11.469199452860341"><ele>5.0</ele><time>2026-04-17T17:21:55.999Z</time></trkpt><trkpt lat="44.901469203166236" lon="11.468919306754028"><ele>5.0</ele><time>2026-04-17T17:21:56.999Z</time></trkpt><trkpt lat="44.901576906821724" lon="11.468633333874665"><ele>5.0</ele><time>2026-04-17T17:21:57.999Z</time></trkpt><trkpt lat="44.901685667333105" lon="11.468349022263029"><ele>5.0</ele><time>2026-04-17T17:21:58.999Z</time></trkpt><trkpt lat="44.90179087211382" lon="11.468064572891311"><ele>5.0</ele><time>2026-04-17T17:21:59.999Z</time></trkpt><trkpt lat="44.9018957550775" lon="11.467786942452793"><ele>5.0</ele><time>2026-04-17T17:22:00.999Z</time></trkpt><trkpt lat="44.901997917676354" lon="11.467509998806552"><ele>5.0</ele><time>2026-04-17T17:22:01.999Z</time></trkpt><trkpt lat="44.90209695546382" lon="11.467245424237232"><ele>5.0</ele><time>2026-04-17T17:22:02.999Z</time></trkpt><trkpt lat="44.902189798971825" lon="11.466999020375898"><ele>5.0</ele><time>2026-04-17T17:22:03.999Z</time></trkpt><trkpt lat="44.90227408223899" lon="11.466771442896135"><ele>5.0</ele><time>2026-04-17T17:22:04.999Z</time></trkpt><trkpt lat="44.90235059303641" lon="11.466559468575971"><ele>5.0</ele><time>2026-04-17T17:22:05.999Z</time></trkpt><trkpt lat="44.9024239190872" lon="11.466350383826176"><ele>5.25</ele><time>2026-04-17T17:22:06.999Z</time></trkpt><trkpt lat="44.90248687175949" lon="11.466137912153842"><ele>5.5</ele><time>2026-04-17T17:22:07.999Z</time></trkpt><trkpt lat="44.90252307098306" lon="11.465945810730732"><ele>5.75</ele><time>2026-04-17T17:22:08.999Z</time></trkpt><trkpt lat="44.902552002140915" lon="11.465754004269431"><ele>6.0</ele><time>2026-04-17T17:22:09.999Z</time></trkpt><trkpt lat="44.90258101008013" lon="11.465586713806466"><ele>6.25</ele><time>2026-04-17T17:22:10.999Z</time></trkpt><trkpt lat="44.90260392645635" lon="11.465422607630522"><ele>6.5</ele><time>2026-04-17T17:22:11.999Z</time></trkpt><trkpt lat="44.902613783092235" lon="11.465261742985957"><ele>6.75</ele><time>2026-04-17T17:22:12.999Z</time></trkpt><trkpt lat="44.902605570828506" lon="11.465084341580734"><ele>7.0</ele><time>2026-04-17T17:22:13.999Z</time></trkpt><trkpt lat="44.90258291584787" lon="11.464885628634137"><ele>7.0</ele><time>2026-04-17T17:22:14.999Z</time></trkpt><trkpt lat="44.90256234008157" lon="11.46468411198818"><ele>7.0</ele><time>2026-04-17T17:22:15.999Z</time></trkpt><trkpt lat="44.90255308666017" lon="11.464431876169577"><ele>7.0</ele><time>2026-04-17T17:22:16.999Z</time></trkpt><trkpt lat="44.90256695886191" lon="11.46416120652588"><ele>6.666666666666667</ele><time>2026-04-17T17:22:17.999Z</time></trkpt><trkpt lat="44.90258748687545" lon="11.463875426493246"><ele>6.333333333333334</ele><time>2026-04-17T17:22:18.999Z</time></trkpt><trkpt lat="44.90261388155609" lon="11.463573843797557"><ele>6.0</ele><time>2026-04-17T17:22:19.999Z</time></trkpt><trkpt lat="44.90263923656175" lon="11.463266288101728"><ele>6.0</ele><time>2026-04-17T17:22:20.999Z</time></trkpt><trkpt lat="44.90266413631702" lon="11.462978744861058"><ele>6.0</ele><time>2026-04-17T17:22:21.999Z</time></trkpt><trkpt lat="44.90268262319883" lon="11.46271674975306"><ele>6.0</ele><time>2026-04-17T17:22:22.999Z</time></trkpt><trkpt lat="44.90269808375942" lon="11.462478456688842"><ele>6.0</ele><time>2026-04-17T17:22:23.999Z</time></trkpt><trkpt lat="44.90271272329621" lon="11.462259221016794"><ele>6.0</ele><time>2026-04-17T17:22:24.999Z</time></trkpt><trkpt lat="44.90272646542217" lon="11.462040093275476"><ele>6.0</ele><time>2026-04-17T17:22:25.999Z</time></trkpt><trkpt lat="44.902740382873695" lon="11.461813653224938"><ele>6.0</ele><time>2026-04-17T17:22:26.999Z</time></trkpt><trkpt lat="44.90275305652756" lon="11.461593265659245"><ele>6.0</ele><time>2026-04-17T17:22:27.999Z</time></trkpt><trkpt lat="44.90276917814952" lon="11.461375391166113"><ele>6.0</ele><time>2026-04-17T17:22:28.999Z</time></trkpt><trkpt lat="44.90278717350339" lon="11.46116642648709"><ele>6.0</ele><time>2026-04-17T17:22:29.999Z</time></trkpt><trkpt lat="44.902801727673115" lon="11.46097350238054"><ele>6.0</ele><time>2026-04-17T17:22:30.999Z</time></trkpt><trkpt lat="44.90281262778415" lon="11.460794556423302"><ele>6.0</ele><time>2026-04-17T17:22:31.999Z</time></trkpt><trkpt lat="44.90282051580176" lon="11.460628975515947"><ele>6.0</ele><time>2026-04-17T17:22:32.999Z</time></trkpt><trkpt lat="44.90282118713524" lon="11.46048374835338"><ele>5.75</ele><time>2026-04-17T17:22:33.999Z</time></trkpt><trkpt lat="44.902805328967055" lon="11.460346895201777"><ele>5.5</ele><time>2026-04-17T17:22:34.999Z</time></trkpt><trkpt lat="44.90278802127397" lon="11.460224348037277"><ele>5.25</ele><time>2026-04-17T17:22:35.999Z</time></trkpt><trkpt lat="44.90277491754808" lon="11.460120477447584"><ele>5.0</ele><time>2026-04-17T17:22:36.999Z</time></trkpt><trkpt lat="44.90251006727984" lon="11.460035188305353"><ele>5.0</ele><time>2026-04-17T17:22:38.999Z</time></trkpt><trkpt lat="44.902395675122534" lon="11.460034759364117"><ele>5.0</ele><time>2026-04-17T17:22:39.999Z</time></trkpt><trkpt lat="44.90225835208305" lon="11.46007158491823"><ele>5.0</ele><time>2026-04-17T17:22:40.999Z</time></trkpt><trkpt lat="44.90209510080439" lon="11.46012023398944"><ele>5.0</ele><time>2026-04-17T17:22:41.999Z</time></trkpt><trkpt lat="44.9019007380236" lon="11.460163500307571"><ele>5.5</ele><time>2026-04-17T17:22:42.999Z</time></trkpt><trkpt lat="44.901670925190956" lon="11.460204885704686"><ele>6.0</ele><time>2026-04-17T17:22:43.999Z</time></trkpt><trkpt lat="44.901416305449466" lon="11.460253256389585"><ele>6.0</ele><time>2026-04-17T17:22:44.999Z</time></trkpt><trkpt lat="44.90114829475322" lon="11.460308020438776"><ele>6.0</ele><time>2026-04-17T17:22:45.999Z</time></trkpt><trkpt lat="44.90086839707034" lon="11.460363522501037"><ele>6.0</ele><time>2026-04-17T17:22:46.999Z</time></trkpt><trkpt lat="44.9006070820141" lon="11.460413551187155"><ele>6.0</ele><time>2026-04-17T17:22:47.999Z</time></trkpt><trkpt lat="44.900358593893536" lon="11.460460853679242"><ele>6.0</ele><time>2026-04-17T17:22:48.999Z</time></trkpt><trkpt lat="44.9001171201395" lon="11.460512460539032"><ele>6.0</ele><time>2026-04-17T17:22:49.999Z</time></trkpt><trkpt lat="44.89988378523781" lon="11.460586250381674"><ele>5.0</ele><time>2026-04-17T17:22:50.999Z</time></trkpt><trkpt lat="44.899646125140706" lon="11.46068450336098"><ele>4.0</ele><time>2026-04-17T17:22:51.999Z</time></trkpt><trkpt lat="44.89939527203111" lon="11.460819345903738"><ele>4.0</ele><time>2026-04-17T17:22:52.999Z</time></trkpt><trkpt lat="44.89914336899521" lon="11.460961775006629"><ele>4.0</ele><time>2026-04-17T17:22:53.999Z</time></trkpt><trkpt lat="44.89890439606509" lon="11.461090783135683"><ele>4.0</ele><time>2026-04-17T17:22:54.999Z</time></trkpt><trkpt lat="44.898687275279656" lon="11.461205291408117"><ele>4.0</ele><time>2026-04-17T17:22:56Z</time></trkpt><trkpt lat="44.89849837649421" lon="11.461310319821957"><ele>4.0</ele><time>2026-04-17T17:22:57Z</time></trkpt><trkpt lat="44.89831876261957" lon="11.461407082105314"><ele>4.333333333333333</ele><time>2026-04-17T17:22:58Z</time></trkpt><trkpt lat="44.89816123743902" lon="11.461492997285992"><ele>4.666666666666667</ele><time>2026-04-17T17:22:59Z</time></trkpt><trkpt lat="44.898020979406745" lon="11.461567414606352"><ele>5.0</ele><time>2026-04-17T17:23:00Z</time></trkpt><trkpt lat="44.89788783993" lon="11.46163834127333"><ele>5.0</ele><time>2026-04-17T17:23:01Z</time></trkpt><trkpt lat="44.8977674669397" lon="11.461703792983634"><ele>5.0</ele><time>2026-04-17T17:23:02Z</time></trkpt><trkpt lat="44.89765751843102" lon="11.461763748261442"><ele>5.0</ele><time>2026-04-17T17:23:03Z</time></trkpt><trkpt lat="44.897556001689296" lon="11.461822825072323"><ele>5.0</ele><time>2026-04-17T17:23:04Z</time></trkpt><trkpt lat="44.897463565991224" lon="11.461878417415877"><ele>5.2</ele><time>2026-04-17T17:23:05Z</time></trkpt><trkpt lat="44.89737697291745" lon="11.461921947826324"><ele>5.4</ele><time>2026-04-17T17:23:06Z</time></trkpt><trkpt lat="44.89729042281884" lon="11.461931754984048"><ele>5.6</ele><time>2026-04-17T17:23:07Z</time></trkpt><trkpt lat="44.897201616420034" lon="11.461900276528597"><ele>5.8</ele><time>2026-04-17T17:23:08Z</time></trkpt><trkpt lat="44.897123863146355" lon="11.461822397286099"><ele>6.0</ele><time>2026-04-17T17:23:09Z</time></trkpt><trkpt lat="44.89708216521416" lon="11.461715433934593"><ele>6.0</ele><time>2026-04-17T17:23:10Z</time></trkpt><trkpt lat="44.89708678511733" lon="11.46157588166278"><ele>6.0</ele><time>2026-04-17T17:23:11Z</time></trkpt><trkpt lat="44.89706211224711" lon="11.461425738756322"><ele>6.0</ele><time>2026-04-17T17:23:12Z</time></trkpt><trkpt lat="44.897051022202795" lon="11.461259412779226"><ele>6.0</ele><time>2026-04-17T17:23:13Z</time></trkpt><trkpt lat="44.89703046858792" lon="11.461080769692293"><ele>6.25</ele><time>2026-04-17T17:23:14Z</time></trkpt><trkpt lat="44.89700417922511" lon="11.460891423864455"><ele>6.5</ele><time>2026-04-17T17:23:15Z</time></trkpt><trkpt lat="44.8969821267304" lon="11.460720854284851"><ele>6.75</ele><time>2026-04-17T17:23:16Z</time></trkpt><trkpt lat="44.8969622282615" lon="11.460570109320159"><ele>7.0</ele><time>2026-04-17T17:23:17Z</time></trkpt><trkpt lat="44.896945197336464" lon="11.460430034298335"><ele>7.199999999999999</ele><time>2026-04-17T17:23:18Z</time></trkpt><trkpt lat="44.89692900671881" lon="11.460298593297425"><ele>7.3999999999999995</ele><time>2026-04-17T17:23:19Z</time></trkpt><trkpt lat="44.896913466877656" lon="11.460184145556198"><ele>7.6000000000000005</ele><time>2026-04-17T17:23:20Z</time></trkpt><trkpt lat="44.896879919202725" lon="11.460042239523101"><ele>7.800000000000001</ele><time>2026-04-17T17:23:22Z</time></trkpt><trkpt lat="44.896843576519046" lon="11.459898086560816"><ele>8.0</ele><time>2026-04-17T17:23:24Z</time></trkpt><trkpt lat="44.89681055471138" lon="11.459772749960136"><ele>8.0</ele><time>2026-04-17T17:23:26Z</time></trkpt><trkpt lat="44.89676569454635" lon="11.459608086222488"><ele>8.0</ele><time>2026-04-17T17:23:28Z</time></trkpt><trkpt lat="44.896738607059945" lon="11.459501807287873"><ele>8.0</ele><time>2026-04-17T17:23:29Z</time></trkpt><trkpt lat="44.89669982859538" lon="11.459368601558433"><ele>8.0</ele><time>2026-04-17T17:23:30Z</time></trkpt><trkpt lat="44.89665323553028" lon="11.459214275296391"><ele>8.0</ele><time>2026-04-17T17:23:31Z</time></trkpt><trkpt lat="44.89660746214949" lon="11.459043800715396"><ele>8.166666666666666</ele><time>2026-04-17T17:23:32Z</time></trkpt><trkpt lat="44.89657308986842" lon="11.458890454142137"><ele>8.333333333333332</ele><time>2026-04-17T17:23:33Z</time></trkpt><trkpt lat="44.89654514020646" lon="11.458770736759092"><ele>8.5</ele><time>2026-04-17T17:23:34Z</time></trkpt><trkpt lat="44.89651824283106" lon="11.458663798062743"><ele>8.666666666666666</ele><time>2026-04-17T17:23:35Z</time></trkpt><trkpt lat="44.89649673629668" lon="11.458570023857044"><ele>8.833333333333334</ele><time>2026-04-17T17:23:36Z</time></trkpt><trkpt lat="44.89647504089072" lon="11.458481012773127"><ele>9.0</ele><time>2026-04-17T17:23:37Z</time></trkpt><trkpt lat="44.89644700781596" lon="11.458375757525822"><ele>9.0</ele><time>2026-04-17T17:23:38Z</time></trkpt><trkpt lat="44.89641374890833" lon="11.458240914239026"><ele>9.0</ele><time>2026-04-17T17:23:39Z</time></trkpt><trkpt lat="44.89638565133274" lon="11.458083277967841"><ele>9.0</ele><time>2026-04-17T17:23:40Z</time></trkpt><trkpt lat="44.896356562756715" lon="11.457905996109943"><ele>9.0</ele><time>2026-04-17T17:23:41Z</time></trkpt><trkpt lat="44.896314068223866" lon="11.457720191673419"><ele>9.0</ele><time>2026-04-17T17:23:42Z</time></trkpt><trkpt lat="44.896259539997" lon="11.457532769031507"><ele>9.0</ele><time>2026-04-17T17:23:43Z</time></trkpt><trkpt lat="44.8961927768261" lon="11.457357154031369"><ele>9.0</ele><time>2026-04-17T17:23:44Z</time></trkpt><trkpt lat="44.896117726972435" lon="11.457167975542555"><ele>9.0</ele><time>2026-04-17T17:23:45Z</time></trkpt><trkpt lat="44.896030448007906" lon="11.45698369451302"><ele>8.333333333333334</ele><time>2026-04-17T17:23:46Z</time></trkpt><trkpt lat="44.89593774992512" lon="11.456797955544774"><ele>7.666666666666667</ele><time>2026-04-17T17:23:47Z</time></trkpt><trkpt lat="44.895840145546" lon="11.456611623073453"><ele>7.0</ele><time>2026-04-17T17:23:48Z</time></trkpt><trkpt lat="44.89573805240619" lon="11.456443530928107"><ele>7.0</ele><time>2026-04-17T17:23:49Z</time></trkpt><trkpt lat="44.895625378680144" lon="11.456265590742586"><ele>7.0</ele><time>2026-04-17T17:23:50Z</time></trkpt><trkpt lat="44.89550243973448" lon="11.456109450251963"><ele>7.0</ele><time>2026-04-17T17:23:51Z</time></trkpt><trkpt lat="44.89538283637617" lon="11.455950522676424"><ele>7.0</ele><time>2026-04-17T17:23:52Z</time></trkpt><trkpt lat="44.89525549905985" lon="11.455793982293775"><ele>7.0</ele><time>2026-04-17T17:23:53Z</time></trkpt><trkpt lat="44.895129279844156" lon="11.455628067542397"><ele>7.0</ele><time>2026-04-17T17:23:54Z</time></trkpt><trkpt lat="44.895012049262775" lon="11.455463475430017"><ele>7.0</ele><time>2026-04-17T17:23:55Z</time></trkpt><trkpt lat="44.894897103650315" lon="11.455287283835494"><ele>7.0</ele><time>2026-04-17T17:23:56Z</time></trkpt><trkpt lat="44.894783558860375" lon="11.455096909520442"><ele>7.0</ele><time>2026-04-17T17:23:57Z</time></trkpt><trkpt lat="44.8946753097269" lon="11.454909629132208"><ele>7.0</ele><time>2026-04-17T17:23:58Z</time></trkpt><trkpt lat="44.89456795746928" lon="11.454717850366345"><ele>7.0</ele><time>2026-04-17T17:23:58.999Z</time></trkpt><trkpt lat="44.89447043501438" lon="11.454526997098778"><ele>7.0</ele><time>2026-04-17T17:23:59.999Z</time></trkpt><trkpt lat="44.89438390920542" lon="11.454314326574805"><ele>7.333333333333334</ele><time>2026-04-17T17:24:00.999Z</time></trkpt><trkpt lat="44.894313976674816" lon="11.454087243464802"><ele>7.666666666666666</ele><time>2026-04-17T17:24:01.999Z</time></trkpt><trkpt lat="44.894256397299735" lon="11.453847564188422"><ele>8.0</ele><time>2026-04-17T17:24:02.999Z</time></trkpt><trkpt lat="44.89420009654297" lon="11.453602503416855"><ele>8.0</ele><time>2026-04-17T17:24:03.999Z</time></trkpt><trkpt lat="44.8941434589844" lon="11.453362766217083"><ele>8.0</ele><time>2026-04-17T17:24:04.999Z</time></trkpt><trkpt lat="44.89408804475615" lon="11.453144778159787"><ele>8.0</ele><time>2026-04-17T17:24:05.999Z</time></trkpt><trkpt lat="44.89404029596266" lon="11.4529522661714"><ele>8.0</ele><time>2026-04-17T17:24:06.999Z</time></trkpt><trkpt lat="44.89399377135176" lon="11.452758603793521"><ele>8.0</ele><time>2026-04-17T17:24:07.999Z</time></trkpt><trkpt lat="44.893956893122805" lon="11.452583771651739"><ele>8.0</ele><time>2026-04-17T17:24:08.999Z</time></trkpt><trkpt lat="44.89393823079348" lon="11.452414913445553"><ele>8.0</ele><time>2026-04-17T17:24:09.999Z</time></trkpt><trkpt lat="44.893939531285675" lon="11.452227801922268"><ele>7.75</ele><time>2026-04-17T17:24:10.999Z</time></trkpt><trkpt lat="44.89395330809725" lon="11.452043652740782"><ele>7.5</ele><time>2026-04-17T17:24:11.999Z</time></trkpt><trkpt lat="44.89395762969877" lon="11.451867065221979"><ele>7.25</ele><time>2026-04-17T17:24:12.999Z</time></trkpt><trkpt lat="44.89394377388798" lon="11.451690351959847"><ele>7.0</ele><time>2026-04-17T17:24:13.999Z</time></trkpt><trkpt lat="44.89390986399531" lon="11.451505617658299"><ele>7.0</ele><time>2026-04-17T17:24:14.999Z</time></trkpt><trkpt lat="44.893863205846415" lon="11.451316842076086"><ele>7.0</ele><time>2026-04-17T17:24:15.999Z</time></trkpt><trkpt lat="44.893817386195764" lon="11.451118056043612"><ele>7.0</ele><time>2026-04-17T17:24:16.999Z</time></trkpt><trkpt lat="44.89379440382258" lon="11.45090109757165"><ele>7.0</ele><time>2026-04-17T17:24:17.999Z</time></trkpt><trkpt lat="44.89378904811433" lon="11.450694420596015"><ele>7.25</ele><time>2026-04-17T17:24:18.999Z</time></trkpt><trkpt lat="44.893772692929105" lon="11.450493905814785"><ele>7.5</ele><time>2026-04-17T17:24:19.999Z</time></trkpt><trkpt lat="44.89374156669366" lon="11.45028540592895"><ele>7.75</ele><time>2026-04-17T17:24:20.999Z</time></trkpt><trkpt lat="44.89369586634197" lon="11.45008349210443"><ele>8.0</ele><time>2026-04-17T17:24:21.999Z</time></trkpt><trkpt lat="44.89363144499931" lon="11.449880704580238"><ele>8.0</ele><time>2026-04-17T17:24:22.999Z</time></trkpt><trkpt lat="44.89355820480776" lon="11.449680526100178"><ele>8.0</ele><time>2026-04-17T17:24:23.999Z</time></trkpt><trkpt lat="44.89351630296928" lon="11.449452005906947"><ele>8.0</ele><time>2026-04-17T17:24:24.999Z</time></trkpt><trkpt lat="44.893475070247426" lon="11.44921909377297"><ele>7.666666666666666</ele><time>2026-04-17T17:24:25.999Z</time></trkpt><trkpt lat="44.89344909525213" lon="11.448969635768423"><ele>7.333333333333334</ele><time>2026-04-17T17:24:26.999Z</time></trkpt><trkpt lat="44.893417941326355" lon="11.448714737756838"><ele>7.0</ele><time>2026-04-17T17:24:27.999Z</time></trkpt><trkpt lat="44.89337895207403" lon="11.448452881607569"><ele>7.666666666666667</ele><time>2026-04-17T17:24:28.999Z</time></trkpt><trkpt lat="44.89333340951332" lon="11.448196429184986"><ele>8.333333333333334</ele><time>2026-04-17T17:24:29.999Z</time></trkpt><trkpt lat="44.8932837052955" lon="11.447935079095386"><ele>9.0</ele><time>2026-04-17T17:24:30.999Z</time></trkpt><trkpt lat="44.893224767697" lon="11.447679647722394"><ele>9.0</ele><time>2026-04-17T17:24:31.999Z</time></trkpt><trkpt lat="44.89318250628226" lon="11.447455299783554"><ele>9.0</ele><time>2026-04-17T17:24:32.999Z</time></trkpt><trkpt lat="44.89311109234916" lon="11.447258069704814"><ele>9.0</ele><time>2026-04-17T17:24:33.999Z</time></trkpt><trkpt lat="44.893064098935376" lon="11.447042202986879"><ele>9.0</ele><time>2026-04-17T17:24:34.999Z</time></trkpt><trkpt lat="44.8929787854225" lon="11.446843786337022"><ele>9.0</ele><time>2026-04-17T17:24:35.999Z</time></trkpt><trkpt lat="44.892905234018016" lon="11.446645419381955"><ele>9.0</ele><time>2026-04-17T17:24:36.999Z</time></trkpt><trkpt lat="44.892832456822276" lon="11.446439248610654"><ele>8.666666666666666</ele><time>2026-04-17T17:24:37.999Z</time></trkpt><trkpt lat="44.892770350638635" lon="11.446234163983652"><ele>8.333333333333332</ele><time>2026-04-17T17:24:38.999Z</time></trkpt><trkpt lat="44.89272703643515" lon="11.446025024547797"><ele>8.0</ele><time>2026-04-17T17:24:39.999Z</time></trkpt><trkpt lat="44.89270074845783" lon="11.44582825856735"><ele>8.0</ele><time>2026-04-17T17:24:40.999Z</time></trkpt><trkpt lat="44.892687627965124" lon="11.445641007452338"><ele>8.0</ele><time>2026-04-17T17:24:41.999Z</time></trkpt><trkpt lat="44.89265886836583" lon="11.445454428167963"><ele>8.0</ele><time>2026-04-17T17:24:42.999Z</time></trkpt><trkpt lat="44.892664923843114" lon="11.445280781152206"><ele>8.0</ele><time>2026-04-17T17:24:43.999Z</time></trkpt><trkpt lat="44.8926479513559" lon="11.445122299103982"><ele>8.0</ele><time>2026-04-17T17:24:44.999Z</time></trkpt><trkpt lat="44.892733334654515" lon="11.44495184411451"><ele>8.0</ele><time>2026-04-17T17:24:45.999Z</time></trkpt><trkpt lat="44.89276500218014" lon="11.444784550345524"><ele>8.0</ele><time>2026-04-17T17:24:46.999Z</time></trkpt><trkpt lat="44.89280602287853" lon="11.444621322164643"><ele>8.0</ele><time>2026-04-17T17:24:47.999Z</time></trkpt><trkpt lat="44.89286591414928" lon="11.444461190575609"><ele>8.0</ele><time>2026-04-17T17:24:48.999Z</time></trkpt><trkpt lat="44.89294665285275" lon="11.444309951103158"><ele>8.0</ele><time>2026-04-17T17:24:49.999Z</time></trkpt><trkpt lat="44.89304729334623" lon="11.444180191491272"><ele>8.0</ele><time>2026-04-17T17:24:50.999Z</time></trkpt><trkpt lat="44.89317255098072" lon="11.444058241565367"><ele>8.0</ele><time>2026-04-17T17:24:51.999Z</time></trkpt><trkpt lat="44.89332820837558" lon="11.443945735992083"><ele>8.0</ele><time>2026-04-17T17:24:52.999Z</time></trkpt><trkpt lat="44.89351280962452" lon="11.443844751352474"><ele>8.0</ele><time>2026-04-17T17:24:53.999Z</time></trkpt><trkpt lat="44.89372575398727" lon="11.44373959260355"><ele>8.0</ele><time>2026-04-17T17:24:54.999Z</time></trkpt><trkpt lat="44.89395636229679" lon="11.443625710875331"><ele>8.0</ele><time>2026-04-17T17:24:55.999Z</time></trkpt><trkpt lat="44.894224091031575" lon="11.443493568665694"><ele>8.0</ele><time>2026-04-17T17:24:56.999Z</time></trkpt><trkpt lat="44.89447007073663" lon="11.443371713379667"><ele>8.333333333333332</ele><time>2026-04-17T17:24:57.999Z</time></trkpt><trkpt lat="44.89466958020111" lon="11.443253096507675"><ele>8.666666666666666</ele><time>2026-04-17T17:24:58.999Z</time></trkpt><trkpt lat="44.89485405463014" lon="11.443165163315552"><ele>9.0</ele><time>2026-04-17T17:24:59.999Z</time></trkpt><trkpt lat="44.8950133605115" lon="11.443092851700916"><ele>8.8</ele><time>2026-04-17T17:25:00.999Z</time></trkpt><trkpt lat="44.895148210798595" lon="11.443032006316805"><ele>8.600000000000001</ele><time>2026-04-17T17:25:02Z</time></trkpt><trkpt lat="44.89525742012965" lon="11.442978745374317"><ele>8.4</ele><time>2026-04-17T17:25:03Z</time></trkpt><trkpt lat="44.8953427559644" lon="11.442936102530988"><ele>8.200000000000001</ele><time>2026-04-17T17:25:04Z</time></trkpt><trkpt lat="44.89541732332151" lon="11.442888602791903"><ele>8.0</ele><time>2026-04-17T17:25:05Z</time></trkpt><trkpt lat="44.89547683206194" lon="11.442830047201697"><ele>7.999999999999999</ele><time>2026-04-17T17:25:06Z</time></trkpt><trkpt lat="44.895502113996265" lon="11.442725740927697"><ele>8.0</ele><time>2026-04-17T17:25:07Z</time></trkpt><trkpt lat="44.8954958054012" lon="11.442629014982183"><ele>8.0</ele><time>2026-04-17T17:25:08Z</time></trkpt><trkpt lat="44.89547629339795" lon="11.442518345278822"><ele>8.0</ele><time>2026-04-17T17:25:09Z</time></trkpt><trkpt lat="44.89546392169255" lon="11.442392089819222"><ele>7.999999999999999</ele><time>2026-04-17T17:25:10Z</time></trkpt><trkpt lat="44.89545799452398" lon="11.442258089373922"><ele>8.0</ele><time>2026-04-17T17:25:11Z</time></trkpt><trkpt lat="44.895444614617034" lon="11.44213997598393"><ele>8.333333333333332</ele><time>2026-04-17T17:25:12Z</time></trkpt><trkpt lat="44.89543070283721" lon="11.442022752486134"><ele>8.666666666666666</ele><time>2026-04-17T17:25:13Z</time></trkpt><trkpt lat="44.895414916469136" lon="11.441909436449214"><ele>9.0</ele><time>2026-04-17T17:25:14Z</time></trkpt><trkpt lat="44.895400851039454" lon="11.441795939042667"><ele>9.333333333333334</ele><time>2026-04-17T17:25:15Z</time></trkpt><trkpt lat="44.89538669355257" lon="11.441681865204236"><ele>9.666666666666668</ele><time>2026-04-17T17:25:16Z</time></trkpt><trkpt lat="44.89537648453589" lon="11.441573609457004"><ele>10.0</ele><time>2026-04-17T17:25:17Z</time></trkpt><trkpt lat="44.895369211776206" lon="11.441461155962289"><ele>10.0</ele><time>2026-04-17T17:25:18Z</time></trkpt><trkpt lat="44.89535887628204" lon="11.441342160253704"><ele>10.0</ele><time>2026-04-17T17:25:19Z</time></trkpt><trkpt lat="44.895346488675685" lon="11.441218361990462"><ele>10.0</ele><time>2026-04-17T17:25:20Z</time></trkpt><trkpt lat="44.89533402652317" lon="11.44109164145156"><ele>10.0</ele><time>2026-04-17T17:25:21Z</time></trkpt><trkpt lat="44.89532035297258" lon="11.440977486646664"><ele>10.0</ele><time>2026-04-17T17:25:22Z</time></trkpt><trkpt lat="44.895302233950694" lon="11.440866284225716"><ele>10.0</ele><time>2026-04-17T17:25:23Z</time></trkpt><trkpt lat="44.895263451635614" lon="11.440774457456294"><ele>10.0</ele><time>2026-04-17T17:25:24Z</time></trkpt><trkpt lat="44.895202290389115" lon="11.440707921273523"><ele>10.0</ele><time>2026-04-17T17:25:25Z</time></trkpt><trkpt lat="44.89511140079646" lon="11.440660243033223"><ele>10.0</ele><time>2026-04-17T17:25:26Z</time></trkpt><trkpt lat="44.8949981304498" lon="11.44063220125128"><ele>10.0</ele><time>2026-04-17T17:25:27Z</time></trkpt><trkpt lat="44.89484771972919" lon="11.440613345044971"><ele>10.0</ele><time>2026-04-17T17:25:28Z</time></trkpt><trkpt lat="44.89466493119879" lon="11.440579190535896"><ele>9.5</ele><time>2026-04-17T17:25:29Z</time></trkpt><trkpt lat="44.8944441714058" lon="11.4405297803327"><ele>9.0</ele><time>2026-04-17T17:25:30Z</time></trkpt><trkpt lat="44.89421205661925" lon="11.440477057374679"><ele>8.666666666666666</ele><time>2026-04-17T17:25:31Z</time></trkpt><trkpt lat="44.89401845883865" lon="11.440433215399391"><ele>8.333333333333332</ele><time>2026-04-17T17:25:32Z</time></trkpt><trkpt lat="44.8938510509572" lon="11.440397705406939"><ele>8.0</ele><time>2026-04-17T17:25:33Z</time></trkpt><trkpt lat="44.893698233176515" lon="11.440368708663033"><ele>8.0</ele><time>2026-04-17T17:25:34Z</time></trkpt><trkpt lat="44.89355095486779" lon="11.440332592523323"><ele>8.0</ele><time>2026-04-17T17:25:35Z</time></trkpt><trkpt lat="44.89339784359903" lon="11.44027435285005"><ele>8.0</ele><time>2026-04-17T17:25:36Z</time></trkpt><trkpt lat="44.893235114412164" lon="11.440188139393893"><ele>8.666666666666666</ele><time>2026-04-17T17:25:37Z</time></trkpt><trkpt lat="44.8930803859039" lon="11.440086200572999"><ele>9.333333333333334</ele><time>2026-04-17T17:25:38Z</time></trkpt><trkpt lat="44.892938945065545" lon="11.439957861331543"><ele>10.0</ele><time>2026-04-17T17:25:39Z</time></trkpt><trkpt lat="44.89280798576846" lon="11.439802321644047"><ele>10.0</ele><time>2026-04-17T17:25:40Z</time></trkpt><trkpt lat="44.892686802128665" lon="11.439645920780801"><ele>10.0</ele><time>2026-04-17T17:25:41Z</time></trkpt><trkpt lat="44.89258290913988" lon="11.439476707103827"><ele>10.0</ele><time>2026-04-17T17:25:42Z</time></trkpt><trkpt lat="44.89249040277111" lon="11.439288234890448"><ele>9.666666666666668</ele><time>2026-04-17T17:25:43Z</time></trkpt><trkpt lat="44.89240107948985" lon="11.439073708637508"><ele>9.333333333333334</ele><time>2026-04-17T17:25:44Z</time></trkpt><trkpt lat="44.89231874188135" lon="11.438832167394892"><ele>9.0</ele><time>2026-04-17T17:25:45Z</time></trkpt><trkpt lat="44.892239524783946" lon="11.438589659070969"><ele>9.0</ele><time>2026-04-17T17:25:46Z</time></trkpt><trkpt lat="44.8921583788888" lon="11.438347261757377"><ele>9.0</ele><time>2026-04-17T17:25:47Z</time></trkpt><trkpt lat="44.8920774724408" lon="11.438106917781118"><ele>9.0</ele><time>2026-04-17T17:25:48Z</time></trkpt><trkpt lat="44.89199877521941" lon="11.43788042696812"><ele>9.0</ele><time>2026-04-17T17:25:49Z</time></trkpt><trkpt lat="44.891920186527386" lon="11.437658214686193"><ele>9.0</ele><time>2026-04-17T17:25:50Z</time></trkpt><trkpt lat="44.89184668729852" lon="11.437441320131782"><ele>9.0</ele><time>2026-04-17T17:25:51Z</time></trkpt><trkpt lat="44.89177181990112" lon="11.43721996547"><ele>8.666666666666666</ele><time>2026-04-17T17:25:52Z</time></trkpt><trkpt lat="44.89169820331301" lon="11.437010390338227"><ele>8.333333333333332</ele><time>2026-04-17T17:25:53Z</time></trkpt><trkpt lat="44.891628668588204" lon="11.43681814767178"><ele>8.0</ele><time>2026-04-17T17:25:54Z</time></trkpt><trkpt lat="44.89156538030363" lon="11.436628381208424"><ele>8.0</ele><time>2026-04-17T17:25:55Z</time></trkpt><trkpt lat="44.89149913384145" lon="11.43644651625579"><ele>8.0</ele><time>2026-04-17T17:25:56Z</time></trkpt><trkpt lat="44.89143751860916" lon="11.436264854475587"><ele>8.0</ele><time>2026-04-17T17:25:57Z</time></trkpt><trkpt lat="44.89137585792978" lon="11.436093307801048"><ele>8.0</ele><time>2026-04-17T17:25:58Z</time></trkpt><trkpt lat="44.891325510711354" lon="11.435942955062464"><ele>8.600000000000001</ele><time>2026-04-17T17:25:59Z</time></trkpt><trkpt lat="44.89128235341568" lon="11.435789240301167"><ele>9.200000000000001</ele><time>2026-04-17T17:26:00Z</time></trkpt><trkpt lat="44.89123273338184" lon="11.435658677215597"><ele>9.8</ele><time>2026-04-17T17:26:01Z</time></trkpt><trkpt lat="44.89119074621733" lon="11.435540912804274"><ele>10.4</ele><time>2026-04-17T17:26:02Z</time></trkpt><trkpt lat="44.891147484404584" lon="11.435426574676276"><ele>11.0</ele><time>2026-04-17T17:26:03Z</time></trkpt><trkpt lat="44.8911149570897" lon="11.435321362256609"><ele>11.0</ele><time>2026-04-17T17:26:04Z</time></trkpt><trkpt lat="44.89108343338186" lon="11.435216037751328"><ele>11.0</ele><time>2026-04-17T17:26:04.999Z</time></trkpt><trkpt lat="44.8910589516663" lon="11.435132207969204"><ele>11.0</ele><time>2026-04-17T17:26:05.999Z</time></trkpt><trkpt lat="44.891020741530724" lon="11.435000627375876"><ele>11.0</ele><time>2026-04-17T17:26:07.999Z</time></trkpt><trkpt lat="44.891040743189485" lon="11.43485432855763"><ele>11.0</ele><time>2026-04-17T17:26:09.999Z</time></trkpt><trkpt lat="44.891174680453986" lon="11.434790052873463"><ele>11.0</ele><time>2026-04-17T17:26:10.999Z</time></trkpt><trkpt lat="44.891266817105404" lon="11.434739949449414"><ele>11.0</ele><time>2026-04-17T17:26:11.999Z</time></trkpt><trkpt lat="44.891375074142694" lon="11.434675635904009"><ele>11.0</ele><time>2026-04-17T17:26:12.999Z</time></trkpt><trkpt lat="44.89148180635648" lon="11.434609288556617"><ele>11.0</ele><time>2026-04-17T17:26:13.999Z</time></trkpt><trkpt lat="44.89157972751249" lon="11.434544404252721"><ele>11.0</ele><time>2026-04-17T17:26:14.999Z</time></trkpt><trkpt lat="44.891680097975836" lon="11.434482033457506"><ele>10.5</ele><time>2026-04-17T17:26:15.999Z</time></trkpt><trkpt lat="44.89177299896206" lon="11.434429692356249"><ele>10.0</ele><time>2026-04-17T17:26:16.999Z</time></trkpt><trkpt lat="44.891856912776646" lon="11.43438316686871"><ele>9.5</ele><time>2026-04-17T17:26:17.999Z</time></trkpt><trkpt lat="44.89193707648576" lon="11.434335691076665"><ele>9.0</ele><time>2026-04-17T17:26:18.999Z</time></trkpt><trkpt lat="44.89200918505563" lon="11.434282819291822"><ele>8.5</ele><time>2026-04-17T17:26:19.999Z</time></trkpt><trkpt lat="44.892067251841766" lon="11.434243728549726"><ele>8.0</ele><time>2026-04-17T17:26:20.999Z</time></trkpt><trkpt lat="44.89212284945167" lon="11.434196057810887"><ele>7.999999999999999</ele><time>2026-04-17T17:26:21.999Z</time></trkpt><trkpt lat="44.89218904110766" lon="11.4340551397463"><ele>8.0</ele><time>2026-04-17T17:26:23.999Z</time></trkpt><trkpt lat="44.89216258584485" lon="11.43396046977965"><ele>8.0</ele><time>2026-04-17T17:26:24.999Z</time></trkpt><trkpt lat="44.8921297844771" lon="11.433878380209528"><ele>8.0</ele><time>2026-04-17T17:26:25.999Z</time></trkpt><trkpt lat="44.89209096435432" lon="11.433769461312462"><ele>7.999999999999999</ele><time>2026-04-17T17:26:26.999Z</time></trkpt><trkpt lat="44.89204130400001" lon="11.433658283420268"><ele>8.0</ele><time>2026-04-17T17:26:27.999Z</time></trkpt><trkpt lat="44.89198767202401" lon="11.433532368441483"><ele>8.0</ele><time>2026-04-17T17:26:28.999Z</time></trkpt><trkpt lat="44.891937584288215" lon="11.433398739764298"><ele>8.0</ele><time>2026-04-17T17:26:29.999Z</time></trkpt><trkpt lat="44.89188002688647" lon="11.433253735540987"><ele>8.0</ele><time>2026-04-17T17:26:30.999Z</time></trkpt><trkpt lat="44.891829339769416" lon="11.433106866074898"><ele>8.0</ele><time>2026-04-17T17:26:31.999Z</time></trkpt><trkpt lat="44.89177757297049" lon="11.432966231404478"><ele>8.4</ele><time>2026-04-17T17:26:32.999Z</time></trkpt><trkpt lat="44.89172692526661" lon="11.432832681304431"><ele>8.8</ele><time>2026-04-17T17:26:33.999Z</time></trkpt><trkpt lat="44.89167612485805" lon="11.43269495698521"><ele>9.2</ele><time>2026-04-17T17:26:34.999Z</time></trkpt><trkpt lat="44.89162520337947" lon="11.432560120075708"><ele>9.6</ele><time>2026-04-17T17:26:35.999Z</time></trkpt><trkpt lat="44.89157835464979" lon="11.432433655758432"><ele>10.0</ele><time>2026-04-17T17:26:36.999Z</time></trkpt><trkpt lat="44.89153195472039" lon="11.432304549874079"><ele>10.0</ele><time>2026-04-17T17:26:37.999Z</time></trkpt><trkpt lat="44.8914840138253" lon="11.432185547188118"><ele>10.0</ele><time>2026-04-17T17:26:38.999Z</time></trkpt><trkpt lat="44.8914393995545" lon="11.432065137160654"><ele>10.0</ele><time>2026-04-17T17:26:39.999Z</time></trkpt><trkpt lat="44.89138925920573" lon="11.431943599480272"><ele>10.0</ele><time>2026-04-17T17:26:40.999Z</time></trkpt><trkpt lat="44.8913408916134" lon="11.431819752455505"><ele>10.0</ele><time>2026-04-17T17:26:41.999Z</time></trkpt><trkpt lat="44.89130213444985" lon="11.431720863830444"><ele>10.166666666666668</ele><time>2026-04-17T17:26:42.999Z</time></trkpt><trkpt lat="44.8912700048703" lon="11.431616599130134"><ele>10.333333333333334</ele><time>2026-04-17T17:26:43.999Z</time></trkpt><trkpt lat="44.89123450221473" lon="11.431516197087449"><ele>10.5</ele><time>2026-04-17T17:26:44.999Z</time></trkpt><trkpt lat="44.891194882202576" lon="11.431421037168503"><ele>10.666666666666666</ele><time>2026-04-17T17:26:45.999Z</time></trkpt><trkpt lat="44.89116145260558" lon="11.431327132345949"><ele>10.833333333333332</ele><time>2026-04-17T17:26:46.999Z</time></trkpt><trkpt lat="44.89113790086713" lon="11.431241673631863"><ele>11.0</ele><time>2026-04-17T17:26:47.999Z</time></trkpt><trkpt lat="44.89109871665034" lon="11.431118279748462"><ele>11.0</ele><time>2026-04-17T17:26:49.999Z</time></trkpt><trkpt lat="44.891052439268655" lon="11.431044359134745"><ele>11.0</ele><time>2026-04-17T17:28:12.999Z</time></trkpt><trkpt lat="44.891008210912325" lon="11.430958574678646"><ele>11.0</ele><time>2026-04-17T17:28:14.999Z</time></trkpt><trkpt lat="44.89096772946237" lon="11.430844055341883"><ele>11.0</ele><time>2026-04-17T17:28:15.999Z</time></trkpt><trkpt lat="44.89093408970181" lon="11.430766986232154"><ele>11.0</ele><time>2026-04-17T17:28:16.999Z</time></trkpt><trkpt lat="44.8908997192996" lon="11.430680705774042"><ele>11.0</ele><time>2026-04-17T17:28:17.999Z</time></trkpt><trkpt lat="44.890862509445704" lon="11.430585910489492"><ele>11.0</ele><time>2026-04-17T17:28:18.999Z</time></trkpt><trkpt lat="44.89082143786143" lon="11.430479333268888"><ele>11.333333333333332</ele><time>2026-04-17T17:28:19.999Z</time></trkpt><trkpt lat="44.890783777194756" lon="11.430374863327973"><ele>11.666666666666666</ele><time>2026-04-17T17:28:20.999Z</time></trkpt><trkpt lat="44.890751822164006" lon="11.430281775765213"><ele>12.0</ele><time>2026-04-17T17:28:21.999Z</time></trkpt><trkpt lat="44.89070169761351" lon="11.430136210060578"><ele>12.333333333333332</ele><time>2026-04-17T17:28:23.999Z</time></trkpt><trkpt lat="44.8906736484254" lon="11.430047166014717"><ele>12.666666666666666</ele><time>2026-04-17T17:28:25.999Z</time></trkpt><trkpt lat="44.890644909731556" lon="11.429962117400548"><ele>13.0</ele><time>2026-04-17T17:28:30.999Z</time></trkpt><trkpt lat="44.89055978431352" lon="11.429892631306824"><ele>13.0</ele><time>2026-04-17T17:28:32.999Z</time></trkpt><trkpt lat="44.89046982458625" lon="11.42990597887761"><ele>13.0</ele><time>2026-04-17T17:28:33.999Z</time></trkpt><trkpt lat="44.89036006442517" lon="11.42992011278226"><ele>13.0</ele><time>2026-04-17T17:28:34.999Z</time></trkpt><trkpt lat="44.89024589260996" lon="11.4299307935978"><ele>13.0</ele><time>2026-04-17T17:28:35.999Z</time></trkpt><trkpt lat="44.890133241073954" lon="11.429943922253765"><ele>13.0</ele><time>2026-04-17T17:28:36.999Z</time></trkpt><trkpt lat="44.89001251665598" lon="11.429961615014337"><ele>12.75</ele><time>2026-04-17T17:28:37.999Z</time></trkpt><trkpt lat="44.88988177067774" lon="11.42997866197785"><ele>12.5</ele><time>2026-04-17T17:28:38.999Z</time></trkpt><trkpt lat="44.88973888458568" lon="11.430000075183909"><ele>12.25</ele><time>2026-04-17T17:28:39.999Z</time></trkpt><trkpt lat="44.88958917737529" lon="11.43002703607294"><ele>12.0</ele><time>2026-04-17T17:28:40.999Z</time></trkpt><trkpt lat="44.88944025958382" lon="11.430052006134936"><ele>12.0</ele><time>2026-04-17T17:28:41.999Z</time></trkpt><trkpt lat="44.8892897840486" lon="11.430073705106096"><ele>12.0</ele><time>2026-04-17T17:28:42.999Z</time></trkpt><trkpt lat="44.88913877430357" lon="11.430097560214868"><ele>12.0</ele><time>2026-04-17T17:28:43.999Z</time></trkpt><trkpt lat="44.88899248422716" lon="11.430120167568107"><ele>11.75</ele><time>2026-04-17T17:28:44.999Z</time></trkpt><trkpt lat="44.888843644866974" lon="11.430142982103332"><ele>11.5</ele><time>2026-04-17T17:28:45.999Z</time></trkpt><trkpt lat="44.88870396670584" lon="11.430162699262343"><ele>11.25</ele><time>2026-04-17T17:28:46.999Z</time></trkpt><trkpt lat="44.888579655109154" lon="11.430181783916279"><ele>11.0</ele><time>2026-04-17T17:28:47.999Z</time></trkpt><trkpt lat="44.888464530082416" lon="11.430193908053338"><ele>11.25</ele><time>2026-04-17T17:28:48.999Z</time></trkpt><trkpt lat="44.888352516849565" lon="11.43020543613807"><ele>11.5</ele><time>2026-04-17T17:28:49.999Z</time></trkpt><trkpt lat="44.88823759410806" lon="11.430214013356382"><ele>11.75</ele><time>2026-04-17T17:28:50.999Z</time></trkpt><trkpt lat="44.888113782054056" lon="11.430215233582802"><ele>12.0</ele><time>2026-04-17T17:28:51.999Z</time></trkpt><trkpt lat="44.88798129908285" lon="11.430209161626797"><ele>12.0</ele><time>2026-04-17T17:28:52.999Z</time></trkpt><trkpt lat="44.88784326934809" lon="11.430200299975313"><ele>12.0</ele><time>2026-04-17T17:28:53.999Z</time></trkpt><trkpt lat="44.88769850870269" lon="11.430188758159307"><ele>12.0</ele><time>2026-04-17T17:28:54.999Z</time></trkpt><trkpt lat="44.88754879569008" lon="11.430172558282825"><ele>12.0</ele><time>2026-04-17T17:28:55.999Z</time></trkpt><trkpt lat="44.88739311653952" lon="11.430152840501165"><ele>12.333333333333332</ele><time>2026-04-17T17:28:56.999Z</time></trkpt><trkpt lat="44.88723863907056" lon="11.430132079062323"><ele>12.666666666666666</ele><time>2026-04-17T17:28:57.999Z</time></trkpt><trkpt lat="44.88708233705943" lon="11.430108357161052"><ele>13.0</ele><time>2026-04-17T17:28:58.999Z</time></trkpt><trkpt lat="44.88692728473695" lon="11.430083322387203"><ele>13.0</ele><time>2026-04-17T17:28:59.999Z</time></trkpt><trkpt lat="44.88677420758172" lon="11.430061465411795"><ele>13.0</ele><time>2026-04-17T17:29:00.999Z</time></trkpt><trkpt lat="44.886618763980174" lon="11.430042925430591"><ele>13.0</ele><time>2026-04-17T17:29:01.999Z</time></trkpt><trkpt lat="44.88645537377147" lon="11.430032226703394"><ele>12.666666666666666</ele><time>2026-04-17T17:29:02.999Z</time></trkpt><trkpt lat="44.886294342210135" lon="11.430023532064853"><ele>12.333333333333332</ele><time>2026-04-17T17:29:03.999Z</time></trkpt><trkpt lat="44.88613501791584" lon="11.430012407669535"><ele>12.0</ele><time>2026-04-17T17:29:04.999Z</time></trkpt><trkpt lat="44.8859769211052" lon="11.430000487965167"><ele>11.333333333333334</ele><time>2026-04-17T17:29:05.999Z</time></trkpt><trkpt lat="44.88581996937918" lon="11.429988603757788"><ele>10.666666666666668</ele><time>2026-04-17T17:29:06.999Z</time></trkpt><trkpt lat="44.88566378716653" lon="11.429972160898654"><ele>10.0</ele><time>2026-04-17T17:29:07.999Z</time></trkpt><trkpt lat="44.88550720724011" lon="11.429957837540325"><ele>10.0</ele><time>2026-04-17T17:29:08.999Z</time></trkpt><trkpt lat="44.88535488663702" lon="11.429941116250534"><ele>10.0</ele><time>2026-04-17T17:29:09.999Z</time></trkpt><trkpt lat="44.88520789152366" lon="11.42992181834744"><ele>10.0</ele><time>2026-04-17T17:29:10.999Z</time></trkpt><trkpt lat="44.88506612213397" lon="11.429896609619387"><ele>10.0</ele><time>2026-04-17T17:29:11.999Z</time></trkpt><trkpt lat="44.884931837333376" lon="11.429859056156666"><ele>11.0</ele><time>2026-04-17T17:29:12.999Z</time></trkpt><trkpt lat="44.88480633468442" lon="11.42981571105666"><ele>12.0</ele><time>2026-04-17T17:29:14Z</time></trkpt><trkpt lat="44.884684858759265" lon="11.429756475750763"><ele>13.0</ele><time>2026-04-17T17:29:15Z</time></trkpt><trkpt lat="44.884571094701094" lon="11.429679131254574"><ele>14.0</ele><time>2026-04-17T17:29:16Z</time></trkpt><trkpt lat="44.884468497813074" lon="11.429586296984473"><ele>14.0</ele><time>2026-04-17T17:29:17Z</time></trkpt><trkpt lat="44.884383324933005" lon="11.429479236678684"><ele>13.999999999999998</ele><time>2026-04-17T17:29:18Z</time></trkpt><trkpt lat="44.88431073015418" lon="11.429364363793502"><ele>13.999999999999998</ele><time>2026-04-17T17:29:19Z</time></trkpt><trkpt lat="44.88424279091172" lon="11.429238530078473"><ele>14.0</ele><time>2026-04-17T17:29:20Z</time></trkpt><trkpt lat="44.88418287598191" lon="11.429104375280417"><ele>14.0</ele><time>2026-04-17T17:29:21Z</time></trkpt><trkpt lat="44.88413771178927" lon="11.42897115717584"><ele>13.6</ele><time>2026-04-17T17:29:22Z</time></trkpt><trkpt lat="44.88410398229765" lon="11.428840930314472"><ele>13.2</ele><time>2026-04-17T17:29:23Z</time></trkpt><trkpt lat="44.88407729604153" lon="11.428713052403932"><ele>12.799999999999999</ele><time>2026-04-17T17:29:24Z</time></trkpt><trkpt lat="44.88405982957069" lon="11.42858860543376"><ele>12.399999999999999</ele><time>2026-04-17T17:29:25Z</time></trkpt><trkpt lat="44.88404515125636" lon="11.428472312109479"><ele>12.0</ele><time>2026-04-17T17:29:26Z</time></trkpt><trkpt lat="44.88398061225008" lon="11.428358963308442"><ele>12.0</ele><time>2026-04-17T17:29:28Z</time></trkpt><trkpt lat="44.883931610084765" lon="11.428301779227803"><ele>12.0</ele><time>2026-04-17T17:29:30Z</time></trkpt><trkpt lat="44.883997012379254" lon="11.428150858113584"><ele>12.0</ele><time>2026-04-17T17:29:31Z</time></trkpt><trkpt lat="44.8840204720936" lon="11.428014328205087"><ele>12.0</ele><time>2026-04-17T17:29:33Z</time></trkpt><trkpt lat="44.88405193334065" lon="11.427921266735105"><ele>12.0</ele><time>2026-04-17T17:29:34Z</time></trkpt><trkpt lat="44.88408701276133" lon="11.427818778774759"><ele>12.0</ele><time>2026-04-17T17:29:35Z</time></trkpt><trkpt lat="44.88412480285799" lon="11.427712076421841"><ele>12.0</ele><time>2026-04-17T17:29:36Z</time></trkpt><trkpt lat="44.884160976288236" lon="11.42760715617435"><ele>12.0</ele><time>2026-04-17T17:29:37Z</time></trkpt><trkpt lat="44.8841941563792" lon="11.427510477168479"><ele>12.0</ele><time>2026-04-17T17:29:38Z</time></trkpt><trkpt lat="44.884226555762886" lon="11.427421109239638"><ele>12.0</ele><time>2026-04-17T17:29:39Z</time></trkpt><trkpt lat="44.88427279759979" lon="11.427279147166029"><ele>12.0</ele><time>2026-04-17T17:29:41Z</time></trkpt><trkpt lat="44.88429936824918" lon="11.427198232638544"><ele>12.0</ele><time>2026-04-17T17:29:43Z</time></trkpt><trkpt lat="44.884186808805964" lon="11.427071801577036"><ele>12.2</ele><time>2026-04-17T17:29:48Z</time></trkpt><trkpt lat="44.884085916289195" lon="11.427035983876214"><ele>12.399999999999999</ele><time>2026-04-17T17:29:50Z</time></trkpt><trkpt lat="44.88399185685845" lon="11.426994104362231"><ele>12.600000000000001</ele><time>2026-04-17T17:29:52Z</time></trkpt><trkpt lat="44.8838763315539" lon="11.426946192893789"><ele>12.8</ele><time>2026-04-17T17:29:54Z</time></trkpt><trkpt lat="44.883785030535385" lon="11.426903109249595"><ele>13.0</ele><time>2026-04-17T17:29:55Z</time></trkpt><trkpt lat="44.8836845183511" lon="11.426855570889114"><ele>13.0</ele><time>2026-04-17T17:29:56Z</time></trkpt><trkpt lat="44.88358846319523" lon="11.42681262314626"><ele>13.0</ele><time>2026-04-17T17:29:57Z</time></trkpt><trkpt lat="44.883499099623386" lon="11.426774983232132"><ele>13.0</ele><time>2026-04-17T17:29:58Z</time></trkpt><trkpt lat="44.8834061964676" lon="11.426738394235091"><ele>13.0</ele><time>2026-04-17T17:29:59Z</time></trkpt><trkpt lat="44.883312726247865" lon="11.42670286932786"><ele>13.0</ele><time>2026-04-17T17:30:00Z</time></trkpt><trkpt lat="44.883223179958115" lon="11.42665821551587"><ele>13.0</ele><time>2026-04-17T17:30:01Z</time></trkpt><trkpt lat="44.88311162491383" lon="11.426615040091752"><ele>13.0</ele><time>2026-04-17T17:30:02Z</time></trkpt><trkpt lat="44.88300351894907" lon="11.426549875934684"><ele>13.0</ele><time>2026-04-17T17:30:03Z</time></trkpt><trkpt lat="44.88288993587805" lon="11.426499193975506"><ele>13.0</ele><time>2026-04-17T17:30:04Z</time></trkpt><trkpt lat="44.88278740286488" lon="11.426453442674095"><ele>13.0</ele><time>2026-04-17T17:30:05Z</time></trkpt><trkpt lat="44.88266704919571" lon="11.426399739611833"><ele>13.0</ele><time>2026-04-17T17:30:06Z</time></trkpt><trkpt lat="44.88257603443495" lon="11.426368710360538"><ele>13.0</ele><time>2026-04-17T17:30:08Z</time></trkpt><trkpt lat="44.88250832440432" lon="11.426340389077382"><ele>13.0</ele><time>2026-04-17T17:30:09Z</time></trkpt><trkpt lat="44.88239415906387" lon="11.426285165757205"><ele>13.0</ele><time>2026-04-17T17:30:11Z</time></trkpt><trkpt lat="44.88233222599252" lon="11.426253070311366"><ele>12.8</ele><time>2026-04-17T17:30:11.999Z</time></trkpt><trkpt lat="44.882252975133916" lon="11.42621502990582"><ele>12.600000000000001</ele><time>2026-04-17T17:30:12.999Z</time></trkpt><trkpt lat="44.88216918940315" lon="11.42616888223617"><ele>12.399999999999999</ele><time>2026-04-17T17:30:13.999Z</time></trkpt><trkpt lat="44.8820757140633" lon="11.42612607395384"><ele>12.2</ele><time>2026-04-17T17:30:14.999Z</time></trkpt><trkpt lat="44.88198290935559" lon="11.426085617905342"><ele>12.0</ele><time>2026-04-17T17:30:15.999Z</time></trkpt><trkpt lat="44.88188566041688" lon="11.426042745057769"><ele>12.0</ele><time>2026-04-17T17:30:16.999Z</time></trkpt><trkpt lat="44.88179140541778" lon="11.425999889217684"><ele>12.0</ele><time>2026-04-17T17:30:17.999Z</time></trkpt><trkpt lat="44.88169407178486" lon="11.42595440668385"><ele>12.0</ele><time>2026-04-17T17:30:18.999Z</time></trkpt><trkpt lat="44.88160361104137" lon="11.425912811752678"><ele>12.0</ele><time>2026-04-17T17:30:19.999Z</time></trkpt><trkpt lat="44.88152341605758" lon="11.425877407174571"><ele>12.0</ele><time>2026-04-17T17:30:20.999Z</time></trkpt><trkpt lat="44.88144839922467" lon="11.425843527868183"><ele>12.0</ele><time>2026-04-17T17:30:21.999Z</time></trkpt><trkpt lat="44.88137253380775" lon="11.425820765461912"><ele>12.0</ele><time>2026-04-17T17:30:22.999Z</time></trkpt><trkpt lat="44.88129812522407" lon="11.425786312375834"><ele>12.0</ele><time>2026-04-17T17:30:23.999Z</time></trkpt><trkpt lat="44.88122325561063" lon="11.42575643246656"><ele>12.0</ele><time>2026-04-17T17:30:24.999Z</time></trkpt><trkpt lat="44.88114699229647" lon="11.42572580146037"><ele>12.0</ele><time>2026-04-17T17:30:25.999Z</time></trkpt><trkpt lat="44.881067203323376" lon="11.425691427004736"><ele>12.0</ele><time>2026-04-17T17:30:26.999Z</time></trkpt><trkpt lat="44.88098435314063" lon="11.425659133768086"><ele>11.833333333333334</ele><time>2026-04-17T17:30:27.999Z</time></trkpt><trkpt lat="44.880909849253" lon="11.425613074815983"><ele>11.666666666666666</ele><time>2026-04-17T17:30:28.999Z</time></trkpt><trkpt lat="44.88083116820203" lon="11.425584373335884"><ele>11.5</ele><time>2026-04-17T17:30:29.999Z</time></trkpt><trkpt lat="44.880750580859576" lon="11.425549525788515"><ele>11.333333333333332</ele><time>2026-04-17T17:30:30.999Z</time></trkpt><trkpt lat="44.880679010145485" lon="11.425516096636196"><ele>11.166666666666666</ele><time>2026-04-17T17:30:31.999Z</time></trkpt><trkpt lat="44.88061037238804" lon="11.42548583809546"><ele>11.0</ele><time>2026-04-17T17:30:32.999Z</time></trkpt><trkpt lat="44.88048724870424" lon="11.425429019003523"><ele>11.4</ele><time>2026-04-17T17:30:34.999Z</time></trkpt><trkpt lat="44.88037469037622" lon="11.425380523500834"><ele>11.8</ele><time>2026-04-17T17:30:36.999Z</time></trkpt><trkpt lat="44.88024627316729" lon="11.425330174104673"><ele>12.200000000000001</ele><time>2026-04-17T17:30:38.999Z</time></trkpt><trkpt lat="44.88017071609207" lon="11.425298178259027"><ele>12.600000000000001</ele><time>2026-04-17T17:30:39.999Z</time></trkpt><trkpt lat="44.88009243800727" lon="11.4252669423188"><ele>13.0</ele><time>2026-04-17T17:30:40.999Z</time></trkpt><trkpt lat="44.8800083898881" lon="11.425238428412507"><ele>12.999999999999998</ele><time>2026-04-17T17:30:41.999Z</time></trkpt><trkpt lat="44.87992490872721" lon="11.425194660750352"><ele>13.0</ele><time>2026-04-17T17:30:42.999Z</time></trkpt><trkpt lat="44.879863593175486" lon="11.425172709905283"><ele>13.0</ele><time>2026-04-17T17:30:43.999Z</time></trkpt><trkpt lat="44.8797949690275" lon="11.425137826400045"><ele>13.0</ele><time>2026-04-17T17:30:45.999Z</time></trkpt><trkpt lat="44.87972950303624" lon="11.425109687956134"><ele>12.999999999999998</ele><time>2026-04-17T17:30:50.999Z</time></trkpt><trkpt lat="44.87963121100284" lon="11.425071977232612"><ele>13.0</ele><time>2026-04-17T17:30:53.999Z</time></trkpt><trkpt lat="44.87954415370236" lon="11.42503245567712"><ele>13.0</ele><time>2026-04-17T17:30:55.999Z</time></trkpt><trkpt lat="44.87944359151571" lon="11.424985451598008"><ele>13.0</ele><time>2026-04-17T17:30:57.999Z</time></trkpt><trkpt lat="44.87933111201079" lon="11.424934684055755"><ele>13.0</ele><time>2026-04-17T17:30:59.999Z</time></trkpt><trkpt lat="44.87926897000673" lon="11.424905472937477"><ele>13.0</ele><time>2026-04-17T17:31:00.999Z</time></trkpt><trkpt lat="44.879206204471075" lon="11.424883273987621"><ele>13.0</ele><time>2026-04-17T17:31:01.999Z</time></trkpt><trkpt lat="44.87910126778729" lon="11.424831885071647"><ele>12.499999999999998</ele><time>2026-04-17T17:31:03.999Z</time></trkpt><trkpt lat="44.879022926480104" lon="11.424797877996252"><ele>12.0</ele><time>2026-04-17T17:31:05.999Z</time></trkpt><trkpt lat="44.87897194666073" lon="11.424744454296269"><ele>11.5</ele><time>2026-04-17T17:31:07.999Z</time></trkpt><trkpt lat="44.87896199465258" lon="11.424622461575039"><ele>11.0</ele><time>2026-04-17T17:31:09.999Z</time></trkpt><trkpt lat="44.87898665179088" lon="11.424531737199812"><ele>10.5</ele><time>2026-04-17T17:31:10.999Z</time></trkpt><trkpt lat="44.8790123883861" lon="11.424415659726286"><ele>10.0</ele><time>2026-04-17T17:31:11.999Z</time></trkpt><trkpt lat="44.879045873764966" lon="11.42425907408487"><ele>9.5</ele><time>2026-04-17T17:31:12.999Z</time></trkpt><trkpt lat="44.87907653953828" lon="11.424113911905208"><ele>9.0</ele><time>2026-04-17T17:31:13.999Z</time></trkpt><trkpt lat="44.879109459246294" lon="11.423958468532845"><ele>8.5</ele><time>2026-04-17T17:31:14.999Z</time></trkpt><trkpt lat="44.87914276868012" lon="11.423799801081174"><ele>8.0</ele><time>2026-04-17T17:31:15.999Z</time></trkpt><trkpt lat="44.87918217069003" lon="11.423633403950614"><ele>7.75</ele><time>2026-04-17T17:31:16.999Z</time></trkpt><trkpt lat="44.87921670426381" lon="11.423465508779516"><ele>7.5</ele><time>2026-04-17T17:31:17.999Z</time></trkpt><trkpt lat="44.87925586582609" lon="11.42328544825359"><ele>7.25</ele><time>2026-04-17T17:31:18.999Z</time></trkpt><trkpt lat="44.87929449454637" lon="11.423112341216726"><ele>7.0</ele><time>2026-04-17T17:31:20Z</time></trkpt><trkpt lat="44.87933311722735" lon="11.42293339062344"><ele>8.5</ele><time>2026-04-17T17:31:21Z</time></trkpt><trkpt lat="44.87937081171444" lon="11.422753956736711"><ele>10.0</ele><time>2026-04-17T17:31:22Z</time></trkpt><trkpt lat="44.87941304519287" lon="11.422571643097816"><ele>11.5</ele><time>2026-04-17T17:31:23Z</time></trkpt><trkpt lat="44.879451981882006" lon="11.42239773885779"><ele>13.0</ele><time>2026-04-17T17:31:24Z</time></trkpt><trkpt lat="44.87948778642095" lon="11.422236541745258"><ele>11.75</ele><time>2026-04-17T17:31:25Z</time></trkpt><trkpt lat="44.879532607704625" lon="11.422059811299029"><ele>10.5</ele><time>2026-04-17T17:31:26Z</time></trkpt><trkpt lat="44.87958207261294" lon="11.421855140855072"><ele>9.25</ele><time>2026-04-17T17:31:27Z</time></trkpt><trkpt lat="44.879640428196346" lon="11.421649767076408"><ele>8.0</ele><time>2026-04-17T17:31:28Z</time></trkpt><trkpt lat="44.879704774477" lon="11.421437065652805"><ele>8.0</ele><time>2026-04-17T17:31:29Z</time></trkpt><trkpt lat="44.87977135728978" lon="11.421235467121187"><ele>8.0</ele><time>2026-04-17T17:31:30Z</time></trkpt><trkpt lat="44.87984817707648" lon="11.421010507553765"><ele>8.0</ele><time>2026-04-17T17:31:31Z</time></trkpt><trkpt lat="44.87991909497646" lon="11.42078621307186"><ele>8.0</ele><time>2026-04-17T17:31:32Z</time></trkpt><trkpt lat="44.87999196149963" lon="11.420573270059394"><ele>8.0</ele><time>2026-04-17T17:31:33Z</time></trkpt><trkpt lat="44.880063629067884" lon="11.420358868326629"><ele>8.0</ele><time>2026-04-17T17:31:34Z</time></trkpt><trkpt lat="44.880128844937445" lon="11.420162262010287"><ele>7.75</ele><time>2026-04-17T17:31:35Z</time></trkpt><trkpt lat="44.880187203955295" lon="11.419988395485252"><ele>7.5</ele><time>2026-04-17T17:31:36Z</time></trkpt><trkpt lat="44.880239946150965" lon="11.419820702467941"><ele>7.25</ele><time>2026-04-17T17:31:37Z</time></trkpt><trkpt lat="44.88029661984891" lon="11.419672757319272"><ele>7.0</ele><time>2026-04-17T17:31:38Z</time></trkpt><trkpt lat="44.88034545894432" lon="11.419525622147347"><ele>7.0</ele><time>2026-04-17T17:31:39Z</time></trkpt><trkpt lat="44.88039793760989" lon="11.419370807330006"><ele>7.0</ele><time>2026-04-17T17:31:40Z</time></trkpt><trkpt lat="44.880456294583084" lon="11.419199826394292"><ele>7.0</ele><time>2026-04-17T17:31:41Z</time></trkpt><trkpt lat="44.88052060854516" lon="11.419014044725902"><ele>7.0</ele><time>2026-04-17T17:31:42Z</time></trkpt><trkpt lat="44.88058720889334" lon="11.41882382896944"><ele>7.25</ele><time>2026-04-17T17:31:43Z</time></trkpt><trkpt lat="44.88065580057621" lon="11.418625544019871"><ele>7.5</ele><time>2026-04-17T17:31:44Z</time></trkpt><trkpt lat="44.880718720372556" lon="11.418444783591749"><ele>7.75</ele><time>2026-04-17T17:31:45Z</time></trkpt><trkpt lat="44.88077610967409" lon="11.418276568043527"><ele>8.0</ele><time>2026-04-17T17:31:46Z</time></trkpt><trkpt lat="44.88082640549188" lon="11.41812910522287"><ele>7.999999999999999</ele><time>2026-04-17T17:31:47Z</time></trkpt><trkpt lat="44.88087176363122" lon="11.417995198693848"><ele>8.0</ele><time>2026-04-17T17:31:48Z</time></trkpt><trkpt lat="44.880911870456494" lon="11.417881938657626"><ele>8.0</ele><time>2026-04-17T17:31:49Z</time></trkpt><trkpt lat="44.88094942091823" lon="11.417782492248243"><ele>8.0</ele><time>2026-04-17T17:31:50Z</time></trkpt><trkpt lat="44.880994751964856" lon="11.417701050227477"><ele>7.999999999999999</ele><time>2026-04-17T17:31:51Z</time></trkpt><trkpt lat="44.88104511527671" lon="11.417643589601829"><ele>8.0</ele><time>2026-04-17T17:31:52Z</time></trkpt><trkpt lat="44.88111256815218" lon="11.41752855420999"><ele>8.8</ele><time>2026-04-17T17:31:54Z</time></trkpt><trkpt lat="44.88115733185966" lon="11.417407343165495"><ele>9.600000000000001</ele><time>2026-04-17T17:31:56Z</time></trkpt><trkpt lat="44.88118989270396" lon="11.41731181409609"><ele>10.399999999999999</ele><time>2026-04-17T17:31:58Z</time></trkpt><trkpt lat="44.881188360978065" lon="11.417220435679264"><ele>11.2</ele><time>2026-04-17T17:32:02Z</time></trkpt><trkpt lat="44.88112491987329" lon="11.417219001060259"><ele>12.0</ele><time>2026-04-17T17:32:06Z</time></trkpt><trkpt lat="44.88113142978952" lon="11.417501213735015"><ele>12.0</ele><time>2026-04-17T17:32:08Z</time></trkpt><trkpt lat="44.880969691639265" lon="11.417610389442144"><ele>12.0</ele><time>2026-04-17T17:32:09Z</time></trkpt><trkpt lat="44.880894913615975" lon="11.417824313222019"><ele>12.0</ele><time>2026-04-17T17:32:10Z</time></trkpt><trkpt lat="44.880811285440316" lon="11.418049323204993"><ele>10.666666666666666</ele><time>2026-04-17T17:32:11Z</time></trkpt><trkpt lat="44.880717514932726" lon="11.4183201105517"><ele>9.333333333333332</ele><time>2026-04-17T17:32:12Z</time></trkpt><trkpt lat="44.88063186376892" lon="11.418580682075392"><ele>8.0</ele><time>2026-04-17T17:32:13Z</time></trkpt><trkpt lat="44.88056263625661" lon="11.41877789446938"><ele>7.75</ele><time>2026-04-17T17:32:14Z</time></trkpt><trkpt lat="44.880499827563476" lon="11.418949203386102"><ele>7.5</ele><time>2026-04-17T17:32:15Z</time></trkpt><trkpt lat="44.88044308620744" lon="11.419108175897414"><ele>7.25</ele><time>2026-04-17T17:32:15.999Z</time></trkpt><trkpt lat="44.88039280518246" lon="11.41925377302171"><ele>7.0</ele><time>2026-04-17T17:32:16.999Z</time></trkpt><trkpt lat="44.88034896341007" lon="11.419382028116164"><ele>7.0</ele><time>2026-04-17T17:32:17.999Z</time></trkpt><trkpt lat="44.88031104353925" lon="11.419492091753177"><ele>6.999999999999999</ele><time>2026-04-17T17:32:18.999Z</time></trkpt><trkpt lat="44.88027356958682" lon="11.419604025196898"><ele>6.999999999999999</ele><time>2026-04-17T17:32:19.999Z</time></trkpt><trkpt lat="44.88023153215618" lon="11.419724437069691"><ele>7.0</ele><time>2026-04-17T17:32:20.999Z</time></trkpt><trkpt lat="44.880175776472626" lon="11.419885637229099"><ele>7.0</ele><time>2026-04-17T17:32:21.999Z</time></trkpt><trkpt lat="44.880112488400705" lon="11.420072885000527"><ele>7.166666666666667</ele><time>2026-04-17T17:32:22.999Z</time></trkpt><trkpt lat="44.880060516490886" lon="11.4202178273149"><ele>7.333333333333334</ele><time>2026-04-17T17:32:23.999Z</time></trkpt><trkpt lat="44.880019744827656" lon="11.420331878235839"><ele>7.5</ele><time>2026-04-17T17:32:24.999Z</time></trkpt><trkpt lat="44.8799876959909" lon="11.42042300607611"><ele>7.666666666666666</ele><time>2026-04-17T17:32:25.999Z</time></trkpt><trkpt lat="44.879960240607595" lon="11.420507140644466"><ele>7.833333333333333</ele><time>2026-04-17T17:32:26.999Z</time></trkpt><trkpt lat="44.87993243895141" lon="11.420588428544008"><ele>8.0</ele><time>2026-04-17T17:32:27.999Z</time></trkpt><trkpt lat="44.879903141912116" lon="11.420674056614189"><ele>7.999999999999999</ele><time>2026-04-17T17:32:28.999Z</time></trkpt><trkpt lat="44.87987302247534" lon="11.420763246529756"><ele>8.0</ele><time>2026-04-17T17:32:29.999Z</time></trkpt><trkpt lat="44.87983794147919" lon="11.420859292681044"><ele>8.0</ele><time>2026-04-17T17:32:30.999Z</time></trkpt><trkpt lat="44.87980575810517" lon="11.420951873902531"><ele>8.0</ele><time>2026-04-17T17:32:31.999Z</time></trkpt><trkpt lat="44.8797700210895" lon="11.42104793786395"><ele>7.999999999999999</ele><time>2026-04-17T17:32:32.999Z</time></trkpt><trkpt lat="44.87973651604594" lon="11.421149822651799"><ele>8.0</ele><time>2026-04-17T17:32:33.999Z</time></trkpt><trkpt lat="44.87968590751297" lon="11.421301421798377"><ele>8.0</ele><time>2026-04-17T17:32:35.999Z</time></trkpt><trkpt lat="44.8796511630206" lon="11.421395603324111"><ele>8.0</ele><time>2026-04-17T17:32:36.999Z</time></trkpt><trkpt lat="44.87961508149289" lon="11.421509295558337"><ele>8.0</ele><time>2026-04-17T17:32:37.999Z</time></trkpt><trkpt lat="44.879581674300816" lon="11.421673367011845"><ele>8.0</ele><time>2026-04-17T17:32:38.999Z</time></trkpt><trkpt lat="44.879538470908784" lon="11.421869612360373"><ele>8.0</ele><time>2026-04-17T17:32:39.999Z</time></trkpt><trkpt lat="44.879494287812555" lon="11.422051954725054"><ele>9.25</ele><time>2026-04-17T17:32:40.999Z</time></trkpt><trkpt lat="44.87946073766582" lon="11.422214481587071"><ele>10.5</ele><time>2026-04-17T17:32:41.999Z</time></trkpt><trkpt lat="44.87942325811647" lon="11.422383744499134"><ele>11.75</ele><time>2026-04-17T17:32:42.999Z</time></trkpt><trkpt lat="44.87938610456924" lon="11.422545572363441"><ele>13.0</ele><time>2026-04-17T17:32:43.999Z</time></trkpt><trkpt lat="44.87934796950753" lon="11.422713144323684"><ele>13.0</ele><time>2026-04-17T17:32:44.999Z</time></trkpt><trkpt lat="44.8793098361184" lon="11.42288952975579"><ele>13.0</ele><time>2026-04-17T17:32:45.999Z</time></trkpt><trkpt lat="44.879272812729994" lon="11.423064993567156"><ele>13.0</ele><time>2026-04-17T17:32:46.999Z</time></trkpt><trkpt lat="44.87923858683283" lon="11.42322196562909"><ele>13.0</ele><time>2026-04-17T17:32:47.999Z</time></trkpt><trkpt lat="44.87920448610502" lon="11.423376322687664"><ele>12.0</ele><time>2026-04-17T17:32:48.999Z</time></trkpt><trkpt lat="44.879169697105624" lon="11.4235300754134"><ele>11.0</ele><time>2026-04-17T17:32:49.999Z</time></trkpt><trkpt lat="44.879136366516" lon="11.423676953239255"><ele>10.0</ele><time>2026-04-17T17:32:50.999Z</time></trkpt><trkpt lat="44.879105894335055" lon="11.423817602431116"><ele>9.0</ele><time>2026-04-17T17:32:51.999Z</time></trkpt><trkpt lat="44.87907658820382" lon="11.423957924881329"><ele>8.0</ele><time>2026-04-17T17:32:52.999Z</time></trkpt><trkpt lat="44.87904356715768" lon="11.42410851754104"><ele>8.0</ele><time>2026-04-17T17:32:53.999Z</time></trkpt><trkpt lat="44.87900986598683" lon="11.424268200454838"><ele>8.0</ele><time>2026-04-17T17:32:54.999Z</time></trkpt><trkpt lat="44.87897219294969" lon="11.424428399617309"><ele>8.0</ele><time>2026-04-17T17:32:55.999Z</time></trkpt><trkpt lat="44.87893452242545" lon="11.424614593378813"><ele>8.0</ele><time>2026-04-17T17:32:56.999Z</time></trkpt><trkpt lat="44.878896430528904" lon="11.424779086553139"><ele>8.200000000000001</ele><time>2026-04-17T17:32:57.999Z</time></trkpt><trkpt lat="44.87886366859848" lon="11.42493180857271"><ele>8.4</ele><time>2026-04-17T17:32:58.999Z</time></trkpt><trkpt lat="44.878832117588075" lon="11.425071704982606"><ele>8.600000000000001</ele><time>2026-04-17T17:32:59.999Z</time></trkpt><trkpt lat="44.87880092943007" lon="11.425214737964405"><ele>8.8</ele><time>2026-04-17T17:33:00.999Z</time></trkpt><trkpt lat="44.87877001231632" lon="11.425367673863141"><ele>9.0</ele><time>2026-04-17T17:33:01.999Z</time></trkpt><trkpt lat="44.87873464316099" lon="11.42552989684327"><ele>9.0</ele><time>2026-04-17T17:33:02.999Z</time></trkpt><trkpt lat="44.878694357632455" lon="11.42570018053557"><ele>9.0</ele><time>2026-04-17T17:33:03.999Z</time></trkpt><trkpt lat="44.87865662549405" lon="11.425876040881871"><ele>9.0</ele><time>2026-04-17T17:33:04.999Z</time></trkpt><trkpt lat="44.87861603757804" lon="11.42605060828481"><ele>9.0</ele><time>2026-04-17T17:33:05.999Z</time></trkpt><trkpt lat="44.878574198735656" lon="11.426233688959927"><ele>9.0</ele><time>2026-04-17T17:33:06.999Z</time></trkpt><trkpt lat="44.878533757449695" lon="11.426431691578609"><ele>9.0</ele><time>2026-04-17T17:33:07.999Z</time></trkpt><trkpt lat="44.87848710560376" lon="11.426636161725037"><ele>9.0</ele><time>2026-04-17T17:33:08.999Z</time></trkpt><trkpt lat="44.87844333683439" lon="11.426833981400309"><ele>9.0</ele><time>2026-04-17T17:33:09.999Z</time></trkpt><trkpt lat="44.878407391087194" lon="11.427016768120067"><ele>9.0</ele><time>2026-04-17T17:33:10.999Z</time></trkpt><trkpt lat="44.878380547248824" lon="11.427195477258625"><ele>9.0</ele><time>2026-04-17T17:33:11.999Z</time></trkpt><trkpt lat="44.87834164378343" lon="11.427390148783127"><ele>9.0</ele><time>2026-04-17T17:33:12.999Z</time></trkpt><trkpt lat="44.87833979350663" lon="11.427606504032108"><ele>9.0</ele><time>2026-04-17T17:33:13.999Z</time></trkpt><trkpt lat="44.87833822827161" lon="11.427835674394437"><ele>9.666666666666666</ele><time>2026-04-17T17:33:14.999Z</time></trkpt><trkpt lat="44.87833996423169" lon="11.428080124875839"><ele>10.333333333333332</ele><time>2026-04-17T17:33:15.999Z</time></trkpt><trkpt lat="44.87837613431498" lon="11.428326358764807"><ele>11.0</ele><time>2026-04-17T17:33:16.999Z</time></trkpt><trkpt lat="44.878456323933456" lon="11.428554165647302"><ele>11.333333333333332</ele><time>2026-04-17T17:33:17.999Z</time></trkpt><trkpt lat="44.87851558885968" lon="11.428782543962093"><ele>11.666666666666666</ele><time>2026-04-17T17:33:18.999Z</time></trkpt><trkpt lat="44.87856955949631" lon="11.429007044532883"><ele>12.0</ele><time>2026-04-17T17:33:19.999Z</time></trkpt><trkpt lat="44.8786081783877" lon="11.429238905254648"><ele>12.333333333333332</ele><time>2026-04-17T17:33:20.999Z</time></trkpt><trkpt lat="44.87861906057342" lon="11.429472384459071"><ele>12.666666666666666</ele><time>2026-04-17T17:33:21.999Z</time></trkpt><trkpt lat="44.87860943271032" lon="11.429689954480324"><ele>13.0</ele><time>2026-04-17T17:33:22.999Z</time></trkpt><trkpt lat="44.8785820894205" lon="11.42988293950828"><ele>13.0</ele><time>2026-04-17T17:33:23.999Z</time></trkpt><trkpt lat="44.878546520916615" lon="11.430060949533773"><ele>13.0</ele><time>2026-04-17T17:33:24.999Z</time></trkpt><trkpt lat="44.87849871784798" lon="11.430230605401311"><ele>13.0</ele><time>2026-04-17T17:33:26Z</time></trkpt><trkpt lat="44.878438841401874" lon="11.430402466570072"><ele>13.0</ele><time>2026-04-17T17:33:27Z</time></trkpt><trkpt lat="44.87836125054642" lon="11.430568170052144"><ele>12.75</ele><time>2026-04-17T17:33:28Z</time></trkpt><trkpt lat="44.87827259645609" lon="11.430722730761092"><ele>12.5</ele><time>2026-04-17T17:33:29Z</time></trkpt><trkpt lat="44.878177884550794" lon="11.430872136846858"><ele>12.25</ele><time>2026-04-17T17:33:30Z</time></trkpt><trkpt lat="44.87808589486701" lon="11.431011697850307"><ele>12.0</ele><time>2026-04-17T17:33:31Z</time></trkpt><trkpt lat="44.877997332452345" lon="11.431144997444276"><ele>12.0</ele><time>2026-04-17T17:33:32Z</time></trkpt><trkpt lat="44.87791161917878" lon="11.431277265814803"><ele>12.0</ele><time>2026-04-17T17:33:33Z</time></trkpt><trkpt lat="44.877826683989376" lon="11.431403169910084"><ele>12.0</ele><time>2026-04-17T17:33:34Z</time></trkpt><trkpt lat="44.87774823364749" lon="11.431524244681327"><ele>12.0</ele><time>2026-04-17T17:33:35Z</time></trkpt><trkpt lat="44.877669225061325" lon="11.431649842098489"><ele>11.0</ele><time>2026-04-17T17:33:36Z</time></trkpt><trkpt lat="44.87759138602941" lon="11.431774915352651"><ele>10.0</ele><time>2026-04-17T17:33:37Z</time></trkpt><trkpt lat="44.877509346557176" lon="11.431901549103577"><ele>9.0</ele><time>2026-04-17T17:33:38Z</time></trkpt><trkpt lat="44.877425370568545" lon="11.43203152088435"><ele>8.0</ele><time>2026-04-17T17:33:39Z</time></trkpt><trkpt lat="44.877339744230156" lon="11.432161836182386"><ele>7.6000000000000005</ele><time>2026-04-17T17:33:40Z</time></trkpt><trkpt lat="44.87727511806076" lon="11.432250880592095"><ele>7.200000000000001</ele><time>2026-04-17T17:33:41Z</time></trkpt><trkpt lat="44.87720261155935" lon="11.432363307165543"><ele>6.8</ele><time>2026-04-17T17:33:42Z</time></trkpt><trkpt lat="44.877132868036405" lon="11.432471150631603"><ele>6.4</ele><time>2026-04-17T17:33:43Z</time></trkpt><trkpt lat="44.877073203629294" lon="11.432565412191336"><ele>6.0</ele><time>2026-04-17T17:33:44Z</time></trkpt><trkpt lat="44.877013804118334" lon="11.432656334164589"><ele>6.0</ele><time>2026-04-17T17:33:45Z</time></trkpt><trkpt lat="44.87695798076327" lon="11.432743378251809"><ele>6.0</ele><time>2026-04-17T17:33:46Z</time></trkpt><trkpt lat="44.876900171094604" lon="11.432832133221146"><ele>6.0</ele><time>2026-04-17T17:33:47Z</time></trkpt><trkpt lat="44.876840518547944" lon="11.432919882240625"><ele>6.0</ele><time>2026-04-17T17:33:48Z</time></trkpt><trkpt lat="44.87678191961167" lon="11.43300510552225"><ele>6.0</ele><time>2026-04-17T17:33:49Z</time></trkpt><trkpt lat="44.876726948424626" lon="11.433086669332825"><ele>6.0</ele><time>2026-04-17T17:33:50Z</time></trkpt><trkpt lat="44.8766758796845" lon="11.433159040787567"><ele>6.428571428571428</ele><time>2026-04-17T17:33:51Z</time></trkpt><trkpt lat="44.87662628227519" lon="11.433229435856566"><ele>6.857142857142858</ele><time>2026-04-17T17:33:52Z</time></trkpt><trkpt lat="44.87657878016169" lon="11.433294307045466"><ele>7.2857142857142865</ele><time>2026-04-17T17:33:53Z</time></trkpt><trkpt lat="44.876530084699574" lon="11.433361756744969"><ele>7.714285714285714</ele><time>2026-04-17T17:33:54Z</time></trkpt><trkpt lat="44.876478830084004" lon="11.433434386480513"><ele>8.142857142857142</ele><time>2026-04-17T17:33:55Z</time></trkpt><trkpt lat="44.87642109167976" lon="11.433513236705538"><ele>8.571428571428573</ele><time>2026-04-17T17:33:56Z</time></trkpt><trkpt lat="44.876359687648005" lon="11.43359395713466"><ele>9.0</ele><time>2026-04-17T17:33:57Z</time></trkpt><trkpt lat="44.87629346710013" lon="11.433681874995385"><ele>9.0</ele><time>2026-04-17T17:33:58Z</time></trkpt><trkpt lat="44.87622371152322" lon="11.433774352435512"><ele>9.0</ele><time>2026-04-17T17:33:59Z</time></trkpt><trkpt lat="44.87614844887594" lon="11.43387553236397"><ele>9.0</ele><time>2026-04-17T17:34:00Z</time></trkpt><trkpt lat="44.876064004715396" lon="11.433987183673601"><ele>9.0</ele><time>2026-04-17T17:34:01Z</time></trkpt><trkpt lat="44.87597140984016" lon="11.434108792141512"><ele>9.0</ele><time>2026-04-17T17:34:02Z</time></trkpt><trkpt lat="44.87587237350554" lon="11.434235732174123"><ele>9.0</ele><time>2026-04-17T17:34:03Z</time></trkpt><trkpt lat="44.87577018107931" lon="11.434364735534439"><ele>9.0</ele><time>2026-04-17T17:34:04Z</time></trkpt><trkpt lat="44.87566314069559" lon="11.434505607160087"><ele>9.0</ele><time>2026-04-17T17:34:05Z</time></trkpt><trkpt lat="44.87555044682873" lon="11.434650842902771"><ele>9.0</ele><time>2026-04-17T17:34:06Z</time></trkpt><trkpt lat="44.8754335960459" lon="11.434802132299684"><ele>9.666666666666666</ele><time>2026-04-17T17:34:07Z</time></trkpt><trkpt lat="44.875324849229074" lon="11.4349489166724"><ele>10.333333333333332</ele><time>2026-04-17T17:34:08Z</time></trkpt><trkpt lat="44.87520717715416" lon="11.435100714835952"><ele>11.0</ele><time>2026-04-17T17:34:09Z</time></trkpt><trkpt lat="44.87508431731065" lon="11.435257540061107"><ele>11.0</ele><time>2026-04-17T17:34:10Z</time></trkpt><trkpt lat="44.87495782529744" lon="11.435424673523285"><ele>11.0</ele><time>2026-04-17T17:34:11Z</time></trkpt><trkpt lat="44.87482505894413" lon="11.43559600141089"><ele>11.0</ele><time>2026-04-17T17:34:12Z</time></trkpt><trkpt lat="44.87469697178956" lon="11.435766245927274"><ele>10.666666666666666</ele><time>2026-04-17T17:34:13Z</time></trkpt><trkpt lat="44.87457114170166" lon="11.435938495509477"><ele>10.333333333333334</ele><time>2026-04-17T17:34:14Z</time></trkpt><trkpt lat="44.87444532642884" lon="11.43612158252103"><ele>10.0</ele><time>2026-04-17T17:34:15Z</time></trkpt><trkpt lat="44.874316413891734" lon="11.436314378051676"><ele>10.666666666666668</ele><time>2026-04-17T17:34:16Z</time></trkpt><trkpt lat="44.874188889967016" lon="11.436505716441241"><ele>11.333333333333334</ele><time>2026-04-17T17:34:17Z</time></trkpt><trkpt lat="44.87406037746774" lon="11.436699009472328"><ele>12.0</ele><time>2026-04-17T17:34:18Z</time></trkpt><trkpt lat="44.87393183117821" lon="11.436893195993992"><ele>12.0</ele><time>2026-04-17T17:34:19Z</time></trkpt><trkpt lat="44.87379673643484" lon="11.43708937413299"><ele>12.0</ele><time>2026-04-17T17:34:20Z</time></trkpt><trkpt lat="44.87366169675395" lon="11.437285119827532"><ele>12.0</ele><time>2026-04-17T17:34:20.999Z</time></trkpt><trkpt lat="44.87352677393915" lon="11.437477021026"><ele>11.666666666666666</ele><time>2026-04-17T17:34:21.999Z</time></trkpt><trkpt lat="44.87339378491452" lon="11.437663370543236"><ele>11.333333333333332</ele><time>2026-04-17T17:34:22.999Z</time></trkpt><trkpt lat="44.87325959631557" lon="11.437847525082471"><ele>11.0</ele><time>2026-04-17T17:34:23.999Z</time></trkpt><trkpt lat="44.873127662556854" lon="11.438028955835447"><ele>11.0</ele><time>2026-04-17T17:34:24.999Z</time></trkpt><trkpt lat="44.87299617958333" lon="11.438206030387358"><ele>11.0</ele><time>2026-04-17T17:34:25.999Z</time></trkpt><trkpt lat="44.87286636931607" lon="11.438385258515416"><ele>11.0</ele><time>2026-04-17T17:34:26.999Z</time></trkpt><trkpt lat="44.87273347515359" lon="11.438560758340767"><ele>11.333333333333332</ele><time>2026-04-17T17:34:27.999Z</time></trkpt><trkpt lat="44.87259931106219" lon="11.438732953174686"><ele>11.666666666666666</ele><time>2026-04-17T17:34:28.999Z</time></trkpt><trkpt lat="44.872460814936495" lon="11.438905001910786"><ele>12.0</ele><time>2026-04-17T17:34:29.999Z</time></trkpt><trkpt lat="44.872324794551226" lon="11.43908688605192"><ele>12.0</ele><time>2026-04-17T17:34:30.999Z</time></trkpt><trkpt lat="44.872194388674714" lon="11.439281295074585"><ele>12.0</ele><time>2026-04-17T17:34:31.999Z</time></trkpt><trkpt lat="44.87206247440896" lon="11.439475089475456"><ele>12.0</ele><time>2026-04-17T17:34:32.999Z</time></trkpt><trkpt lat="44.871924219961286" lon="11.439656615650932"><ele>12.0</ele><time>2026-04-17T17:34:33.999Z</time></trkpt><trkpt lat="44.87177963346073" lon="11.439823582134037"><ele>12.0</ele><time>2026-04-17T17:34:34.999Z</time></trkpt><trkpt lat="44.871624494828254" lon="11.439988546030374"><ele>12.0</ele><time>2026-04-17T17:34:35.999Z</time></trkpt><trkpt lat="44.871466155732584" lon="11.440159691925842"><ele>12.0</ele><time>2026-04-17T17:34:36.999Z</time></trkpt><trkpt lat="44.871309608559244" lon="11.440336437778896"><ele>12.0</ele><time>2026-04-17T17:34:37.999Z</time></trkpt><trkpt lat="44.87115384454904" lon="11.440518953814415"><ele>12.0</ele><time>2026-04-17T17:34:38.999Z</time></trkpt><trkpt lat="44.871001317667414" lon="11.440714037277546"><ele>12.0</ele><time>2026-04-17T17:34:39.999Z</time></trkpt><trkpt lat="44.870853899013206" lon="11.44092117786565"><ele>12.0</ele><time>2026-04-17T17:34:40.999Z</time></trkpt><trkpt lat="44.87070888901936" lon="11.441134191864133"><ele>12.0</ele><time>2026-04-17T17:34:41.999Z</time></trkpt><trkpt lat="44.87057347044553" lon="11.441346038790382"><ele>12.0</ele><time>2026-04-17T17:34:42.999Z</time></trkpt><trkpt lat="44.87044914862831" lon="11.441541967129435"><ele>12.0</ele><time>2026-04-17T17:34:43.999Z</time></trkpt><trkpt lat="44.870335979839275" lon="11.441726094759158"><ele>12.0</ele><time>2026-04-17T17:34:44.999Z</time></trkpt><trkpt lat="44.8702342489792" lon="11.441903838465047"><ele>12.0</ele><time>2026-04-17T17:34:45.999Z</time></trkpt><trkpt lat="44.87013990222074" lon="11.44208140716342"><ele>12.0</ele><time>2026-04-17T17:34:46.999Z</time></trkpt><trkpt lat="44.87006349892604" lon="11.442278140184811"><ele>12.0</ele><time>2026-04-17T17:34:47.999Z</time></trkpt><trkpt lat="44.86999721481891" lon="11.442493094626172"><ele>12.0</ele><time>2026-04-17T17:34:48.999Z</time></trkpt><trkpt lat="44.86993522339245" lon="11.442714236903514"><ele>12.0</ele><time>2026-04-17T17:34:49.999Z</time></trkpt><trkpt lat="44.869879937293014" lon="11.442946568026267"><ele>12.0</ele><time>2026-04-17T17:34:50.999Z</time></trkpt><trkpt lat="44.8698273928751" lon="11.44318798359586"><ele>12.0</ele><time>2026-04-17T17:34:51.999Z</time></trkpt><trkpt lat="44.86976988047374" lon="11.443439700018"><ele>12.0</ele><time>2026-04-17T17:34:52.999Z</time></trkpt><trkpt lat="44.8697090829003" lon="11.443695965379565"><ele>12.0</ele><time>2026-04-17T17:34:53.999Z</time></trkpt><trkpt lat="44.86964493651623" lon="11.443959767688055"><ele>12.0</ele><time>2026-04-17T17:34:54.999Z</time></trkpt><trkpt lat="44.86958415634451" lon="11.444229790545752"><ele>12.0</ele><time>2026-04-17T17:34:55.999Z</time></trkpt><trkpt lat="44.86952457852287" lon="11.44449904693848"><ele>12.0</ele><time>2026-04-17T17:34:56.999Z</time></trkpt><trkpt lat="44.869462747189864" lon="11.444772679815845"><ele>12.0</ele><time>2026-04-17T17:34:57.999Z</time></trkpt><trkpt lat="44.869401472087446" lon="11.445051019304282"><ele>12.0</ele><time>2026-04-17T17:34:58.999Z</time></trkpt><trkpt lat="44.86934178343495" lon="11.445332737075516"><ele>12.0</ele><time>2026-04-17T17:34:59.999Z</time></trkpt><trkpt lat="44.86928700318304" lon="11.445602348800975"><ele>12.0</ele><time>2026-04-17T17:35:00.999Z</time></trkpt><trkpt lat="44.86923615947658" lon="11.445851781830353"><ele>12.0</ele><time>2026-04-17T17:35:01.999Z</time></trkpt><trkpt lat="44.86918693372421" lon="11.446083472395435"><ele>12.0</ele><time>2026-04-17T17:35:02.999Z</time></trkpt><trkpt lat="44.8691418725434" lon="11.446304943558498"><ele>12.0</ele><time>2026-04-17T17:35:03.999Z</time></trkpt><trkpt lat="44.86910289218952" lon="11.446521994637079"><ele>12.0</ele><time>2026-04-17T17:35:04.999Z</time></trkpt><trkpt lat="44.8690689268395" lon="11.446740493173403"><ele>12.0</ele><time>2026-04-17T17:35:05.999Z</time></trkpt><trkpt lat="44.86904401022367" lon="11.446970371981456"><ele>11.666666666666666</ele><time>2026-04-17T17:35:06.999Z</time></trkpt><trkpt lat="44.86903599472162" lon="11.447209183967619"><ele>11.333333333333332</ele><time>2026-04-17T17:35:07.999Z</time></trkpt><trkpt lat="44.86903877371412" lon="11.447432612379394"><ele>11.0</ele><time>2026-04-17T17:35:08.999Z</time></trkpt><trkpt lat="44.8690460845066" lon="11.447630262658999"><ele>11.0</ele><time>2026-04-17T17:35:09.999Z</time></trkpt><trkpt lat="44.86904552822892" lon="11.447800277603628"><ele>11.0</ele><time>2026-04-17T17:35:10.999Z</time></trkpt><trkpt lat="44.869038301061714" lon="11.447932156287292"><ele>11.0</ele><time>2026-04-17T17:35:11.999Z</time></trkpt><trkpt lat="44.86902004918803" lon="11.44802375793856"><ele>11.0</ele><time>2026-04-17T17:35:12.999Z</time></trkpt><trkpt lat="44.86896809267614" lon="11.448132631636446"><ele>11.0</ele><time>2026-04-17T17:35:14.999Z</time></trkpt><trkpt lat="44.8688863452694" lon="11.44813387441838"><ele>11.0</ele><time>2026-04-17T17:35:15.999Z</time></trkpt><trkpt lat="44.8687542088123" lon="11.448078313073143"><ele>11.0</ele><time>2026-04-17T17:35:17.999Z</time></trkpt><trkpt lat="44.868667724456216" lon="11.448040963042857"><ele>11.0</ele><time>2026-04-17T17:35:18.999Z</time></trkpt><trkpt lat="44.86856818036886" lon="11.447998718936372"><ele>11.0</ele><time>2026-04-17T17:35:19.999Z</time></trkpt><trkpt lat="44.86846240048976" lon="11.447956889131913"><ele>11.0</ele><time>2026-04-17T17:35:20.999Z</time></trkpt><trkpt lat="44.86834631454037" lon="11.447909632279293"><ele>11.25</ele><time>2026-04-17T17:35:21.999Z</time></trkpt><trkpt lat="44.86822033856485" lon="11.447865405006425"><ele>11.5</ele><time>2026-04-17T17:35:22.999Z</time></trkpt><trkpt lat="44.86810726215915" lon="11.447817640324683"><ele>11.75</ele><time>2026-04-17T17:35:23.999Z</time></trkpt><trkpt lat="44.86800587132894" lon="11.44777387086824"><ele>12.0</ele><time>2026-04-17T17:35:24.999Z</time></trkpt><trkpt lat="44.86790807558321" lon="11.447731657348845"><ele>12.0</ele><time>2026-04-17T17:35:25.999Z</time></trkpt><trkpt lat="44.867797304618" lon="11.447685794608429"><ele>12.0</ele><time>2026-04-17T17:35:26.999Z</time></trkpt><trkpt lat="44.867675859797004" lon="11.447638929159984"><ele>12.0</ele><time>2026-04-17T17:35:27.999Z</time></trkpt><trkpt lat="44.86756170793039" lon="11.44759166464377"><ele>12.0</ele><time>2026-04-17T17:35:28.999Z</time></trkpt><trkpt lat="44.867460888067605" lon="11.447550965141106"><ele>12.0</ele><time>2026-04-17T17:35:29.999Z</time></trkpt><trkpt lat="44.86736454612333" lon="11.447515140223109"><ele>12.0</ele><time>2026-04-17T17:35:30.999Z</time></trkpt><trkpt lat="44.86728114838686" lon="11.447485950034078"><ele>12.0</ele><time>2026-04-17T17:35:32Z</time></trkpt><trkpt lat="44.86720270129722" lon="11.447453021481909"><ele>12.0</ele><time>2026-04-17T17:35:33Z</time></trkpt><trkpt lat="44.867132440856444" lon="11.447417522511557"><ele>12.0</ele><time>2026-04-17T17:35:34Z</time></trkpt><trkpt lat="44.86707785304673" lon="11.447367517631976"><ele>12.0</ele><time>2026-04-17T17:35:35Z</time></trkpt><trkpt lat="44.86700182302078" lon="11.447353759016076"><ele>12.0</ele><time>2026-04-17T17:35:36Z</time></trkpt><trkpt lat="44.86694327902671" lon="11.447239288212765"><ele>12.0</ele><time>2026-04-17T17:35:38Z</time></trkpt><trkpt lat="44.86684904037008" lon="11.447244183234918"><ele>12.0</ele><time>2026-04-17T17:35:40Z</time></trkpt><trkpt lat="44.86678215118919" lon="11.44735557282545"><ele>12.0</ele><time>2026-04-17T17:35:42Z</time></trkpt><trkpt lat="44.86679771420247" lon="11.447516751930893"><ele>12.0</ele><time>2026-04-17T17:35:44Z</time></trkpt><trkpt lat="44.86683409082938" lon="11.447614435329614"><ele>12.0</ele><time>2026-04-17T17:35:45Z</time></trkpt><trkpt lat="44.86686437827636" lon="11.447724691980632"><ele>12.0</ele><time>2026-04-17T17:35:46Z</time></trkpt><trkpt lat="44.86687475867207" lon="11.447853988844745"><ele>12.0</ele><time>2026-04-17T17:35:47Z</time></trkpt><trkpt lat="44.866863616128164" lon="11.4479970149953"><ele>12.0</ele><time>2026-04-17T17:35:48Z</time></trkpt><trkpt lat="44.86684504571788" lon="11.448134721388236"><ele>12.0</ele><time>2026-04-17T17:35:49Z</time></trkpt><trkpt lat="44.866829111930564" lon="11.448253935517538"><ele>12.0</ele><time>2026-04-17T17:35:50Z</time></trkpt><trkpt lat="44.8668149787138" lon="11.448374937950156"><ele>12.0</ele><time>2026-04-17T17:35:51Z</time></trkpt><trkpt lat="44.86679783885724" lon="11.4484764489751"><ele>12.0</ele><time>2026-04-17T17:35:52Z</time></trkpt><trkpt lat="44.86678367323097" lon="11.448565353917731"><ele>12.0</ele><time>2026-04-17T17:35:53Z</time></trkpt><trkpt lat="44.86676943155295" lon="11.448657448095958"><ele>12.0</ele><time>2026-04-17T17:35:54Z</time></trkpt><trkpt lat="44.866751745095094" lon="11.44877734705601"><ele>12.0</ele><time>2026-04-17T17:35:55Z</time></trkpt><trkpt lat="44.866731234738815" lon="11.448914565519646"><ele>12.0</ele><time>2026-04-17T17:35:56Z</time></trkpt><trkpt lat="44.866707796562075" lon="11.449057707376978"><ele>12.0</ele><time>2026-04-17T17:35:57Z</time></trkpt><trkpt lat="44.86668543090542" lon="11.449209548845387"><ele>12.0</ele><time>2026-04-17T17:35:58Z</time></trkpt><trkpt lat="44.86666388481133" lon="11.449361989024109"><ele>12.0</ele><time>2026-04-17T17:35:59Z</time></trkpt><trkpt lat="44.86664300690691" lon="11.44951206647249"><ele>12.0</ele><time>2026-04-17T17:36:00Z</time></trkpt><trkpt lat="44.866617981887444" lon="11.449659746909758"><ele>11.75</ele><time>2026-04-17T17:36:01Z</time></trkpt><trkpt lat="44.86659461523526" lon="11.449817081702351"><ele>11.5</ele><time>2026-04-17T17:36:02Z</time></trkpt><trkpt lat="44.86657517295483" lon="11.449973430155161"><ele>11.25</ele><time>2026-04-17T17:36:03Z</time></trkpt><trkpt lat="44.86655429631021" lon="11.450130219236183"><ele>11.0</ele><time>2026-04-17T17:36:04Z</time></trkpt><trkpt lat="44.8665299923286" lon="11.450286785698879"><ele>11.0</ele><time>2026-04-17T17:36:05Z</time></trkpt><trkpt lat="44.86650434285171" lon="11.450443731629251"><ele>11.0</ele><time>2026-04-17T17:36:06Z</time></trkpt><trkpt lat="44.866480719511216" lon="11.450591848515053"><ele>11.0</ele><time>2026-04-17T17:36:07Z</time></trkpt><trkpt lat="44.86646120366163" lon="11.45071946506544"><ele>11.0</ele><time>2026-04-17T17:36:08Z</time></trkpt><trkpt lat="44.866445274600295" lon="11.450831350962423"><ele>11.0</ele><time>2026-04-17T17:36:09Z</time></trkpt><trkpt lat="44.866431027997685" lon="11.450927091274385"><ele>11.0</ele><time>2026-04-17T17:36:10Z</time></trkpt><trkpt lat="44.866412244812246" lon="11.451076832841775"><ele>11.0</ele><time>2026-04-17T17:36:12Z</time></trkpt><trkpt lat="44.8663905605316" lon="11.451241437205685"><ele>11.0</ele><time>2026-04-17T17:36:14Z</time></trkpt><trkpt lat="44.8663729475137" lon="11.451359555578719"><ele>11.0</ele><time>2026-04-17T17:36:15Z</time></trkpt><trkpt lat="44.8663500868289" lon="11.451525123204094"><ele>11.0</ele><time>2026-04-17T17:36:16Z</time></trkpt><trkpt lat="44.86632386683805" lon="11.451706242974645"><ele>11.0</ele><time>2026-04-17T17:36:17Z</time></trkpt><trkpt lat="44.8662983905825" lon="11.451859242319955"><ele>11.0</ele><time>2026-04-17T17:36:18Z</time></trkpt><trkpt lat="44.86627950029288" lon="11.451993967369607"><ele>11.0</ele><time>2026-04-17T17:36:19Z</time></trkpt><trkpt lat="44.866258271073335" lon="11.452125803239367"><ele>11.0</ele><time>2026-04-17T17:36:20Z</time></trkpt><trkpt lat="44.86623480018248" lon="11.452253737014608"><ele>11.0</ele><time>2026-04-17T17:36:21Z</time></trkpt><trkpt lat="44.86620311645759" lon="11.452380532266366"><ele>10.600000000000001</ele><time>2026-04-17T17:36:22Z</time></trkpt><trkpt lat="44.86615730772018" lon="11.452505607148412"><ele>10.200000000000001</ele><time>2026-04-17T17:36:23Z</time></trkpt><trkpt lat="44.86607935440281" lon="11.452601755606782"><ele>9.8</ele><time>2026-04-17T17:36:24Z</time></trkpt><trkpt lat="44.86601806475987" lon="11.452721182866076"><ele>9.4</ele><time>2026-04-17T17:36:25Z</time></trkpt><trkpt lat="44.865950263413794" lon="11.452832438389127"><ele>9.0</ele><time>2026-04-17T17:36:25.999Z</time></trkpt><trkpt lat="44.865903825242015" lon="11.452968190613033"><ele>9.0</ele><time>2026-04-17T17:36:26.999Z</time></trkpt><trkpt lat="44.86587625093113" lon="11.453113101473908"><ele>9.0</ele><time>2026-04-17T17:36:27.999Z</time></trkpt><trkpt lat="44.86585682600433" lon="11.453245463492726"><ele>9.0</ele><time>2026-04-17T17:36:28.999Z</time></trkpt><trkpt lat="44.86583603310897" lon="11.45335183783133"><ele>9.0</ele><time>2026-04-17T17:36:29.999Z</time></trkpt><trkpt lat="44.865811241899586" lon="11.453434826028932"><ele>9.0</ele><time>2026-04-17T17:36:30.999Z</time></trkpt><trkpt lat="44.86579062809119" lon="11.453521723214612"><ele>9.0</ele><time>2026-04-17T17:36:31.999Z</time></trkpt><trkpt lat="44.865761873692364" lon="11.453648448651053"><ele>9.0</ele><time>2026-04-17T17:36:32.999Z</time></trkpt><trkpt lat="44.86571943278241" lon="11.453796421278767"><ele>9.0</ele><time>2026-04-17T17:36:33.999Z</time></trkpt><trkpt lat="44.86566649021563" lon="11.453950609079342"><ele>9.0</ele><time>2026-04-17T17:36:34.999Z</time></trkpt><trkpt lat="44.86561825590328" lon="11.454085592733751"><ele>9.0</ele><time>2026-04-17T17:36:35.999Z</time></trkpt><trkpt lat="44.86557843712719" lon="11.45421353486289"><ele>9.0</ele><time>2026-04-17T17:36:36.999Z</time></trkpt><trkpt lat="44.865536431015755" lon="11.454332960525013"><ele>9.0</ele><time>2026-04-17T17:36:37.999Z</time></trkpt><trkpt lat="44.86548824836448" lon="11.454447459049392"><ele>9.0</ele><time>2026-04-17T17:36:38.999Z</time></trkpt><trkpt lat="44.86543862587203" lon="11.454559377827916"><ele>9.0</ele><time>2026-04-17T17:36:39.999Z</time></trkpt><trkpt lat="44.865395650228116" lon="11.454674757051192"><ele>9.0</ele><time>2026-04-17T17:36:40.999Z</time></trkpt><trkpt lat="44.865366265551984" lon="11.454804204132797"><ele>9.0</ele><time>2026-04-17T17:36:41.999Z</time></trkpt><trkpt lat="44.86535957546639" lon="11.454952691237889"><ele>9.0</ele><time>2026-04-17T17:36:42.999Z</time></trkpt><trkpt lat="44.86537514506998" lon="11.4551367844891"><ele>9.0</ele><time>2026-04-17T17:36:43.999Z</time></trkpt><trkpt lat="44.86537450923127" lon="11.455341350503398"><ele>9.0</ele><time>2026-04-17T17:36:44.999Z</time></trkpt><trkpt lat="44.86540517557102" lon="11.455522730783755"><ele>9.0</ele><time>2026-04-17T17:36:45.999Z</time></trkpt><trkpt lat="44.86541267208807" lon="11.455715861290496"><ele>9.0</ele><time>2026-04-17T17:36:46.999Z</time></trkpt><trkpt lat="44.865402779199776" lon="11.455914207568636"><ele>9.0</ele><time>2026-04-17T17:36:47.999Z</time></trkpt><trkpt lat="44.86536734320896" lon="11.456106128426566"><ele>9.0</ele><time>2026-04-17T17:36:48.999Z</time></trkpt><trkpt lat="44.86532705238582" lon="11.456279020114797"><ele>9.0</ele><time>2026-04-17T17:36:49.999Z</time></trkpt><trkpt lat="44.865283932446914" lon="11.45644016413143"><ele>9.0</ele><time>2026-04-17T17:36:50.999Z</time></trkpt><trkpt lat="44.86523793954168" lon="11.456584676783502"><ele>9.0</ele><time>2026-04-17T17:36:51.999Z</time></trkpt><trkpt lat="44.865197875929034" lon="11.456710893180402"><ele>9.0</ele><time>2026-04-17T17:36:52.999Z</time></trkpt><trkpt lat="44.8651468109962" lon="11.456806905233433"><ele>9.0</ele><time>2026-04-17T17:36:53.999Z</time></trkpt><trkpt lat="44.86512152143402" lon="11.456909231542104"><ele>9.0</ele><time>2026-04-17T17:36:54.999Z</time></trkpt><trkpt lat="44.86508701963393" lon="11.457002969464302"><ele>9.0</ele><time>2026-04-17T17:36:55.999Z</time></trkpt><trkpt lat="44.865051764165635" lon="11.457103344402652"><ele>9.333333333333334</ele><time>2026-04-17T17:36:56.999Z</time></trkpt><trkpt lat="44.8650053543893" lon="11.457220626065372"><ele>9.666666666666666</ele><time>2026-04-17T17:36:57.999Z</time></trkpt><trkpt lat="44.86497266622836" lon="11.457318135664199"><ele>10.0</ele><time>2026-04-17T17:36:58.999Z</time></trkpt><trkpt lat="44.86493615967821" lon="11.457407976139814"><ele>10.333333333333332</ele><time>2026-04-17T17:36:59.999Z</time></trkpt><trkpt lat="44.864905714928845" lon="11.45749475395492"><ele>10.666666666666666</ele><time>2026-04-17T17:37:00.999Z</time></trkpt><trkpt lat="44.86487127467294" lon="11.457585775111694"><ele>11.0</ele><time>2026-04-17T17:37:01.999Z</time></trkpt><trkpt lat="44.86482225628128" lon="11.457716471900646"><ele>11.0</ele><time>2026-04-17T17:37:02.999Z</time></trkpt><trkpt lat="44.864754964132516" lon="11.45789597676465"><ele>11.0</ele><time>2026-04-17T17:37:03.999Z</time></trkpt><trkpt lat="44.86466959145956" lon="11.458126460600853"><ele>11.0</ele><time>2026-04-17T17:37:04.999Z</time></trkpt><trkpt lat="44.86456935082676" lon="11.458417677528468"><ele>10.5</ele><time>2026-04-17T17:37:05.999Z</time></trkpt><trkpt lat="44.86444836766974" lon="11.45877291157546"><ele>10.0</ele><time>2026-04-17T17:37:06.999Z</time></trkpt><trkpt lat="44.864309047034965" lon="11.459148321290195"><ele>10.0</ele><time>2026-04-17T17:37:07.999Z</time></trkpt><trkpt lat="44.86422032140806" lon="11.459488020431042"><ele>10.0</ele><time>2026-04-17T17:37:08.999Z</time></trkpt><trkpt lat="44.86412339527266" lon="11.4597885329431"><ele>10.333333333333334</ele><time>2026-04-17T17:37:09.999Z</time></trkpt><trkpt lat="44.86403984531268" lon="11.460064366282447"><ele>10.666666666666666</ele><time>2026-04-17T17:37:10.999Z</time></trkpt><trkpt lat="44.86396443425408" lon="11.460327188348094"><ele>11.0</ele><time>2026-04-17T17:37:11.999Z</time></trkpt><trkpt lat="44.8638905382853" lon="11.460582612891315"><ele>11.0</ele><time>2026-04-17T17:37:12.999Z</time></trkpt><trkpt lat="44.86381253283527" lon="11.460838966053032"><ele>11.0</ele><time>2026-04-17T17:37:13.999Z</time></trkpt><trkpt lat="44.8637230452065" lon="11.461115953339501"><ele>11.0</ele><time>2026-04-17T17:37:14.999Z</time></trkpt><trkpt lat="44.86362927291471" lon="11.461393282790057"><ele>11.0</ele><time>2026-04-17T17:37:15.999Z</time></trkpt><trkpt lat="44.86353942086875" lon="11.461657860017139"><ele>11.0</ele><time>2026-04-17T17:37:16.999Z</time></trkpt><trkpt lat="44.863453593076876" lon="11.461912101900296"><ele>11.0</ele><time>2026-04-17T17:37:17.999Z</time></trkpt><trkpt lat="44.86336566474584" lon="11.46217213816912"><ele>11.0</ele><time>2026-04-17T17:37:18.999Z</time></trkpt><trkpt lat="44.86327022044804" lon="11.462451883131907"><ele>11.0</ele><time>2026-04-17T17:37:19.999Z</time></trkpt><trkpt lat="44.86317408951503" lon="11.462724221512133"><ele>11.0</ele><time>2026-04-17T17:37:20.999Z</time></trkpt><trkpt lat="44.86307853641015" lon="11.462991066615105"><ele>10.666666666666666</ele><time>2026-04-17T17:37:21.999Z</time></trkpt><trkpt lat="44.86298591779229" lon="11.463255800791943"><ele>10.333333333333334</ele><time>2026-04-17T17:37:22.999Z</time></trkpt><trkpt lat="44.86289257650078" lon="11.463525917455982"><ele>10.0</ele><time>2026-04-17T17:37:23.999Z</time></trkpt><trkpt lat="44.86279485050691" lon="11.463798537018183"><ele>9.666666666666668</ele><time>2026-04-17T17:37:24.999Z</time></trkpt><trkpt lat="44.86269657572922" lon="11.464066838435462"><ele>9.333333333333334</ele><time>2026-04-17T17:37:25.999Z</time></trkpt><trkpt lat="44.86260221285338" lon="11.464334114159378"><ele>9.0</ele><time>2026-04-17T17:37:26.999Z</time></trkpt><trkpt lat="44.86251334028167" lon="11.464578183029069"><ele>8.666666666666666</ele><time>2026-04-17T17:37:27.999Z</time></trkpt><trkpt lat="44.86242055905924" lon="11.464808959319198"><ele>8.333333333333332</ele><time>2026-04-17T17:37:28.999Z</time></trkpt><trkpt lat="44.86233211149996" lon="11.46503688684405"><ele>8.0</ele><time>2026-04-17T17:37:29.999Z</time></trkpt><trkpt lat="44.862249148249305" lon="11.46526336300164"><ele>8.0</ele><time>2026-04-17T17:37:30.999Z</time></trkpt><trkpt lat="44.862166541278" lon="11.46548720782649"><ele>8.0</ele><time>2026-04-17T17:37:31.999Z</time></trkpt><trkpt lat="44.8620830044272" lon="11.465711503050262"><ele>8.0</ele><time>2026-04-17T17:37:32.999Z</time></trkpt><trkpt lat="44.86199586916609" lon="11.465938035993883"><ele>8.0</ele><time>2026-04-17T17:37:33.999Z</time></trkpt><trkpt lat="44.86190901172986" lon="11.466165881430033"><ele>8.0</ele><time>2026-04-17T17:37:34.999Z</time></trkpt><trkpt lat="44.86181832733995" lon="11.466396100698692"><ele>8.0</ele><time>2026-04-17T17:37:35.999Z</time></trkpt><trkpt lat="44.861727337941424" lon="11.466624948534113"><ele>7.666666666666666</ele><time>2026-04-17T17:37:36.999Z</time></trkpt><trkpt lat="44.86163669660407" lon="11.46686039640347"><ele>7.333333333333334</ele><time>2026-04-17T17:37:38Z</time></trkpt><trkpt lat="44.86154071362377" lon="11.467111665471432"><ele>7.0</ele><time>2026-04-17T17:37:39Z</time></trkpt><trkpt lat="44.8614332083886" lon="11.467362218214557"><ele>7.333333333333334</ele><time>2026-04-17T17:37:40Z</time></trkpt><trkpt lat="44.861318838988915" lon="11.467614173355843"><ele>7.666666666666666</ele><time>2026-04-17T17:37:41Z</time></trkpt><trkpt lat="44.861197881589824" lon="11.467865169377498"><ele>8.0</ele><time>2026-04-17T17:37:42Z</time></trkpt><trkpt lat="44.861079726633406" lon="11.468117500211305"><ele>8.0</ele><time>2026-04-17T17:37:43Z</time></trkpt><trkpt lat="44.86096940911625" lon="11.468359662633773"><ele>8.0</ele><time>2026-04-17T17:37:44Z</time></trkpt><trkpt lat="44.8608622625047" lon="11.468579151854007"><ele>8.0</ele><time>2026-04-17T17:37:45Z</time></trkpt><trkpt lat="44.86076606545073" lon="11.4687825547863"><ele>8.0</ele><time>2026-04-17T17:37:46Z</time></trkpt><trkpt lat="44.86067661420433" lon="11.468979432278054"><ele>8.0</ele><time>2026-04-17T17:37:47Z</time></trkpt><trkpt lat="44.86058472857608" lon="11.469176094181133"><ele>8.0</ele><time>2026-04-17T17:37:48Z</time></trkpt><trkpt lat="44.86048015024723" lon="11.469396610178128"><ele>8.0</ele><time>2026-04-17T17:37:49Z</time></trkpt><trkpt lat="44.8603662883335" lon="11.469637171797666"><ele>8.0</ele><time>2026-04-17T17:37:50Z</time></trkpt><trkpt lat="44.860243110208785" lon="11.469891534340888"><ele>8.0</ele><time>2026-04-17T17:37:51Z</time></trkpt><trkpt lat="44.86011800649502" lon="11.470131516762056"><ele>8.333333333333332</ele><time>2026-04-17T17:37:52Z</time></trkpt><trkpt lat="44.85999838318796" lon="11.470344283048108"><ele>8.666666666666666</ele><time>2026-04-17T17:37:53Z</time></trkpt><trkpt lat="44.85988036751812" lon="11.47053575878313"><ele>9.0</ele><time>2026-04-17T17:37:54Z</time></trkpt><trkpt lat="44.85976787880108" lon="11.470716137934847"><ele>9.0</ele><time>2026-04-17T17:37:55Z</time></trkpt><trkpt lat="44.859660929748735" lon="11.470895296665656"><ele>9.0</ele><time>2026-04-17T17:37:56Z</time></trkpt><trkpt lat="44.85956356082685" lon="11.471080166259249"><ele>9.0</ele><time>2026-04-17T17:37:57Z</time></trkpt><trkpt lat="44.85948189381911" lon="11.471276092121837"><ele>8.333333333333334</ele><time>2026-04-17T17:37:58Z</time></trkpt><trkpt lat="44.85941573720714" lon="11.471506581926716"><ele>7.666666666666667</ele><time>2026-04-17T17:37:59Z</time></trkpt><trkpt lat="44.85936031395269" lon="11.471759053066373"><ele>7.0</ele><time>2026-04-17T17:38:00Z</time></trkpt><trkpt lat="44.85931682515104" lon="11.472019269700253"><ele>6.666666666666667</ele><time>2026-04-17T17:38:01Z</time></trkpt><trkpt lat="44.859262366869125" lon="11.47228414103438"><ele>6.333333333333334</ele><time>2026-04-17T17:38:02Z</time></trkpt><trkpt lat="44.859187004314585" lon="11.472564353686705"><ele>6.0</ele><time>2026-04-17T17:38:03Z</time></trkpt><trkpt lat="44.859095783964804" lon="11.47286250863245"><ele>6.5</ele><time>2026-04-17T17:38:04Z</time></trkpt><trkpt lat="44.85900183203469" lon="11.473173646930917"><ele>7.0</ele><time>2026-04-17T17:38:05Z</time></trkpt><trkpt lat="44.8589063616831" lon="11.473496642690318"><ele>7.0</ele><time>2026-04-17T17:38:06Z</time></trkpt><trkpt lat="44.858807012061106" lon="11.473837885775744"><ele>7.0</ele><time>2026-04-17T17:38:07Z</time></trkpt><trkpt lat="44.858694269930496" lon="11.474215996064528"><ele>7.0</ele><time>2026-04-17T17:38:08Z</time></trkpt><trkpt lat="44.85857245954207" lon="11.474618995348132"><ele>7.0</ele><time>2026-04-17T17:38:09Z</time></trkpt><trkpt lat="44.85843262140138" lon="11.475040689379362"><ele>7.0</ele><time>2026-04-17T17:38:10Z</time></trkpt><trkpt lat="44.85831096832056" lon="11.475398480152814"><ele>7.0</ele><time>2026-04-17T17:38:11Z</time></trkpt><trkpt lat="44.85821619184792" lon="11.475697440487657"><ele>7.0</ele><time>2026-04-17T17:38:12Z</time></trkpt><trkpt lat="44.85813624962387" lon="11.475965619938261"><ele>7.0</ele><time>2026-04-17T17:38:13Z</time></trkpt><trkpt lat="44.85806424692848" lon="11.476196401246899"><ele>7.0</ele><time>2026-04-17T17:38:14Z</time></trkpt><trkpt lat="44.85799410246235" lon="11.476419851143683"><ele>7.333333333333334</ele><time>2026-04-17T17:38:15Z</time></trkpt><trkpt lat="44.85793102079569" lon="11.476634361585017"><ele>7.666666666666666</ele><time>2026-04-17T17:38:16Z</time></trkpt><trkpt lat="44.85789062607653" lon="11.476854257585343"><ele>8.0</ele><time>2026-04-17T17:38:17Z</time></trkpt><trkpt lat="44.857884127139414" lon="11.477097625182987"><ele>8.333333333333332</ele><time>2026-04-17T17:38:18Z</time></trkpt><trkpt lat="44.85789631984303" lon="11.477375806747373"><ele>8.666666666666666</ele><time>2026-04-17T17:38:19Z</time></trkpt><trkpt lat="44.85789786590548" lon="11.477669678103547"><ele>9.0</ele><time>2026-04-17T17:38:20Z</time></trkpt><trkpt lat="44.85789526012494" lon="11.477980547603929"><ele>9.0</ele><time>2026-04-17T17:38:21Z</time></trkpt><trkpt lat="44.85787521115448" lon="11.478303459156836"><ele>9.0</ele><time>2026-04-17T17:38:22Z</time></trkpt><trkpt lat="44.85783176205912" lon="11.478617796563508"><ele>9.0</ele><time>2026-04-17T17:38:23Z</time></trkpt><trkpt lat="44.857769158184496" lon="11.478922231248996"><ele>9.0</ele><time>2026-04-17T17:38:24Z</time></trkpt><trkpt lat="44.85771452768184" lon="11.479217537064141"><ele>9.0</ele><time>2026-04-17T17:38:25Z</time></trkpt><trkpt lat="44.85767259422479" lon="11.479514286614974"><ele>9.0</ele><time>2026-04-17T17:38:26Z</time></trkpt><trkpt lat="44.85764502227262" lon="11.479829742633749"><ele>9.0</ele><time>2026-04-17T17:38:27Z</time></trkpt><trkpt lat="44.85762345642359" lon="11.480150853570608"><ele>8.5</ele><time>2026-04-17T17:38:28Z</time></trkpt><trkpt lat="44.8576004582495" lon="11.480475281367985"><ele>8.0</ele><time>2026-04-17T17:38:29Z</time></trkpt><trkpt lat="44.85758230367075" lon="11.48080206092346"><ele>8.0</ele><time>2026-04-17T17:38:30Z</time></trkpt><trkpt lat="44.857575263511684" lon="11.481117685987176"><ele>8.0</ele><time>2026-04-17T17:38:31Z</time></trkpt><trkpt lat="44.857580558302026" lon="11.481399892498093"><ele>8.0</ele><time>2026-04-17T17:38:32Z</time></trkpt><trkpt lat="44.85759379437013" lon="11.481643165014992"><ele>7.666666666666666</ele><time>2026-04-17T17:38:33Z</time></trkpt><trkpt lat="44.85761055509084" lon="11.481878036760135"><ele>7.333333333333334</ele><time>2026-04-17T17:38:33.999Z</time></trkpt><trkpt lat="44.85762825265154" lon="11.48209503977118"><ele>7.0</ele><time>2026-04-17T17:38:34.999Z</time></trkpt><trkpt lat="44.85764655107173" lon="11.482297068672983"><ele>7.0</ele><time>2026-04-17T17:38:35.999Z</time></trkpt><trkpt lat="44.85767219751297" lon="11.482478243410185"><ele>7.0</ele><time>2026-04-17T17:38:36.999Z</time></trkpt><trkpt lat="44.857704408289045" lon="11.482643352423606"><ele>7.0</ele><time>2026-04-17T17:38:37.999Z</time></trkpt><trkpt lat="44.85773970844062" lon="11.48279712174321"><ele>7.0</ele><time>2026-04-17T17:38:38.999Z</time></trkpt><trkpt lat="44.857781374313646" lon="11.48292909966278"><ele>7.333333333333334</ele><time>2026-04-17T17:38:39.999Z</time></trkpt><trkpt lat="44.85782921178802" lon="11.483046837672862"><ele>7.666666666666667</ele><time>2026-04-17T17:38:40.999Z</time></trkpt><trkpt lat="44.85787903443377" lon="11.483155525737661"><ele>8.0</ele><time>2026-04-17T17:38:41.999Z</time></trkpt><trkpt lat="44.85792676279441" lon="11.483259171443361"><ele>8.333333333333334</ele><time>2026-04-17T17:38:42.999Z</time></trkpt><trkpt lat="44.85796674386653" lon="11.48334474584941"><ele>8.666666666666666</ele><time>2026-04-17T17:38:43.999Z</time></trkpt><trkpt lat="44.85800267208849" lon="11.483421066416827"><ele>9.0</ele><time>2026-04-17T17:38:44.999Z</time></trkpt><trkpt lat="44.858032894470185" lon="11.483557954307457"><ele>9.0</ele><time>2026-04-17T17:38:46.999Z</time></trkpt><trkpt lat="44.85794872371688" lon="11.483667922674673"><ele>9.0</ele><time>2026-04-17T17:38:48.999Z</time></trkpt><trkpt lat="44.85787014002252" lon="11.483720061179405"><ele>9.0</ele><time>2026-04-17T17:38:49.999Z</time></trkpt><trkpt lat="44.85777205309979" lon="11.483786190384244"><ele>9.0</ele><time>2026-04-17T17:38:50.999Z</time></trkpt><trkpt lat="44.85765100934655" lon="11.48385478235844"><ele>9.0</ele><time>2026-04-17T17:38:51.999Z</time></trkpt><trkpt lat="44.857581481440505" lon="11.483904403747442"><ele>8.8</ele><time>2026-04-17T17:38:52.999Z</time></trkpt><trkpt lat="44.85749968834694" lon="11.483963456159959"><ele>8.600000000000001</ele><time>2026-04-17T17:38:53.999Z</time></trkpt><trkpt lat="44.85742520431532" lon="11.484017231626822"><ele>8.4</ele><time>2026-04-17T17:38:54.999Z</time></trkpt><trkpt lat="44.85733029584895" lon="11.484081921787428"><ele>8.200000000000001</ele><time>2026-04-17T17:38:55.999Z</time></trkpt><trkpt lat="44.857221849270374" lon="11.484143608670152"><ele>8.0</ele><time>2026-04-17T17:38:56.999Z</time></trkpt><trkpt lat="44.85709056684554" lon="11.484154598927477"><ele>8.0</ele><time>2026-04-17T17:38:57.999Z</time></trkpt><trkpt lat="44.85692558093182" lon="11.48414908693903"><ele>8.0</ele><time>2026-04-17T17:38:58.999Z</time></trkpt><trkpt lat="44.85671137079207" lon="11.484138327014568"><ele>8.0</ele><time>2026-04-17T17:38:59.999Z</time></trkpt><trkpt lat="44.85644121505166" lon="11.484142442419046"><ele>8.0</ele><time>2026-04-17T17:39:00.999Z</time></trkpt><trkpt lat="44.85613043643128" lon="11.484115055811978"><ele>8.0</ele><time>2026-04-17T17:39:01.999Z</time></trkpt><trkpt lat="44.855855164555884" lon="11.484102978169563"><ele>8.0</ele><time>2026-04-17T17:39:02.999Z</time></trkpt><trkpt lat="44.8555872003507" lon="11.484094848871026"><ele>8.0</ele><time>2026-04-17T17:39:03.999Z</time></trkpt><trkpt lat="44.855294276872" lon="11.484081831123982"><ele>8.0</ele><time>2026-04-17T17:39:04.999Z</time></trkpt><trkpt lat="44.85497568311766" lon="11.484068002486252"><ele>8.0</ele><time>2026-04-17T17:39:05.999Z</time></trkpt><trkpt lat="44.85462485448691" lon="11.484049180961845"><ele>7.5</ele><time>2026-04-17T17:39:06.999Z</time></trkpt><trkpt lat="44.854250880279636" lon="11.48403693082366"><ele>7.0</ele><time>2026-04-17T17:39:07.999Z</time></trkpt><trkpt lat="44.853854425825084" lon="11.484014482186753"><ele>7.0</ele><time>2026-04-17T17:39:08.999Z</time></trkpt><trkpt lat="44.853512976563415" lon="11.483998645401039"><ele>7.0</ele><time>2026-04-17T17:39:09.999Z</time></trkpt><trkpt lat="44.853216165506645" lon="11.483985765311356"><ele>7.5</ele><time>2026-04-17T17:39:10.999Z</time></trkpt><trkpt lat="44.85294144026269" lon="11.483973128167865"><ele>8.0</ele><time>2026-04-17T17:39:11.999Z</time></trkpt><trkpt lat="44.85269476204847" lon="11.48395841176122"><ele>8.0</ele><time>2026-04-17T17:39:12.999Z</time></trkpt><trkpt lat="44.85247223311495" lon="11.48394868296385"><ele>8.0</ele><time>2026-04-17T17:39:13.999Z</time></trkpt><trkpt lat="44.85229024684818" lon="11.483948186856418"><ele>8.0</ele><time>2026-04-17T17:39:14.999Z</time></trkpt><trkpt lat="44.8520942386344" lon="11.48393683146704"><ele>8.0</ele><time>2026-04-17T17:39:15.999Z</time></trkpt><trkpt lat="44.851903596283464" lon="11.483928779757184"><ele>8.0</ele><time>2026-04-17T17:39:16.999Z</time></trkpt><trkpt lat="44.85171919829569" lon="11.483920781010637"><ele>8.0</ele><time>2026-04-17T17:39:17.999Z</time></trkpt><trkpt lat="44.851536625765206" lon="11.48391171406398"><ele>8.333333333333332</ele><time>2026-04-17T17:39:18.999Z</time></trkpt><trkpt lat="44.85135901545923" lon="11.483903206820028"><ele>8.666666666666666</ele><time>2026-04-17T17:39:19.999Z</time></trkpt><trkpt lat="44.85118347919144" lon="11.483895114303142"><ele>9.0</ele><time>2026-04-17T17:39:20.999Z</time></trkpt><trkpt lat="44.851018846178796" lon="11.483887037695578"><ele>9.0</ele><time>2026-04-17T17:39:21.999Z</time></trkpt><trkpt lat="44.850870657986064" lon="11.483880137797295"><ele>9.0</ele><time>2026-04-17T17:39:22.999Z</time></trkpt><trkpt lat="44.85073612873356" lon="11.483873175845112"><ele>9.0</ele><time>2026-04-17T17:39:23.999Z</time></trkpt><trkpt lat="44.85060127812314" lon="11.483865753204148"><ele>9.0</ele><time>2026-04-17T17:39:24.999Z</time></trkpt><trkpt lat="44.850465424611386" lon="11.483857931140939"><ele>9.0</ele><time>2026-04-17T17:39:25.999Z</time></trkpt><trkpt lat="44.85034127213421" lon="11.483855096180104"><ele>9.0</ele><time>2026-04-17T17:39:26.999Z</time></trkpt><trkpt lat="44.85023038142463" lon="11.483857158565804"><ele>9.0</ele><time>2026-04-17T17:39:27.999Z</time></trkpt><trkpt lat="44.850134211033236" lon="11.483871624207746"><ele>9.0</ele><time>2026-04-17T17:39:28.999Z</time></trkpt><trkpt lat="44.850047317160545" lon="11.48391210491987"><ele>9.0</ele><time>2026-04-17T17:39:29.999Z</time></trkpt><trkpt lat="44.849966227360525" lon="11.483992541277322"><ele>8.75</ele><time>2026-04-17T17:39:30.999Z</time></trkpt><trkpt lat="44.84988723564918" lon="11.484114891062333"><ele>8.5</ele><time>2026-04-17T17:39:31.999Z</time></trkpt><trkpt lat="44.849803615724085" lon="11.484277592380897"><ele>8.25</ele><time>2026-04-17T17:39:32.999Z</time></trkpt><trkpt lat="44.849721643275885" lon="11.484461430751098"><ele>8.0</ele><time>2026-04-17T17:39:33.999Z</time></trkpt><trkpt lat="44.84963079824419" lon="11.484662498951879"><ele>7.333333333333333</ele><time>2026-04-17T17:39:34.999Z</time></trkpt><trkpt lat="44.84953212323188" lon="11.484860274675222"><ele>6.666666666666666</ele><time>2026-04-17T17:39:35.999Z</time></trkpt><trkpt lat="44.849424095939916" lon="11.48507192649914"><ele>6.0</ele><time>2026-04-17T17:39:36.999Z</time></trkpt><trkpt lat="44.84931932197613" lon="11.485288289450212"><ele>6.666666666666666</ele><time>2026-04-17T17:39:37.999Z</time></trkpt><trkpt lat="44.84921433937167" lon="11.485501008212875"><ele>7.333333333333333</ele><time>2026-04-17T17:39:38.999Z</time></trkpt><trkpt lat="44.84910764601389" lon="11.485717702664164"><ele>8.0</ele><time>2026-04-17T17:39:39.999Z</time></trkpt><trkpt lat="44.84899952890847" lon="11.485936244848869"><ele>8.0</ele><time>2026-04-17T17:39:40.999Z</time></trkpt><trkpt lat="44.84889304037464" lon="11.486154573701981"><ele>8.0</ele><time>2026-04-17T17:39:41.999Z</time></trkpt><trkpt lat="44.848787956123736" lon="11.486369408389299"><ele>8.0</ele><time>2026-04-17T17:39:42.999Z</time></trkpt><trkpt lat="44.8486812188105" lon="11.486581982814837"><ele>8.0</ele><time>2026-04-17T17:39:44Z</time></trkpt><trkpt lat="44.84857823312783" lon="11.486791351709277"><ele>8.0</ele><time>2026-04-17T17:39:45Z</time></trkpt><trkpt lat="44.84847754315722" lon="11.486992215757182"><ele>8.0</ele><time>2026-04-17T17:39:46Z</time></trkpt><trkpt lat="44.84837917349139" lon="11.48718985596051"><ele>8.333333333333332</ele><time>2026-04-17T17:39:47Z</time></trkpt><trkpt lat="44.84828313729107" lon="11.487385655234261"><ele>8.666666666666666</ele><time>2026-04-17T17:39:48Z</time></trkpt><trkpt lat="44.848190744779515" lon="11.487572535159165"><ele>9.0</ele><time>2026-04-17T17:39:49Z</time></trkpt><trkpt lat="44.848105179596146" lon="11.487745742931768"><ele>9.0</ele><time>2026-04-17T17:39:50Z</time></trkpt><trkpt lat="44.84802743461284" lon="11.487903378281713"><ele>9.0</ele><time>2026-04-17T17:39:51Z</time></trkpt><trkpt lat="44.847956394174815" lon="11.488048510494107"><ele>9.0</ele><time>2026-04-17T17:39:52Z</time></trkpt><trkpt lat="44.84789196218831" lon="11.488184479201824"><ele>9.0</ele><time>2026-04-17T17:39:53Z</time></trkpt><trkpt lat="44.84783620027909" lon="11.488310306142075"><ele>9.0</ele><time>2026-04-17T17:39:54Z</time></trkpt><trkpt lat="44.84778631960097" lon="11.488423854573025"><ele>9.0</ele><time>2026-04-17T17:39:55Z</time></trkpt><trkpt lat="44.84773789535306" lon="11.488531031584255"><ele>9.0</ele><time>2026-04-17T17:39:56Z</time></trkpt><trkpt lat="44.84769214307159" lon="11.488638289974396"><ele>9.0</ele><time>2026-04-17T17:39:57Z</time></trkpt><trkpt lat="44.84764015065934" lon="11.488751610425945"><ele>9.0</ele><time>2026-04-17T17:39:58Z</time></trkpt><trkpt lat="44.84758571937475" lon="11.488863373589783"><ele>9.2</ele><time>2026-04-17T17:39:59Z</time></trkpt><trkpt lat="44.847530516765154" lon="11.488973331067406"><ele>9.4</ele><time>2026-04-17T17:40:00Z</time></trkpt><trkpt lat="44.84747717198116" lon="11.489100711951604"><ele>9.6</ele><time>2026-04-17T17:40:01Z</time></trkpt><trkpt lat="44.84741454533873" lon="11.489244794178958"><ele>9.8</ele><time>2026-04-17T17:40:02Z</time></trkpt><trkpt lat="44.84734853419972" lon="11.489392392751427"><ele>10.0</ele><time>2026-04-17T17:40:03Z</time></trkpt><trkpt lat="44.847277411932694" lon="11.4895515976469"><ele>10.25</ele><time>2026-04-17T17:40:04Z</time></trkpt><trkpt lat="44.84720525586869" lon="11.489710765161258"><ele>10.5</ele><time>2026-04-17T17:40:05Z</time></trkpt><trkpt lat="44.84713480982675" lon="11.48987073721805"><ele>10.75</ele><time>2026-04-17T17:40:06Z</time></trkpt><trkpt lat="44.84706524407721" lon="11.490032814113409"><ele>11.0</ele><time>2026-04-17T17:40:07Z</time></trkpt><trkpt lat="44.846993157489564" lon="11.490197011157802"><ele>11.0</ele><time>2026-04-17T17:40:08Z</time></trkpt><trkpt lat="44.84691960070753" lon="11.4903619503781"><ele>11.0</ele><time>2026-04-17T17:40:09Z</time></trkpt><trkpt lat="44.84684933344731" lon="11.490527019345187"><ele>11.0</ele><time>2026-04-17T17:40:10Z</time></trkpt><trkpt lat="44.84678141793696" lon="11.490690601408598"><ele>11.0</ele><time>2026-04-17T17:40:11Z</time></trkpt><trkpt lat="44.846715274707364" lon="11.49083484175779"><ele>10.8</ele><time>2026-04-17T17:40:12Z</time></trkpt><trkpt lat="44.84665616778599" lon="11.490964677258846"><ele>10.600000000000001</ele><time>2026-04-17T17:40:13Z</time></trkpt><trkpt lat="44.84660198207024" lon="11.49108266207806"><ele>10.4</ele><time>2026-04-17T17:40:14Z</time></trkpt><trkpt lat="44.84655337974004" lon="11.491189354400216"><ele>10.2</ele><time>2026-04-17T17:40:15Z</time></trkpt><trkpt lat="44.846510536157105" lon="11.491292975148742"><ele>10.0</ele><time>2026-04-17T17:40:16Z</time></trkpt><trkpt lat="44.846467669083616" lon="11.491407044585063"><ele>9.833333333333334</ele><time>2026-04-17T17:40:17Z</time></trkpt><trkpt lat="44.84641764594483" lon="11.491521692840955"><ele>9.666666666666668</ele><time>2026-04-17T17:40:18Z</time></trkpt><trkpt lat="44.846370093863335" lon="11.491627180647113"><ele>9.5</ele><time>2026-04-17T17:40:19Z</time></trkpt><trkpt lat="44.84632679135338" lon="11.491724166194208"><ele>9.333333333333334</ele><time>2026-04-17T17:40:20Z</time></trkpt><trkpt lat="44.84628908268984" lon="11.49182000681286"><ele>9.166666666666666</ele><time>2026-04-17T17:40:21Z</time></trkpt><trkpt lat="44.84624823842166" lon="11.491912291966843"><ele>9.0</ele><time>2026-04-17T17:40:22Z</time></trkpt><trkpt lat="44.846213797504234" lon="11.491994928545301"><ele>9.0</ele><time>2026-04-17T17:40:23Z</time></trkpt><trkpt lat="44.84617616813366" lon="11.492076407973801"><ele>9.0</ele><time>2026-04-17T17:40:24Z</time></trkpt><trkpt lat="44.846143119172254" lon="11.492153612870311"><ele>9.0</ele><time>2026-04-17T17:40:25Z</time></trkpt><trkpt lat="44.8460893289878" lon="11.492278085416492"><ele>9.0</ele><time>2026-04-17T17:40:27Z</time></trkpt><trkpt lat="44.84599065087756" lon="11.492345181003566"><ele>9.0</ele><time>2026-04-17T17:40:29Z</time></trkpt><trkpt lat="44.84588436965157" lon="11.492226804816054"><ele>9.0</ele><time>2026-04-17T17:40:31Z</time></trkpt><trkpt lat="44.84579911075683" lon="11.492127103027503"><ele>9.0</ele><time>2026-04-17T17:40:32Z</time></trkpt><trkpt lat="44.845685191342795" lon="11.491997483920247"><ele>9.0</ele><time>2026-04-17T17:40:33Z</time></trkpt><trkpt lat="44.84556346017356" lon="11.49186085866379"><ele>9.0</ele><time>2026-04-17T17:40:34Z</time></trkpt><trkpt lat="44.84543587722839" lon="11.491714906273966"><ele>9.0</ele><time>2026-04-17T17:40:35Z</time></trkpt><trkpt lat="44.84529203052922" lon="11.49155378404583"><ele>9.0</ele><time>2026-04-17T17:40:36Z</time></trkpt><trkpt lat="44.84513890021716" lon="11.491388101404654"><ele>9.0</ele><time>2026-04-17T17:40:37Z</time></trkpt><trkpt lat="44.84498536019005" lon="11.491223341487501"><ele>9.0</ele><time>2026-04-17T17:40:37.999Z</time></trkpt><trkpt lat="44.84482748483748" lon="11.491058098565315"><ele>9.0</ele><time>2026-04-17T17:40:38.999Z</time></trkpt><trkpt lat="44.844669257611194" lon="11.49090576620318"><ele>9.0</ele><time>2026-04-17T17:40:39.999Z</time></trkpt><trkpt lat="44.84452568951779" lon="11.490764967392877"><ele>9.0</ele><time>2026-04-17T17:40:40.999Z</time></trkpt><trkpt lat="44.844386395520814" lon="11.490644094037336"><ele>9.0</ele><time>2026-04-17T17:40:41.999Z</time></trkpt><trkpt lat="44.844255436839624" lon="11.490531437009142"><ele>9.0</ele><time>2026-04-17T17:40:42.999Z</time></trkpt><trkpt lat="44.8441360551266" lon="11.49042930541193"><ele>9.25</ele><time>2026-04-17T17:40:43.999Z</time></trkpt><trkpt lat="44.844024936547605" lon="11.490333839889663"><ele>9.5</ele><time>2026-04-17T17:40:44.999Z</time></trkpt><trkpt lat="44.84391963412299" lon="11.49024747123188"><ele>9.75</ele><time>2026-04-17T17:40:45.999Z</time></trkpt><trkpt lat="44.8438234181385" lon="11.49016511816917"><ele>10.0</ele><time>2026-04-17T17:40:46.999Z</time></trkpt><trkpt lat="44.843736514909935" lon="11.490090746446024"><ele>10.0</ele><time>2026-04-17T17:40:47.999Z</time></trkpt><trkpt lat="44.84365057280714" lon="11.490018813447543"><ele>10.0</ele><time>2026-04-17T17:40:48.999Z</time></trkpt><trkpt lat="44.84356858822397" lon="11.489944130372688"><ele>10.0</ele><time>2026-04-17T17:40:49.999Z</time></trkpt><trkpt lat="44.843488385032025" lon="11.489876892491626"><ele>10.0</ele><time>2026-04-17T17:40:50.999Z</time></trkpt><trkpt lat="44.84342213774467" lon="11.48981876230093"><ele>10.0</ele><time>2026-04-17T17:40:51.999Z</time></trkpt><trkpt lat="44.84332093290404" lon="11.489731014051008"><ele>10.0</ele><time>2026-04-17T17:40:53.999Z</time></trkpt><trkpt lat="44.84325645161684" lon="11.48967869839143"><ele>10.0</ele><time>2026-04-17T17:40:55.999Z</time></trkpt><trkpt lat="44.8431993550204" lon="11.4896053782004"><ele>10.0</ele><time>2026-04-17T17:41:03.999Z</time></trkpt><trkpt lat="44.84312213302938" lon="11.489757418396069"><ele>10.0</ele><time>2026-04-17T17:41:05.999Z</time></trkpt><trkpt lat="44.84308248358179" lon="11.489897989783117"><ele>10.0</ele><time>2026-04-17T17:41:07.999Z</time></trkpt><trkpt lat="44.84303272743252" lon="11.49002704325962"><ele>10.0</ele><time>2026-04-17T17:41:09.999Z</time></trkpt><trkpt lat="44.84296146634417" lon="11.490153999845404"><ele>10.0</ele><time>2026-04-17T17:41:11.999Z</time></trkpt><trkpt lat="44.842934858930846" lon="11.490234610180298"><ele>10.0</ele><time>2026-04-17T17:41:12.999Z</time></trkpt><trkpt lat="44.84290138326604" lon="11.49031597922085"><ele>10.0</ele><time>2026-04-17T17:41:13.999Z</time></trkpt><trkpt lat="44.84286282006067" lon="11.490401094222428"><ele>10.0</ele><time>2026-04-17T17:41:14.999Z</time></trkpt><trkpt lat="44.84282028877018" lon="11.490481228456414"><ele>10.0</ele><time>2026-04-17T17:41:15.999Z</time></trkpt><trkpt lat="44.842777461722996" lon="11.49056375711891"><ele>10.142857142857142</ele><time>2026-04-17T17:41:16.999Z</time></trkpt><trkpt lat="44.84273819031096" lon="11.490645516398123"><ele>10.285714285714286</ele><time>2026-04-17T17:41:17.999Z</time></trkpt><trkpt lat="44.84269924586968" lon="11.490719044966706"><ele>10.428571428571429</ele><time>2026-04-17T17:41:18.999Z</time></trkpt><trkpt lat="44.842664068747425" lon="11.490794516513656"><ele>10.571428571428571</ele><time>2026-04-17T17:41:19.999Z</time></trkpt><trkpt lat="44.84262944844364" lon="11.490874448088416"><ele>10.714285714285714</ele><time>2026-04-17T17:41:20.999Z</time></trkpt><trkpt lat="44.84259210951225" lon="11.490971550309625"><ele>10.857142857142858</ele><time>2026-04-17T17:41:21.999Z</time></trkpt><trkpt lat="44.842550456679895" lon="11.491072792124093"><ele>11.0</ele><time>2026-04-17T17:41:22.999Z</time></trkpt><trkpt lat="44.84250725938676" lon="11.491168596756284"><ele>11.0</ele><time>2026-04-17T17:41:23.999Z</time></trkpt><trkpt lat="44.84246316935351" lon="11.491262757390022"><ele>11.0</ele><time>2026-04-17T17:41:24.999Z</time></trkpt><trkpt lat="44.842418784102726" lon="11.49135945453073"><ele>11.0</ele><time>2026-04-17T17:41:25.999Z</time></trkpt><trkpt lat="44.84238333006554" lon="11.49144280924958"><ele>11.0</ele><time>2026-04-17T17:41:26.999Z</time></trkpt><trkpt lat="44.84234736119686" lon="11.491525704038505"><ele>11.0</ele><time>2026-04-17T17:41:27.999Z</time></trkpt><trkpt lat="44.84230840598447" lon="11.491606828567148"><ele>11.0</ele><time>2026-04-17T17:41:28.999Z</time></trkpt><trkpt lat="44.84226737380137" lon="11.491679025846361"><ele>11.0</ele><time>2026-04-17T17:41:29.999Z</time></trkpt><trkpt lat="44.84220929595059" lon="11.49180071063236"><ele>11.0</ele><time>2026-04-17T17:41:31.999Z</time></trkpt><trkpt lat="44.84218206900306" lon="11.491895967158461"><ele>11.0</ele><time>2026-04-17T17:41:33.999Z</time></trkpt><trkpt lat="44.84218091152667" lon="11.492007250086083"><ele>11.0</ele><time>2026-04-17T17:41:36.999Z</time></trkpt></trkseg></trk></gpx>